[[{"header":{"parameterUnit":"m.s-1","parameterCategory":1,"la1":31.0,"la2":29.5877,"lo1":-88.7671,"lo2":-86.6584,"dy":0.0162,"dx":0.0185,"nx":115,"ny":88,"refTime":"2024-06-12T06:00:00:Z","depth":0,"parameterNumber":2,"parameterNumberName":"U-component_of_WINDS"},"data":[0.0,0.0,0.0,0.0,0.0,0.0,0.0,0.0,0.0,0.0,0.0,0.0,0.0,0.0,0.0,0.0,0.0,0.0,0.0,0.0,0.0,0.0,0.0,0.0,0.0,0.0,0.0,0.0,0.0,0.0,0.0,0.0,0.0,0.0,0.0,0.0,0.0,0.0,0.0,0.0,0.0,0.0,0.0,0.0,0.0,0.0,0.0,0.0,0.0,0.0,0.0,0.0,0.0,0.0,0.0,0.0,0.0,0.0,0.0,0.0,0.0,0.0,0.0,0.0,0.0,0.0,0.0,0.0,0.0,0.0,0.0,0.0,0.0,0.0,0.0,0.0,0.0,0.0,0.0,0.0,0.0,0.0,0.0,0.0,0.0,0.0,0.0,0.0,0.0,0.0,0.0,0.0,0.0,0.0,0.0,0.0,0.0,0.0,0.0,0.0,0.0,0.0,0.0,0.0,0.0,0.0,0.0,0.0,0.0,0.0,0.0,0.0,0.0,0.0,0.0,0.0,0.0,0.0,0.0,0.0,0.0,0.0,0.0,0.0,0.0,0.0,0.0,0.0,0.0,0.0,0.0,0.0,0.0,0.0,0.0,0.0,0.0,0.0,0.0,0.0,0.0,0.0,0.0,0.0,0.0,0.0,0.0,0.0,0.0,0.0,0.0,0.0,0.0,0.0,0.0,0.0,0.0,0.0,0.0,0.0,0.0,0.0,0.0,0.0,0.0,0.0,0.0,0.0,0.0,0.0,0.0,0.0,0.0,0.0,0.0,0.0,0.0,0.0,0.0,0.0,0.0,0.0,0.0,0.0,0.0,0.0,0.0,0.0,0.0,0.0,0.0,0.0,0.0,0.0,0.0,0.0,0.0,0.0,0.0,0.0,0.0,0.0,0.0,0.0,0.0,0.0,0.0,0.0,0.0,0.0,0.0,0.0,0.0,0.0,0.0,0.0,0.0,0.0,0.0,0.0,0.0,0.0,0.0,0.0,0.0,0.0,0.0,0.0,0.0,0.0,0.0,0.0,0.0,0.0,0.0,0.0,0.0,0.0,0.0,0.0,0.0,0.0,0.0,0.0,0.0,0.0,0.0,0.0,0.0,0.0,0.0,0.0,0.0,0.0,0.0,0.0,0.0,0.0,0.0,0.0,0.0,0.0,0.0,0.0,0.0,0.0,0.0,0.0,0.0,0.0,0.0,0.0,0.0,0.0,0.0,0.0,0.0,0.0,0.0,0.0,0.0,0.0,0.0,0.0,0.0,0.0,0.0,0.0,0.0,0.0,0.0,0.0,0.0,0.0,0.0,0.0,0.0,0.0,0.0,0.0,0.0,0.0,0.0,0.0,0.0,0.0,0.0,0.0,0.0,0.0,0.0,0.0,0.0,0.0,0.0,0.0,0.0,0.0,0.0,0.0,0.0,0.0,0.0,0.0,0.0,0.0,0.0,0.0,0.0,0.0,0.0,0.0,0.0,0.0,0.0,0.0,0.0,0.0,0.0,0.0,0.0,0.0,0.0,0.0,0.0,0.0,0.0,0.0,0.0,0.0,0.0,0.0,0.0,0.0,0.0,0.0,0.0,0.0,0.0,0.0,0.0,0.0,0.0,0.0,0.0,0.0,0.0,0.0,0.0,0.0,0.0,0.0,0.0,0.0,0.0,0.0,0.0,0.0,0.0,0.0,0.0,0.0,0.0,0.0,0.0,0.0,0.0,0.0,0.0,0.0,0.0,0.0,0.0,0.0,0.0,0.0,0.0,0.0,0.0,0.0,0.0,0.0,0.0,0.0,0.0,0.0,0.0,0.0,0.0,0.0,0.0,0.0,0.0,0.0,0.0,0.0,0.0,0.0,0.0,0.0,0.0,0.0,0.0,0.0,0.0,0.0,0.0,0.0,0.0,0.0,0.0,0.0,0.0,0.0,0.0,0.0,0.0,0.0,0.0,0.0,0.0,0.0,0.0,0.0,0.0,0.0,0.0,0.0,0.0,0.0,0.0,0.0,0.0,0.0,0.0,0.0,0.0,0.0,0.0,0.0,0.0,0.0,0.0,0.0,0.0,0.0,0.0,0.0,0.0,0.0,0.0,0.0,0.0,0.0,0.0,0.0,0.0,0.0,0.0,0.0,0.0,0.0,0.0,0.0,0.0,0.0,0.0,0.0,0.0,0.0,0.0,0.0,0.0,0.0,0.0,0.0,0.0,0.0,0.0,0.0,0.0,0.0,0.0,0.0,0.0,0.0,0.0,0.0,0.0,0.0,0.0,0.0,0.0,0.0,0.0,0.0,0.0,0.0,0.0,0.0,0.0,0.0,0.0,0.0,0.0,0.0,0.0,0.0,0.0,0.0,0.0,0.0,0.0,0.0,0.0,0.0,0.0,0.0,0.0,0.0,0.0,0.0,0.0,0.0,0.0,0.0,0.0,0.0,0.0,0.0,0.0,0.0,0.0,0.0,0.0,0.0,0.0,0.0,0.0,0.0,0.0,0.0,0.0,0.0,0.0,0.0,0.0,0.0,0.0,0.0,0.0,0.0,0.0,0.0,0.0,0.0,0.0,0.0,0.0,0.0,0.0,0.0,0.0,0.0,0.0,0.0,0.0,0.0,0.0,0.0,0.0,0.0,0.0,0.0,0.0,0.0,0.0,0.0,0.0,0.0,0.0,0.0,0.0,0.0,0.0,0.0,0.0,0.0,0.0,0.0,0.0,0.0,0.0,0.0,0.0,0.0,0.0,0.0,0.0,0.0,0.0,0.0,0.0,0.0,0.0,0.0,0.0,0.0,0.0,0.0,0.0,0.0,0.0,0.0,0.0,0.0,0.0,0.0,0.0,0.0,0.0,0.0,0.0,0.0,0.0,0.0,0.0,0.0,0.0,0.0,0.0,0.0,0.0,0.0,0.0,0.0,0.0,0.0,0.0,0.0,0.0,0.0,0.0,0.0,0.0,0.0,0.0,0.0,0.0,0.0,0.0,0.0,0.0,0.0,0.0,0.0,0.0,0.0,0.0,0.0,0.0,0.0,0.0,0.0,0.0,0.0,0.0,0.0,0.0,0.0,0.0,0.0,0.0,0.0,0.0,0.0,0.0,0.0,0.0,0.0,0.0,0.0,0.0,0.0,0.0,0.0,0.0,0.0,0.0,0.0,0.0,0.0,0.0,0.0,0.0,0.0,0.0,0.0,0.0,0.0,0.0,0.0,0.0,0.0,0.0,0.0,0.0,0.0,0.0,0.0,0.0,0.0,0.0,0.0,0.0,0.0,0.0,0.0,0.0,0.0,0.0,0.0,0.0,0.0,0.0,0.0,0.0,0.0,0.0,0.0,0.0,0.0,0.0,0.0,0.0,0.0,0.0,0.0,0.0,0.0,0.0,0.0,0.0,0.0,0.0,0.0,0.0,0.0,0.0,0.0,0.0,0.0,0.0,0.0,0.0,0.0,0.0,0.0,0.0,0.0,0.0,0.0,0.0,0.0,0.0,0.0,0.0,0.0,0.0,0.0,0.0,0.0,0.0,0.0,0.0,0.0,0.0,0.0,0.0,0.0,0.0,0.0,0.0,0.0,0.0,0.0,0.0,0.0,0.0,0.0,0.0,0.0,0.0,0.0,0.0,0.0,0.0,0.0,0.0,0.0,0.0,0.0,0.0,0.0,0.0,0.0,0.0,0.0,0.0,0.0,0.0,0.0,0.0,0.0,0.0,0.0,0.0,0.0,0.0,0.0,0.0,0.0,0.0,0.0,0.0,0.0,0.0,0.0,0.0,0.0,0.0,0.0,0.0,0.0,0.0,0.0,0.0,0.0,0.0,0.0,0.0,0.0,0.0,0.0,0.0,0.0,0.0,0.0,0.0,0.0,0.0,0.0,0.0,0.0,0.0,0.0,0.0,0.0,0.0,0.0,0.0,0.0,0.0,0.0,0.0,0.0,0.0,0.0,0.0,0.0,0.0,0.0,0.0,0.0,0.0,0.0,0.0,0.0,0.0,0.0,0.0,0.0,0.0,0.0,0.0,0.0,0.0,0.0,0.0,0.0,0.0,0.0,0.0,0.0,0.0,0.0,0.0,0.0,0.0,0.0,0.0,0.0,0.0,0.0,0.0,0.0,0.0,0.0,0.0,0.0,0.0,0.0,0.0,0.0,0.0,0.0,0.0,0.0,0.0,0.0,0.0,0.0,0.0,0.0,0.0,0.0,0.0,0.0,0.0,0.0,0.0,0.0,0.0,0.0,0.0,0.0,0.0,0.0,0.0,0.0,0.0,0.0,0.0,0.0,0.0,0.0,-0.1296,0.0,0.0,0.0,0.0,0.0,0.0,0.0,0.0,0.0,0.0,0.0,0.0,0.0,0.0,0.0,0.0,0.0,0.0,0.0,0.0,0.0,0.0,0.0,0.0,0.0,0.0,0.0,0.0,0.0,0.0,0.0,0.0,0.0,0.0,0.0,0.0,0.0,0.0,0.0,0.0,0.0,0.0,0.0,0.0,0.0,0.0,0.0,0.0,0.0,0.0,0.0,0.0,0.0,0.0,0.0,0.0,0.0,0.0,0.0,0.0,0.0,0.0,0.0,0.0,0.0,0.0,0.0,0.0,0.0,0.0,0.0,0.0,0.0,0.0,0.0,0.0,0.0,0.0,0.0,0.0,0.0,0.0,0.0,0.0,0.0,0.0,0.0,0.0,0.0,0.0,0.0,0.0,0.0,0.0,0.0,0.0,0.0,0.0,0.0,0.0,0.0,0.0,0.0,0.0,0.0,0.0,0.0,0.0,0.0,0.0,-0.0892,-0.0936,-0.1139,-0.1252,-0.1252,0.0,0.0,0.0,0.0,0.0,0.0,0.0,0.0,0.0,0.0,0.0,0.0,0.0,0.0,0.0,0.0,0.0,0.0,0.0,0.0,0.0,0.0,0.0,0.0,0.0,0.0,0.0,0.0,0.0,0.0,0.0,0.0,0.0,0.0,0.0,0.0,0.0,0.0,0.0,0.0,0.0,0.0,0.0,0.0,0.0,0.0,0.0,0.0,0.0,0.0,0.0,0.0,0.0,0.0,0.0,0.0,0.0,0.0,0.0,0.0,0.0,0.0,0.0,0.0,0.0,0.0,0.0,0.0,0.0,0.0,0.0,0.0,0.0,0.0,0.0,0.0,0.0,0.0,0.0,0.0,0.0,0.0,0.0,0.0,0.0,0.0,0.0,0.0,0.0,0.0,0.0,0.0,0.0,0.0,0.0,0.0,0.0,0.0,0.0,0.0,0.0,0.0,0.0,0.0,0.0,0.0,0.0,0.0,0.0,0.0,0.0,0.0,-0.099,-0.115,-0.1152,0.0,0.0,0.0,0.0,0.0,0.0,0.0,0.0,0.0,0.0,0.0,0.0,0.0,0.0,0.0,0.0,0.0,0.0,0.0,0.0,0.0,0.0,0.0,0.0,0.0,0.0,0.0,0.0,0.0,0.0,0.0,0.0,0.0,0.0,0.0,0.0,0.0,0.0,0.0,0.0,0.0,0.0,0.0,0.0,0.0,0.0,0.0,0.0,0.0,0.0,0.0,0.0,0.0,0.0,0.0,0.0,0.0,0.0,0.0,0.0,0.0,0.0,0.0,0.0,0.0,0.0,0.0,0.0,0.0,0.0,0.0,0.0,0.0,0.0,0.0,0.0,0.0,0.0,0.0,0.0,0.0,0.0,0.0,0.0,0.0,0.0,0.0,0.0,0.0,0.0,0.0,0.0,0.0,0.0,0.0,0.0,0.0,0.0,0.0,0.0,0.0,0.0,0.0,0.0,0.0,0.0,0.0,0.0,0.0,0.0,-0.0489,-0.06,-0.0651,0.0,-0.0752,0.0,0.0,0.0,0.0,0.0,0.0,0.0,0.0,0.0,0.0,0.0,0.0,0.0,0.0,0.0,0.0,0.0,0.0,0.0,0.0,0.0,0.0,0.0,0.0,0.0,0.0,0.0,0.0,0.0,0.0,0.0,0.0,0.0,0.0,0.0,0.0,0.0,0.0,0.0,0.0,0.0,0.0,0.0,0.0,0.0,0.0,0.0,0.0,0.0,0.0,0.0,0.0,0.0,0.0,0.0,0.0,0.0,0.0,0.0,0.0,0.0,0.0,0.0,0.0,0.0,0.0,0.0,0.0,0.0,0.0,0.0,0.0,0.0,0.0,0.0,0.0,0.0,0.0,0.0,0.0,0.0,0.0,0.0,0.0,0.0,0.0,0.0,0.0,0.0,0.0,0.0,0.0,0.0,0.0,0.0,0.0,0.0,0.0,0.0,0.0,0.0,0.0,0.0,0.0,0.0,0.0,0.0,0.0,0.0,0.0,0.0,-0.0481,-0.0557,-0.0608,0.0,0.0,0.0,0.0,0.0,0.0,0.0,0.0,0.0,0.0,0.0,0.0,0.0,0.0,0.0,0.0,0.0,0.0,0.0,0.0,0.0,0.0,0.0,0.0,0.0,0.0,0.0,0.0,0.0,0.0,0.0,0.0,0.0,0.0,0.0,0.0,0.0,0.0,0.0,0.0,0.0,0.0,0.0,0.0,0.0,0.0,0.0,0.0,0.0,0.0,0.0,0.0,0.0,0.0,0.0,0.0,0.0,0.0,0.0,0.0,0.0,0.0,0.0,0.0,0.0,0.0,0.0,0.0,0.0,0.0,0.0,0.0,0.0,0.0,0.0,0.0,0.0,0.0,0.0,0.0,0.0,0.0,0.0,0.0,0.0,0.0,0.0,0.0,0.0,0.0,0.0,0.0,0.0,0.0,0.0,0.0,0.0,0.0,0.0,0.0,0.0,0.0,0.0,0.0,0.0,0.0,0.0,0.0,0.0,0.0,-0.0298,0.0,-0.0286,-0.0469,-0.0569,-0.0608,0.0,0.0,0.0,0.0,0.0,0.0,0.0,0.0,0.0,0.0,0.0,0.0,0.0,0.0,0.0,0.0,0.0,0.0,0.0,0.0,0.0,0.0,0.0,0.0,0.0,0.0,0.0,0.0,0.0,0.0,0.0,0.0,0.0,0.0,0.0,0.0,0.0,0.0,0.0,0.0,0.0,0.0,0.0,0.0,0.0,0.0,0.0,0.0,0.0,0.0,0.0,0.0,0.0,0.0,0.0,0.0,0.0,0.0,0.0,0.0,0.0,0.0,0.0,0.0,0.0,0.0,0.0,0.0,0.0,0.0,0.0,0.0,0.0,0.0,0.0,0.0,0.0,0.0,0.0,0.0,0.0,0.0,0.0,0.0,0.0,0.0,0.0,0.0,0.0,0.0,0.0,0.0,0.0,0.0,0.0,0.0,0.0,0.0,0.0,0.0,0.0,0.0,0.0,0.0,0.0,0.0,0.0,0.0,0.0,-0.0078,0.0052,-0.0028,-0.0333,-0.054,0.0,0.0,0.0,0.0,0.0,0.0,0.0,0.0,0.0,0.0,0.0,0.0,0.0,0.0,0.0,0.0,0.0,0.0,0.0,0.0,0.0,0.0,0.0,0.0,0.0,0.0,0.0,0.0,0.0,0.0,0.0,0.0,0.0,0.0,0.0,0.0,0.0,0.0,0.0,0.0,0.0,0.0,0.0,0.0,0.0,0.0,0.0,0.0,0.0,0.0,0.0,0.0,0.0,0.0,0.0,0.0,0.0,0.0,0.0,0.0,0.0,0.0,0.0,0.0,0.0,0.0,0.0,0.0,0.0,0.0,0.0,0.0,0.0,0.0,0.0,0.0,0.0,0.0,0.0,0.0,0.0,0.0,0.0,0.0,0.0,0.0,0.0,0.0,0.0,0.0,0.0,0.0,0.0,0.0,0.0,0.0,0.0,0.0,0.0,0.0,0.0,0.0,0.0,0.0,0.0,0.0,0.0,0.0,0.0,-0.0391,-0.02,-0.016,-0.0265,-0.033,-0.0423,0.0,0.0,0.0,0.0,0.0,0.0,0.0,0.0,0.0,0.0,0.0,0.0,0.0,0.0,0.0,0.0,0.0,0.0,0.0,0.0,0.0,0.0,0.0,0.0,0.0,0.0,0.0,0.0,0.0,0.0,0.0,0.0,0.0,0.0,0.0,0.0,0.0,0.0,0.0,0.0,0.0,0.0,0.0,0.0,0.0,0.0,0.0,0.0,0.0,0.0,0.0,0.0,0.0,0.0,0.0,0.0,0.0,0.0,0.0,0.0,0.0,0.0,0.0,0.0,0.0,0.0,0.0,0.0,0.0,0.0,0.0,0.0,0.0,0.0,0.0,0.0,0.0,0.0,0.0,0.0,0.0,0.0,0.0,0.0,0.0,0.0,0.0,0.0,0.0,0.0,0.0,0.0,0.0,0.0,0.0,0.0,0.0,0.0,0.0,0.0,0.0,0.0,0.0,0.0,0.0,0.0,0.0,0.0,0.0,-0.0145,0.0,-0.0084,0.0,-0.0055,-0.0131,0.0,0.0,0.0,0.0,0.0,0.0,0.0,0.0,0.0,0.0,0.0,0.0,0.0,0.0,0.0,0.0,0.0,0.0,0.0,0.0,0.0,0.0,0.0,0.0,0.0,0.0,0.0,0.0,0.0,0.0,0.0,0.0,0.0,0.0,0.0,0.0,0.0,0.0,0.0,0.0,0.0,0.0,0.0,0.0,0.0,0.0,0.0,0.0,0.0,0.0,0.0,0.0,0.0,0.0,0.0,0.0,0.0,0.0,0.0,0.0,0.0,0.0,0.0,0.0,0.0,0.0,0.0,0.0,0.0,0.0,0.0,0.0,0.0,0.0,0.0,0.0,0.0,0.0,0.0,0.0,0.0,0.0,0.0,0.0,0.0,0.0,0.0,0.0,0.0,0.0,0.0,0.0,0.0,0.0,0.0,0.0,0.0,0.0,0.0,0.0,0.0,0.0,0.0,0.0,0.0,0.0,0.0,0.0,0.0121,0.0388,0.0266,0.0267,0.0477,0.0473,0.0209,0.0,0.0,0.0,0.0,0.0,0.0,0.0,0.0,0.0,0.0,0.0,0.0,0.0,0.0,0.0,0.0,0.0,0.0,0.0,0.0,0.0,0.0,0.0,0.0,0.0,0.0,0.0,0.0,0.0,0.0,0.0,0.0,0.0,0.0,0.0,0.0,0.0,0.0,0.0,0.0,0.0,0.0,0.0,0.0,0.0,0.0,0.0,0.0,0.0,0.0,0.0,0.0,0.0,0.0,0.0,0.0,0.0,0.0,0.0,0.0,0.0,0.0,0.0,0.0,0.0,0.0,0.0,0.0,0.0,0.0,0.0,0.0,0.0,0.0,0.0,0.0,0.0,0.0,0.0,0.0,0.0,0.0,0.0,0.0,0.0,0.0,0.0,0.0,0.0,0.0,0.0,0.0,0.0,0.0,0.0,0.0,0.0,0.0,0.0,0.0,0.0,0.0,0.0,0.0,0.0,0.0,0.0,0.0,0.0,0.0183,0.0187,0.0224,0.0237,0.0235,0.0397,0.0,0.0,0.0,0.0,0.0,0.0,0.0,0.0,0.0,0.0,0.0,0.0,0.0,0.0,0.0,0.0,0.0,0.0,0.0,0.0,0.0,0.0,0.0,0.0,0.0,0.0,0.0,0.0,0.0,0.0,0.0,0.0,0.0,0.0,0.0,0.0,0.0,0.0,0.0,0.0,0.0,0.0,0.0,0.0,0.0,0.0,0.0,0.0,0.0,0.0,0.0,0.0,0.0,0.0,0.0,0.0,0.0,0.0,0.0,0.0,0.0,0.0,0.0,0.0,0.0,0.0,0.0,0.0,0.0,0.0,0.0,0.0,0.0,0.0,0.0,0.0,0.0,0.0,0.0,0.0,0.0,0.0,0.0,0.0,0.0,0.0,0.0,0.0,0.0,0.0,0.0,0.0,0.0,0.0,0.0,0.0,0.0,0.0,0.0,0.0,0.0,0.0,0.0,0.0,0.0,0.0,0.0,0.0,0.0,0.0257,0.0298,0.0281,0.023,0.0173,0.048,0.1074,0.0,0.0,0.0,0.0,0.0,0.0,0.0,0.0,0.0,0.0,0.0,0.0,0.0,0.0,0.0,0.0,0.0,0.0,0.0,0.0,0.0,0.0,0.0,0.0,0.0,0.0,0.0,0.0,0.0,0.0,0.0,0.0,0.0,0.0,0.0,0.0,0.0,0.0,0.0,0.0,0.0,0.0,0.0,0.0,0.0,0.0,0.0,0.0,0.0,0.0,0.0,0.0,0.0,0.0,0.0,0.0,0.0,0.0,0.0,0.0,0.0,0.0,0.0,0.0,0.0,0.0,0.0,0.0,0.0,0.0,0.0,0.0,0.0,0.0,0.0,0.0,0.0,0.0,0.0,0.0,0.0,0.0,0.0,0.0,0.0,0.0,0.0,0.0,0.0,0.0,0.0,0.0,0.0,0.0,0.0,0.0,0.0,0.0,0.0,0.0,0.0,0.0,0.0,0.0,0.0,0.0,0.0,0.0,0.0475,0.0492,0.0428,0.0407,0.0346,0.0403,0.0,0.0,0.0,0.0,0.0,0.0,0.0,0.0,0.0,0.0,0.0,0.0,0.0,0.0,0.0,0.0,0.0,0.0,0.0,0.0,0.0,0.0,0.0,0.0,0.0,0.0,0.0,0.0,0.0,0.0,0.0,0.0,0.0,0.0,0.0,0.0,0.0,0.0,0.0,0.0,0.0,0.0,0.0,0.0,0.0,0.0,0.0,0.0,0.0,0.0,0.0,0.0,0.0,0.0,0.0,0.0,0.0,0.0,0.0,0.0,0.0,0.0,0.0,0.0,0.0,0.0,0.0,0.0,0.0,0.0,0.0,0.0,0.0,0.0,0.0,0.0,0.0,0.0,0.0,0.0,0.0,0.0,0.0,0.0,0.0,0.0,0.0,0.0,0.0,0.0,0.0,0.0,0.0,0.0,0.0,0.0,0.0,0.0,0.0,0.0,0.0,0.0,0.0,0.0,0.0,0.0,0.0,0.0,0.0,0.0417,0.0221,0.023,0.047,0.0425,0.0472,0.0,0.0,0.0,0.0,0.0,0.0,0.0,0.0,0.0,0.0,0.0,0.0,0.0,0.0,0.0,0.0,0.0,0.0,0.0,0.0,0.0,0.0,0.0,0.0,0.0,0.0,0.0,0.0,0.0,0.0,0.0,0.0,0.0,0.0,0.0,0.0,0.0,0.0,0.0,0.0,0.0,0.0,0.0,0.0,0.0,0.0,0.0,0.0,0.0,0.0,0.0,0.0,0.0,0.0,0.0,0.0,0.0,0.0,0.0,0.0,0.0,0.0,0.0,0.0,0.0,0.0,0.0,0.0,0.0,0.0,0.0,0.0,0.0,0.0,0.0,0.0,0.0,0.0,0.0,0.0,0.0,0.0,0.0,0.0,0.0,0.0,0.0,0.0,0.0,0.0,0.0,0.0,0.0,0.0,0.0,0.0,0.0,0.0,0.0,0.0,0.0,0.0,0.0,0.0,0.0,0.0,0.0,0.0,0.0037,0.004,-0.0097,-0.0104,0.0099,-0.0,0.0143,0.0,0.0,0.0,0.0,0.0,0.0,0.0,0.0,0.0,0.0,0.0,0.0,0.0,0.0,0.0,0.0,0.0,0.0,0.0,0.0,0.0,0.0,0.0,0.0,0.0,0.0,0.0,0.0,0.0,0.0,0.0,0.0,0.0,0.0,0.0,0.0,0.0,0.0,0.0,0.0,0.0,0.0,0.0,0.0,0.0,0.0,0.0,0.0,0.0,0.0,0.0,0.0,0.0,0.0,0.0,0.0,0.0,0.0,0.0,0.0,0.0,0.0,0.0,0.0,0.0,0.0,0.0,0.0,0.0,0.0,0.0,0.0,0.0,0.0,0.0,0.0,0.0,0.0,0.0,0.0,0.0,0.0,0.0,0.0,0.0,0.0,0.0,0.0,0.0,0.0,0.0,0.0,0.0,0.0,0.0,0.0,0.0,0.0,0.0,0.0,0.0,0.0,0.0,0.0,0.0,0.0,0.0,0.0,-0.0282,-0.0428,-0.0463,-0.0449,-0.0503,-0.0633,-0.0331,0.0,0.0,0.0,0.0,0.0,0.0,0.0,0.0,0.0,0.0,0.0,0.0,0.0,0.0,0.0,0.0,0.0,0.0,0.0,0.0,0.0,0.0,0.0,0.0,0.0,0.0,0.0,0.0,0.0,0.0,0.0,0.0,0.0,0.0,0.0,0.0,0.0,0.0,0.0,0.0,0.0,0.0,0.0,0.0,0.0,0.0,0.0,0.0,0.0,0.0,0.0,0.0,0.0,0.0,0.0,0.0,0.0,0.0,0.0,0.0,0.0,0.0,0.0,0.0,0.0,0.0,0.0,0.0,0.0,0.0,0.0,0.0,0.0,0.0,0.0,0.0,0.0,0.0,0.0,0.0,0.0,0.0,0.0,0.0,0.0,0.0,0.0,0.0,0.0,0.0,0.0,0.0,0.0,0.0,0.0,0.0,0.0,0.0,0.0,0.0,0.0,0.0,0.0,0.0,0.0,0.0,0.0,0.0,-0.05,-0.0792,-0.0792,-0.0841,-0.1009,-0.0806,-0.0413,0.0,0.0,0.0,0.0,0.0,0.0,0.0,0.0,0.0,0.0,0.0,0.0,0.0,0.0,0.0,0.0,0.0,0.0,0.0,0.0,0.0,0.0,0.0,0.0,0.0,0.0,0.0,0.0,0.0,0.0,0.0,0.0,0.0,0.0,0.0,0.0,0.0,0.0,0.0,0.0,0.0,0.0,0.0,0.0,0.0,0.0,0.0,0.0,0.594,0.0,0.0,0.0,0.0,0.0,0.0,0.0,0.0,0.0,0.0,0.0,0.0,0.0,0.0,0.0,0.0,0.0,0.0,0.0,0.0,0.0,0.0,0.0,0.0,0.0,0.0,0.0,0.0,0.0,0.0,0.0,0.0,0.0,0.0,0.0,0.0,0.0,0.0,0.0,0.0,0.0,0.0,0.0,0.0,0.0,0.0,0.0,0.0,0.0,0.0,0.0,0.0,0.0,0.0,0.0,0.0,0.0,0.0,0.0,-0.0781,-0.0929,-0.102,-0.1122,-0.1173,-0.1041,-0.0702,0.0,0.0,0.0,0.0,0.0,0.0,0.0,0.0,0.0,0.0,0.0,0.0,0.0,0.0,0.0,0.0,0.0,0.0,0.0,0.0,0.0,0.0,0.0,0.0,0.0,0.0,0.0,0.0,0.0,0.0,0.0,0.0,0.0,0.0,0.0,0.0,0.0,0.0,0.0,0.0,0.0,0.0,0.0,0.0,0.0,0.0,0.0,0.0,0.0,0.0,0.0,0.0,0.0,0.0,0.0,0.0,0.0,0.0,0.0,0.0,0.0,0.0,0.0,0.0,0.0,0.0,0.0,0.0,0.0,0.0,0.0,0.0,0.0,0.0,0.0,0.0,0.0,0.0,0.0,0.0,0.0,0.0,0.0,0.0,0.0,0.0,0.0,0.0,0.0,0.0,0.0,0.0,0.0,0.0,0.0,0.0,0.0,0.0,0.0,0.0,0.0,0.0,0.0,0.0,0.0,0.0,0.0,-0.0867,-0.0987,-0.1073,-0.1198,-0.1234,-0.1176,-0.1311,-0.1032,-0.0356,0.0,0.0,0.0,0.0,0.0,0.0,0.0,0.0,0.0,0.0,0.0,0.0,0.0,0.0,0.0,0.0,0.0,0.0,0.0,0.0,0.0,0.0,0.0,0.0,0.0,0.0,0.0,0.0,0.0,0.0,0.0,0.0,0.0,0.0,0.0,0.0,0.0,0.0,0.527,0.5406,0.0,0.0,0.0,0.0,0.0,0.0,0.0,0.0,0.6401,0.0,0.0,0.0,0.0,0.0,0.0,0.0,0.0,0.0,0.0,0.0,0.0,0.0,0.0,0.0,0.0,0.0,0.0,0.0,0.0,0.0,0.0,0.0,0.0,0.0,0.0,0.0,0.0,0.0,0.0,0.0,0.0,0.0,0.0,0.0,0.0,0.0,0.0,0.0,0.0,0.0,0.0,0.0,0.0,0.0,0.0,0.0,0.0,0.0,0.0,0.0,0.0,0.0,0.0,0.0,0.0,-0.0852,-0.0803,-0.0895,-0.1263,-0.1283,-0.1347,-0.1513,-0.1574,-0.1219,-0.0434,0.0,0.0,0.0,0.0,0.0,0.0,0.0,0.0,0.0,0.0,0.0,0.0,0.0,0.0,0.0,0.0,0.0,0.0,0.0,0.0,0.0,0.0,0.0,0.0,0.0,0.0,0.0,0.0,0.0,0.0,0.0,0.0,0.0,0.0,0.0,0.0,0.0,0.0,0.0,0.6795,0.622,0.0,0.0,0.0,0.0,0.0,0.0,0.0,0.0,0.7228,0.0,0.0,0.0,0.0,0.0,0.0,0.0,0.0,0.0,0.0,0.0,0.0,0.0,0.0,0.0,0.0,0.0,0.0,0.0,0.0,0.0,0.0,0.0,0.0,0.0,0.0,0.0,0.0,0.0,0.0,0.0,0.0,0.0,0.0,0.0,0.0,0.0,0.0,0.0,0.0,0.0,0.0,0.0,0.0,0.0,0.0,0.0,0.0,0.0,0.0,0.0,0.0,0.0,0.0,0.0,-0.0242,-0.0872,-0.1411,-0.184,-0.1684,-0.1628,-0.1847,-0.1801,-0.1377,0.0,0.0,0.0,0.0,0.0,0.0,0.0,0.0,0.0,0.0,0.0,0.0,0.0,0.0,0.0,0.0,0.0,0.0,0.0,0.0,0.0,0.0,0.0,0.0,0.0,0.0,0.0,0.0,0.0,0.0,0.0,0.0,0.0,0.0,0.0,0.0,0.0,0.0,0.0,0.0,0.7453,0.7542,0.7678,0.0,0.0,0.0,0.0,0.0,0.0,0.7944,0.7627,0.0,0.0,0.0,0.0,0.0,0.0,0.0,0.0,0.0,0.0,0.0,0.0,0.0,0.0,0.0,0.0,0.0,0.0,0.0,0.0,0.0,0.0,0.0,0.0,0.0,0.0,0.0,0.0,0.0,0.0,0.0,0.0,0.0,0.0,0.0,0.0,0.0,0.0,0.0,0.0,0.0,0.0,0.0,0.0,0.0,0.0,0.0,0.0,0.0,0.0,0.0,0.0,0.0,0.0,0.0,0.0315,-0.0833,-0.1764,-0.2345,-0.2189,-0.2076,-0.2068,-0.1959,-0.1514,0.0,0.0,0.0,0.0,0.0,0.0,0.0,0.0,0.0,0.0,0.0,0.0,0.0,0.0,0.0,0.0,0.0,0.0,0.0,0.0,0.0,0.0,0.0,0.0,0.0,0.0,0.0,0.0,0.0,0.0,0.0,0.0,0.0,0.0,0.0,0.0,0.0,0.0,0.0,0.0,0.0,0.8676,0.9151,0.8534,0.0,0.0,0.0,0.0,0.8896,0.8641,0.0,0.0,0.0,0.0,0.0,0.0,0.0,0.0,0.0,0.0,0.0,0.0,0.0,0.0,0.0,0.0,0.0,0.0,0.0,0.0,0.0,0.0,0.0,0.0,0.0,0.0,0.0,0.0,0.0,0.0,0.0,0.0,0.0,0.0,0.0,0.0,0.0,0.0,0.0,0.0,0.0,0.0,0.0,0.0,0.0,0.0,0.0,0.0,0.0,0.0,0.0,0.0,0.0,0.0,0.0,0.0,0.0196,-0.054,-0.1364,-0.2339,-0.286,-0.2749,-0.2012,-0.21,-0.1509,0.0,0.0,0.0,0.0,0.0,0.0,0.0,0.0,0.0,0.0,0.0,0.0,0.0,0.0,0.0,0.0,0.0,0.0,0.0,0.0,0.0,0.0,0.0,0.0,0.0,0.0,0.0,0.0,0.0,0.0,0.0,0.0,0.0,0.0,0.0,0.0,0.0,0.0,0.0,0.0,0.0,0.8776,0.9534,0.8739,0.8262,0.0,0.0,0.9487,0.9787,1.0614,0.0,0.0,0.0,0.0,0.0,0.0,0.0,0.0,0.0,0.0,0.0,0.0,0.0,0.0,0.0,0.0,0.0,0.0,0.0,0.0,0.0,0.0,0.0,0.0,0.0,0.0,0.0,0.0,0.0,0.0,0.0,0.0,0.0,0.0,0.0,0.0,0.0,0.0,0.0,0.0,0.0,0.0,0.0,0.0,0.0,0.0,0.0,0.0,0.0,0.0,0.0,0.0,0.0,0.0,0.0,-0.0331,-0.0434,-0.0815,-0.1341,-0.2015,-0.2413,-0.2585,-0.2583,-0.1384,-0.0419,0.0,0.0,0.0,0.0,0.0,0.0,0.0,0.0,0.0,0.0,0.0,0.0,0.0,0.0,0.0,0.0,0.0,0.0,0.0,0.0,0.0,0.0,0.0,0.0,0.0,0.0,0.0,0.0,0.0,0.0,0.0,0.0,0.0,0.0,0.0,0.0,0.0,0.0,0.0,0.0,0.0,0.0,0.9697,0.964,0.0,0.0,0.0,1.0511,1.0205,0.0,0.0,0.0,0.0,0.0,0.0,0.0,0.0,0.0,0.0,0.0,0.0,0.0,0.0,0.0,0.0,0.0,0.0,0.0,0.0,0.0,0.0,0.0,0.0,0.0,0.0,0.0,0.0,0.0,0.0,0.0,0.0,0.0,0.0,0.0,0.0,0.0,0.0,0.0,0.0,0.0,0.0,0.0,0.0,0.0,0.0,0.0,0.0,0.0,0.0,0.0,0.0,0.0,0.0,0.0,0.0,0.0,-0.0909,-0.1058,-0.1346,-0.1797,-0.2023,-0.2301,-0.2635,-0.087,0.0,0.0,0.0,0.0,0.0,0.0,0.0,0.0,0.0,0.0,0.0,0.0,0.0,0.0,0.0,0.0,0.0,0.0,0.0,0.0,0.0,0.0,0.0,0.0,0.0,0.0,0.0,0.3212,0.0,0.0,0.0,0.0,0.0,0.0,0.0,0.0,0.0,0.0,0.0,0.0,0.0,0.0,1.0379,0.9927,1.0289,1.0561,0.0,0.0,1.09,1.0565,1.1855,1.2292,0.0,0.0,0.0,0.0,0.0,0.0,0.0,0.0,0.0,0.0,0.0,0.0,0.0,0.0,0.0,0.0,0.0,0.0,0.0,0.0,0.0,0.0,0.0,0.0,0.0,0.0,0.0,0.0,0.0,0.0,0.0,0.0,0.0,0.0,0.0,0.0,0.0,0.0,0.0,0.0,0.0,0.0,0.0,0.0,0.0,0.0,0.0,0.0,0.0,0.0,0.0,0.0,0.0,0.0,0.0,-0.0872,-0.0906,-0.1178,-0.1797,-0.2018,-0.1959,-0.1676,-0.1038,-0.051,0.0,0.0,0.0,0.0,0.0,0.0,0.0,0.0,0.0,0.0,0.0,0.0,0.0,0.0,0.0,0.0,0.0,0.0,0.0,0.0,0.0,0.0,0.0,0.0,0.0,0.0,0.0,0.0,0.0,0.0,0.0,0.0,0.0,0.0,0.0,0.0,0.0,0.0,0.0,0.0,0.0,1.0423,1.0346,1.0277,1.0613,0.0,0.0,1.0466,1.0974,1.2565,1.2929,1.0526,0.0,0.0,0.0,0.0,0.0,0.0,0.0,0.0,0.0,0.0,0.0,0.0,0.0,0.0,0.0,0.0,0.0,0.0,0.0,0.0,0.0,0.0,0.0,0.0,0.0,0.0,0.0,0.0,0.0,0.0,0.0,0.0,0.0,0.0,0.0,0.0,0.0,0.0,0.0,0.0,0.0,0.0,0.0,0.0,0.0,0.0,0.0,0.0,0.0,0.0,0.0,0.0,0.0,-0.0354,-0.0749,-0.0857,-0.101,-0.1234,-0.1401,-0.1289,-0.084,-0.0471,-0.014,0.0,0.0,0.0,0.0,0.0,0.0,0.0,0.0,0.0,0.0,0.0,0.0,0.0,0.0,0.0,0.0,0.0,0.0,0.0,0.0,0.0,0.0,0.0,0.0,0.0,0.0,0.0,0.0,0.6218,0.6692,0.6073,0.0,0.0,0.0,0.0,0.0,0.0,0.0,0.0,0.0,0.0,1.0214,1.0628,1.1084,0.0,0.0,1.2139,1.2199,1.1241,1.2711,1.3155,1.0767,1.0755,0.0,0.0,0.0,0.0,0.0,0.0,0.0,0.0,0.0,0.0,0.0,0.0,0.0,0.0,0.0,0.0,0.0,0.0,0.0,0.0,0.0,0.0,0.0,0.0,0.0,0.0,0.0,0.0,0.0,0.0,0.0,0.0,0.0,0.0,0.0,0.0,0.0,0.0,0.0,0.0,0.0,0.0,0.0,0.0,0.0,0.0,0.0,0.0,0.0,0.0,0.0,0.0,-0.0393,-0.0709,-0.0906,-0.0954,-0.0841,-0.0954,-0.0785,-0.028,0.0053,0.0391,0.0,0.0,0.0,0.0,0.0,0.0,0.0,0.0,0.0,0.0,0.0,0.0,0.0,0.0,0.0,0.0,0.0,0.0,0.0,0.0,0.0,0.0,0.0,0.0,0.0,0.0,0.0,0.0,0.6555,0.6962,0.6703,0.0,0.0,0.0,0.0,0.0,0.0,0.0,0.0,0.0,0.0,1.0294,1.0737,1.1435,1.1851,1.1524,1.2342,1.2611,1.1664,1.2455,1.255,1.0684,0.0,0.0,0.0,0.0,0.0,0.0,0.0,0.0,0.0,0.0,0.0,0.0,0.0,0.0,0.0,0.0,0.0,0.0,0.0,0.0,0.0,0.0,0.0,0.0,0.0,0.0,0.0,0.7162,0.0,0.0,0.8332,0.0,0.0,0.0,0.0,0.0,0.0,0.0,0.0,0.0,0.0,0.0,0.0,0.0,0.0,0.0,0.0,0.0,0.0,0.0,0.0,0.0,0.0,-0.055,-0.071,-0.1058,-0.1066,-0.0729,-0.0729,-0.0505,-0.0,0.0559,0.0958,0.1186,0.0,0.0,0.0,0.0,0.0,0.0,0.0,0.0,0.0,0.0,0.0,0.0,0.0,0.0,0.0,0.0,0.0,0.0,0.0,0.0,0.0,0.0,0.0,0.0,0.0,0.0,0.4791,0.5305,0.6012,0.0,0.0,0.0,0.0,0.0,0.0,0.0,0.0,0.0,0.0,0.9766,1.0847,1.065,1.1182,1.1668,1.1851,1.1215,1.112,1.2132,1.1791,1.1051,0.0,0.0,0.0,0.0,0.0,0.0,0.0,0.0,0.0,0.0,0.0,0.0,0.0,0.0,0.0,0.0,0.0,0.0,0.0,0.0,0.0,0.0,0.0,0.0,0.0,0.0,0.0,0.9126,0.8576,0.0,0.0,0.0,0.0,0.0,0.0,0.0,0.0,0.0,0.0,0.0,1.7658,1.6839,0.0,0.0,0.0,0.0,0.0,0.0,0.0,0.0,0.0,0.0,0.0,0.0,0.004,-0.0208,-0.0357,-0.0393,-0.0224,-0.0336,-0.0168,0.028,0.0784,0.1437,0.2285,0.0,0.0,0.0,0.0,0.0,0.0,0.0,0.0,0.0,0.0,0.0,0.0,0.0,0.0,0.0,0.0,0.0,0.0,0.0,0.0,0.0,0.0,0.0,0.0,0.0,0.5865,0.0,0.0,0.0,0.0,0.0,0.0,0.0,0.0,0.0,0.0,0.0,0.7736,0.8504,0.9288,0.9897,1.0241,1.0772,1.1254,0.0,0.0,0.0,0.0,0.0,0.0,0.0,0.0,0.0,0.0,0.0,0.0,0.0,0.0,1.0903,0.9089,0.9052,0.9407,0.9848,0.0,0.0,0.0,0.0,0.0,0.0,0.0,0.0,0.0,0.0,0.0,0.0,0.0,0.0,1.0852,0.0,1.0497,0.0,0.0,0.0,0.0,0.0,0.0,0.0,0.0,1.8265,2.0417,2.1958,2.1461,1.9909,0.0,1.3565,0.9487,0.0,0.0,0.0,0.0,0.0,0.0,0.0,0.0,0.0327,0.0212,-0.0,-0.0168,-0.0112,0.0056,0.0392,0.0897,0.1455,0.2164,0.2928,0.2892,0.2866,0.0,0.0,0.0,0.0,0.0,0.0,0.0,0.0,0.0,0.0,0.0,0.0,0.0,0.0,0.0,0.0,0.0,0.0,0.0,0.0,0.0,0.0,0.0,0.5944,0.0,0.0,0.0,0.0,0.0,0.0,0.0,0.0,0.0,0.6935,0.7511,0.8088,0.8568,0.933,0.988,0.9953,0.0,0.0,0.0,0.0,0.0,0.0,0.0,1.081,1.0184,1.068,1.1336,1.1973,1.2658,1.283,1.1878,0.0,0.0,1.0909,1.0828,1.1213,1.156,1.1708,1.1927,1.2539,1.2715,1.29,0.0,0.0,0.0,0.0,0.0,0.0,0.0,0.0,1.1942,1.2675,0.0,1.1952,0.0,0.0,0.0,0.0,0.0,1.442,0.0,0.0,2.3187,2.5526,2.545,2.4911,2.4346,2.334,1.6595,1.2756,1.1514,0.6244,0.0,0.0,0.0,0.0,0.0,0.0,0.0379,0.0641,0.0051,-0.028,-0.028,0.0503,0.1231,0.1853,0.2685,0.3128,0.3174,0.3385,0.3691,0.418,0.3449,0.0,0.0,0.0,0.0,0.0,0.0,0.0,0.0,0.0,0.0,0.0,0.0,0.0,0.0,0.0,0.0,0.0,0.0,0.0,0.0,0.5024,0.0,0.0,0.0,0.0,0.0,0.0,0.0,0.0,0.0,0.0,0.6979,0.812,0.878,0.8317,0.0,0.0,0.0,0.0,1.0914,0.9085,0.9703,1.0254,0.9766,1.0327,1.0895,1.1166,0.0,0.0,1.3012,1.3048,1.2978,1.2742,1.3502,1.3993,1.3632,1.3177,1.301,1.3019,1.3152,1.3219,1.3275,1.3549,1.37,1.2348,0.0,0.0,0.0,0.0,1.2441,1.2816,1.322,1.2976,1.3103,1.34,1.2249,0.0,0.0,0.0,0.0,0.0,0.0,1.8886,2.1175,2.3802,2.5963,2.7639,2.7095,2.6185,2.4778,1.9183,1.6918,1.7453,1.0118,0.5381,0.338,0.0,0.0,0.0,0.0,0.1673,0.1684,0.1545,0.1456,0.1456,0.1679,0.2181,0.2912,0.3574,0.407,0.4512,0.498,0.5111,0.4796,0.4928,0.0,0.0,0.0,0.0,0.0,0.0,0.0,0.0,0.0,0.0,0.0,0.0,0.0,0.0,0.0,0.0,0.0,0.0,0.0,0.5182,0.5552,0.5697,0.0,0.0,0.0,0.0,0.0,0.0,0.0,0.0,0.0,0.729,0.8196,0.8786,0.0,0.0,0.9345,0.9092,0.9724,0.9907,0.898,0.9886,0.0,1.0574,1.0816,1.1063,1.1216,1.197,1.2549,1.2646,1.3286,1.3913,1.4246,1.4604,1.4942,1.5093,1.4833,1.4718,1.5184,1.5339,1.5494,1.5762,1.5864,1.5975,1.2151,1.2712,1.2101,1.1724,1.1612,1.2093,1.2533,1.2957,1.3067,1.3429,1.3826,1.2593,1.2226,1.2529,1.1861,0.0,0.0,0.0,1.9091,2.1924,2.3283,2.5089,2.7254,2.7921,2.777,2.6724,2.2773,2.1558,2.2796,1.5923,1.174,0.9996,0.0,0.0,0.2379,0.2516,0.2159,0.1308,0.1295,0.179,0.2747,0.2745,0.3077,0.3802,0.3907,0.4349,0.512,0.5344,0.5456,0.5458,0.5684,0.5461,0.0,0.0,0.0,0.0,0.0,0.0,0.0,0.0,0.0,0.0,0.0,0.3791,0.2876,0.0,0.0,0.0,0.5047,0.6006,0.576,0.5961,0.0,0.0,0.0,0.0,0.0,0.0,0.0,0.6975,0.774,0.79,0.7124,0.82,0.9188,0.9509,0.9648,0.9642,0.9532,0.0,1.0138,0.9762,1.0002,1.0469,1.1068,1.1002,1.1198,1.1916,1.2423,1.2752,1.2921,1.3592,1.4274,1.4737,1.5007,1.5346,1.5859,1.5687,1.5703,1.6215,1.6483,1.6633,1.6872,1.6908,1.6978,1.0697,1.0604,0.9897,0.9604,0.9672,1.08,1.1307,1.1456,1.2431,1.3477,1.4428,1.2744,1.2475,1.3164,1.2407,0.0,1.465,1.5612,1.7872,2.1029,2.1959,2.3305,2.5061,2.7347,2.8559,2.854,2.6274,2.5751,2.6577,2.2133,2.015,2.0209,1.0412,0.4751,0.3615,0.3726,0.2589,0.0356,0.0325,0.1398,0.354,0.3588,0.3913,0.4463,0.4024,0.4298,0.5332,0.4956,0.5171,0.619,0.5942,0.6368,0.767,0.0,0.0,0.0,0.0,0.0,0.0,0.0,0.0,0.0,0.0,0.0,0.0,0.0,0.0,0.0,0.5765,0.0,0.6584,0.6355,0.0,0.0,0.0,0.6284,0.7302,0.7609,0.7725,0.776,0.0,0.0,0.6711,0.8315,0.9796,1.0504,1.0854,1.0894,1.0571,1.0797,1.1088,1.1019,1.0303,1.0193,1.1307,1.1202,1.1477,1.2755,1.3193,1.3237,1.3382,1.376,1.4137,1.4497,1.4919,1.5346,1.5991,1.6026,1.6202,1.6394,1.6673,1.689,1.6899,1.6908,1.6968,0.3509,0.3444,0.3595,0.6603,1.1199,1.1517,1.1759,1.1849,1.1468,1.21,1.3194,1.1308,1.0924,1.1845,1.3351,1.4227,1.4733,1.6545,1.7779,1.8737,2.0489,2.159,2.2102,2.3529,2.4684,2.5438,2.3275,2.4284,2.7927,2.2354,2.0441,2.186,1.4348,1.0011,0.9173,0.9301,0.7211,0.2936,0.2807,0.3021,0.3585,0.3691,0.4021,0.4632,0.4959,0.5454,0.6109,0.6436,0.6707,0.6864,0.697,0.8371,1.1255,0.829,0.0,0.0,0.0,0.0,0.0,0.0,0.0,0.0,0.0,0.4752,0.3486,0.0,0.4992,0.0,0.5797,0.7689,0.7908,0.7567,0.0,0.0,0.6735,0.689,0.737,0.8126,0.8497,0.8034,0.869,0.8783,0.769,0.8891,1.013,1.0822,1.0573,1.0258,1.0142,1.0498,1.0872,1.1086,1.1375,1.1735,1.1935,1.2141,1.227,1.2645,1.29,1.3046,1.3273,1.3346,1.363,1.4129,1.4489,1.4999,1.5718,1.6,1.614,1.6289,1.6482,1.676,1.6839,1.6908,1.6968,0.0208,0.0206,0.0544,0.2969,0.6614,0.7893,0.8525,0.863,0.8456,0.8821,0.9454,0.8441,0.8324,0.8906,1.0677,1.1636,1.2043,1.3865,1.4976,1.5575,1.7047,1.7796,1.8108,1.942,2.0697,2.1851,2.1311,2.2995,2.643,2.4082,2.3769,2.5411,2.2438,1.9528,1.667,1.1387,0.6852,0.3367,0.3253,0.3303,0.3359,0.3877,0.4389,0.4804,0.5119,0.5942,0.7282,0.7439,0.7508,0.7602,0.8111,0.9059,1.0433,0.902,0.9355,0.0,0.0,0.0,0.0,0.0,0.0,0.0,0.0,0.0,0.0,0.0,0.5564,0.4544,0.7511,0.9121,0.8242,0.8388,0.8267,0.7499,0.7795,0.8086,0.8117,0.8893,0.9262,0.8952,0.9377,0.9477,0.8903,0.9581,1.035,1.0852,1.0682,1.0523,1.0741,1.0975,1.1223,1.1475,1.1985,1.2129,1.1868,1.2157,1.2526,1.2599,1.2673,1.29,1.3119,1.32,1.3411,1.3985,1.4274,1.4561,1.515,1.5363,1.5497,1.585,1.5991,1.6263,1.6551,1.67,1.6821,-0.2002,-0.1727,-0.1476,-0.1062,-0.0399,0.227,0.3602,0.3974,0.4754,0.5081,0.5157,0.5497,0.5634,0.5566,0.666,0.7446,0.8179,0.9485,1.0649,1.1716,1.2538,1.3172,1.3688,1.5377,1.6748,1.7943,1.9694,2.1444,2.3105,2.5513,2.6999,2.7671,2.9397,2.7947,2.3035,1.2375,0.5691,0.3195,0.3189,0.3285,0.3367,0.4485,0.5222,0.5499,0.5663,0.678,0.8818,0.838,0.8223,0.8491,0.9206,0.9452,0.9044,0.9957,1.0686,0.0,1.132,0.0,0.0,0.0,0.0,0.0,0.0,0.0,0.0,0.5926,0.5991,0.6852,0.9594,1.0542,0.8496,0.9227,0.9352,0.85,0.8986,0.9344,0.9088,0.9542,0.9917,0.99,1.0073,1.0132,0.9873,1.0143,1.0368,1.0576,1.0858,1.1101,1.1459,1.1508,1.1582,1.1929,1.2162,1.2013,1.1577,1.1935,1.2305,1.2378,1.2378,1.2526,1.2746,1.282,1.3046,1.3695,1.3905,1.4129,1.4489,1.4569,1.4784,1.5284,1.5355,1.5638,1.6202,1.6473,1.6533,-0.8531,-0.676,-0.6192,-0.518,-0.378,-0.2202,-0.0267,0.1972,0.3259,0.4043,0.4449,0.5091,0.509,0.4634,0.5342,0.5796,0.5928,0.6213,0.6469,0.6763,0.8361,0.9464,1.0148,1.1935,1.3411,1.4674,1.7169,1.8351,1.8237,2.176,2.3062,2.2233,2.2345,2.1597,2.0044,0.0,0.0,0.0,0.5498,0.5449,0.5274,0.6748,0.7769,0.8173,0.9283,0.0,1.1156,1.0528,1.0112,1.0082,1.022,0.0,0.0,0.0,0.0,0.0,0.0,0.0,0.0,0.0,0.0,0.0,1.3864,1.057,0.7577,0.7033,0.7218,0.808,0.9863,1.0963,1.0771,1.0566,1.0317,0.9777,0.9752,0.9638,0.9321,0.9627,0.9873,0.9911,0.9916,0.9916,0.9916,1.0067,1.0143,1.0126,1.0507,1.0812,1.0962,1.1174,1.1316,1.1484,1.1806,1.2029,1.2083,1.2157,1.2077,1.1558,1.1409,1.1409,1.1403,1.1335,1.1706,1.2739,1.3178,1.3608,1.4057,1.4418,1.4569,1.4792,1.4784,1.507,1.6061,1.6342,1.6403,-1.0356,-0.9103,-0.8796,-0.79,0.0,-0.5766,-0.4421,-0.2688,-0.0674,0.0403,0.0797,0.1859,0.2129,0.1799,0.2761,0.3396,0.3716,0.4043,0.4435,0.4816,0.6137,0.6876,0.7278,0.8562,0.9775,1.0918,1.2716,1.3606,1.3909,1.7141,1.8452,1.7756,1.9741,2.0583,2.0225,1.9957,1.7286,1.2241,1.1885,1.1895,1.2318,1.264,1.2837,1.2972,1.3414,0.0,0.0,0.0,0.0,0.0,0.0,0.0,0.0,0.0,0.0,1.9156,1.8749,1.8981,2.0296,2.0541,2.0108,1.888,1.5108,1.1273,0.761,0.7697,0.8559,0.9959,1.1012,1.1591,1.153,1.1625,1.1424,1.0704,1.0885,1.0812,1.0218,1.0218,1.0368,1.0288,1.0067,0.9922,0.9922,0.9997,1.0067,1.0056,1.0201,1.0501,1.0732,1.095,1.1174,1.1242,1.1626,1.1929,1.2083,1.2157,1.2077,1.1787,1.1706,1.1706,1.1706,1.1706,1.2003,1.2746,1.3039,1.3331,1.3702,1.392,1.4137,1.4281,1.4346,1.4561,1.5346,1.5709,1.5991,-1.1047,-1.0486,-1.0651,-0.9996,-0.8867,-0.856,-0.8047,-0.7273,0.0,0.0,0.0,-0.1781,-0.1154,-0.1018,0.0,0.085,0.1563,0.2082,0.2769,0.3478,0.4196,0.4708,0.4951,0.5715,0.6626,0.7653,0.8575,0.9319,1.0,1.2772,1.4034,1.4228,1.8112,2.0478,2.0989,2.147,2.0856,1.9181,1.8144,1.807,1.8945,1.8383,1.7955,1.7713,1.7359,1.7346,1.7708,1.736,1.7022,1.6725,1.7457,1.748,1.6702,1.807,1.9304,2.011,2.0849,2.2052,2.3797,2.4035,2.2733,1.9748,1.6255,1.2414,0.8175,0.854,0.9743,1.1536,1.1965,1.2058,1.1683,1.2164,1.2238,1.1416,1.1861,1.1855,1.1037,1.0887,1.0887,1.0887,1.0443,0.9986,0.99,0.9916,0.9916,1.0067,1.0056,1.0201,1.0743,1.1043,1.1105,1.1162,1.1471,1.1706,1.1929,1.2077,1.2077,1.1929,1.1929,1.215,1.2224,1.2224,1.2445,1.2746,1.2973,1.3119,1.3346,1.355,1.3696,1.3928,1.4091,1.4202,1.4449,1.4912,1.5438,-1.3606,-1.1769,-1.2286,-1.1624,-1.0231,-1.0153,-0.9703,-0.8829,-0.6074,-0.4329,-0.3379,-0.3008,-0.2577,-0.2078,-0.1815,-0.1311,-0.076,-0.0605,-0.0133,0.0601,0.1364,0.2345,0.3531,0.431,0.5069,0.5905,0.7479,0.779,0.7404,1.0013,1.1149,1.0992,1.4134,1.7297,1.9841,2.1319,2.1903,2.158,1.9631,1.8587,1.8609,1.9881,2.0422,2.0134,2.0177,2.0398,2.0794,1.9176,1.83,1.8506,1.9001,1.9717,2.072,2.1319,2.2332,2.365,2.4087,2.4865,2.6053,2.6366,2.474,2.0926,2.0637,1.783,1.087,1.0055,1.0485,1.141,1.1694,1.1842,1.187,1.1977,1.2096,1.2048,1.1874,1.1632,1.1335,1.1335,1.1409,1.1564,1.1043,1.0501,1.0093,0.997,0.9916,0.9992,1.0212,1.0374,1.0842,1.1061,1.1105,1.1162,1.1323,1.1558,1.1706,1.2083,1.1855,1.1117,1.126,1.1335,1.1186,1.1111,1.1409,1.2077,1.2378,1.2686,1.3141,1.3652,1.3837,1.3778,1.4141,1.4403,1.4321,1.4603,1.4909,-1.3966,-1.2956,-1.336,-1.2881,-1.1665,-1.0584,-0.9981,-0.9522,-0.7684,-0.6454,-0.5759,-0.4922,-0.4259,-0.3905,-0.3164,-0.2613,-0.2298,-0.2203,-0.1913,-0.1606,-0.0949,-0.0069,0.1046,0.2075,0.2949,0.3695,0.4944,0.5262,0.4939,0.6923,0.7707,0.7683,1.077,1.3508,1.5807,1.8646,2.0109,2.0129,2.203,2.3244,2.3723,2.4855,2.5209,2.4783,2.4254,2.3613,2.2987,2.2022,2.1481,2.1498,2.1778,2.2113,2.2498,2.3156,2.3917,2.4712,2.5261,2.5939,2.6861,2.6297,2.5346,2.3945,2.1773,1.9008,1.5242,1.2321,1.1178,1.2217,1.181,1.1552,1.1848,1.209,1.2177,1.2325,1.2238,1.2231,1.2009,1.1855,1.1781,1.1929,1.1484,1.1105,1.092,1.0301,1.0232,1.072,1.0812,1.0669,1.0524,1.0669,1.0887,1.1043,1.1192,1.1335,1.1484,1.1706,1.1706,1.1484,1.1552,1.1558,1.1484,1.1484,1.1706,1.215,1.2459,1.2674,1.317,1.3558,1.3945,1.4532,1.4439,1.4575,1.4841,1.488,1.493,-1.3955,-1.3768,-1.3988,-1.3659,-1.2875,-1.1241,-1.0376,-1.0101,-0.9086,-0.8443,-0.7849,-0.6655,-0.5951,-0.5606,-0.4723,-0.4099,-0.3774,-0.3673,-0.3487,-0.3262,-0.2672,-0.2018,-0.128,-0.0073,0.0737,0.132,0.227,0.2775,0.2971,0.4252,0.5117,0.5682,0.8106,1.0102,1.1517,1.5095,1.6911,1.7288,2.2276,2.5724,2.7148,2.8044,2.8249,2.7842,2.6891,2.5899,2.4785,2.4255,2.3946,2.3851,2.4033,2.3967,2.3694,2.4392,2.4906,2.5151,2.5796,2.658,2.7394,2.6841,2.6454,2.6583,2.327,2.0671,1.9349,1.4999,1.2372,1.2921,1.2009,1.1397,1.1675,1.2003,1.2244,1.2231,1.2452,1.2532,1.2599,1.2305,1.2224,1.2378,1.1929,1.1626,1.1613,1.0873,1.0644,1.1471,1.149,1.0875,1.0173,1.0409,1.0968,1.1123,1.1198,1.1192,1.1335,1.1409,1.1639,1.2009,1.2157,1.2372,1.2592,1.2666,1.2599,1.2753,1.2748,1.2865,1.3147,1.3586,1.4091,1.4687,1.4724,1.4828,1.5249,1.5443,1.5255,-1.4068,-1.4048,-1.4075,-1.4088,-1.3828,-1.279,-1.1929,-1.1063,-1.0183,-0.93,-0.8517,-0.8038,-0.7457,-0.6937,-0.6704,-0.6234,-0.5555,-0.5411,-0.4983,-0.4185,-0.3536,-0.3129,-0.2832,-0.1687,-0.1306,-0.1355,0.03,0.1264,0.1387,0.2828,0.4188,0.5561,0.686,0.7823,0.887,1.1282,1.2566,1.2639,1.7593,2.162,2.4365,2.5878,2.6579,2.6488,2.6099,2.6037,2.6,2.4663,2.3898,2.4245,2.4645,2.4812,2.4722,2.5163,2.5422,2.5475,2.6108,2.7049,2.8446,2.9793,2.9284,2.7073,2.685,2.5609,2.2939,1.8288,1.4791,1.3939,1.2587,1.1742,1.1292,1.1803,1.2224,1.2298,1.2372,1.2378,1.2599,1.2599,1.2673,1.282,1.2452,1.2224,1.2144,1.1582,1.1372,1.219,1.1993,1.1428,1.0548,1.1061,1.1789,1.167,1.1422,1.1204,1.1267,1.1335,1.1787,1.2378,1.268,1.2966,1.3324,1.3251,1.3185,1.3119,1.3142,1.3003,1.339,1.3676,1.4287,1.4956,1.5123,1.5129,1.5102,1.5638,1.5915,-1.3997,-1.4088,-1.3913,-1.3997,-1.3997,-1.313,-1.2448,-1.2015,-1.1149,-1.0207,-0.9414,-0.9163,-0.8611,-0.7838,-0.7768,-0.7558,-0.7137,-0.6806,-0.6576,-0.6122,-0.5426,-0.4587,-0.3693,-0.2934,-0.2256,-0.1698,-0.0771,-0.0077,0.0607,0.1948,0.3244,0.415,0.4757,0.5411,0.6381,0.9015,1.0677,1.1285,1.4993,1.7932,2.0076,2.3302,2.5003,2.4969,2.4739,2.4652,2.4759,2.388,2.3591,2.4017,2.4637,2.5035,2.5076,2.5715,2.6192,2.6372,2.6856,2.7591,2.8639,2.9309,2.9467,2.893,2.7755,2.659,2.568,2.2258,1.99,1.9057,1.6165,1.3715,1.2841,1.2896,1.3404,1.3717,1.3411,1.3025,1.3098,1.2739,1.2526,1.2673,1.2599,1.2599,1.2746,1.2659,1.268,1.2917,1.2702,1.2237,1.1778,1.2158,1.2524,1.2866,1.2621,1.2272,1.212,1.2231,1.2466,1.2532,1.2673,1.2893,1.2833,1.2739,1.2666,1.3244,1.341,1.3812,1.4584,1.4926,1.542,1.6063,1.6757,1.7066,1.6524,1.6789,1.7008,-1.3913,-1.4082,-1.3913,-1.3913,-1.4004,-1.3392,-1.2966,-1.2619,-1.1929,-1.1154,-1.0289,-1.0028,-0.9434,-0.8803,-0.8537,-0.8264,-0.8069,-0.7821,-0.7646,-0.748,-0.6805,-0.5964,-0.5025,-0.4101,-0.3441,-0.2737,-0.1956,-0.1175,-0.0234,0.1232,0.2266,0.2759,0.3325,0.404,0.5025,0.7413,0.8965,0.9969,1.276,1.4727,1.6078,1.9585,2.2284,2.3451,2.3743,2.3822,2.4026,2.3598,2.356,2.3941,2.4471,2.4849,2.5153,2.5697,2.626,2.6834,2.7273,2.7876,2.8737,2.8931,2.9355,3.0022,2.8382,2.75,2.7512,2.6334,2.5011,2.3785,2.1427,1.9003,1.5269,1.5047,1.5213,1.5072,1.4297,1.3985,1.3825,1.3237,1.3025,1.3098,1.3317,1.3171,1.3331,1.3558,1.3807,1.3748,1.3568,1.3509,1.3474,1.3521,1.3803,1.4538,1.4308,1.3775,1.3229,1.3119,1.307,1.3333,1.3436,1.3512,1.304,1.3181,1.3043,1.4348,1.4217,1.4423,1.5194,1.5883,1.7072,1.8189,1.8762,1.885,1.8143,1.8346,1.8637,-1.4088,-1.4088,-1.4088,-1.4082,-1.4088,-1.4004,-1.3476,-1.2699,-1.2613,-1.21,-1.1063,-1.0289,-0.985,-0.9657,-0.8877,-0.845,-0.8288,-0.8235,-0.8044,-0.7776,-0.7077,-0.6995,-0.7242,-0.5547,-0.5165,-0.5544,-0.3599,-0.2116,-0.1253,0.0468,0.1326,0.1401,0.2722,0.4055,0.4828,0.5822,0.6762,0.7986,1.0576,1.2118,1.2476,1.4466,1.7856,2.185,2.3293,2.3852,2.4504,2.4105,2.3884,2.4312,2.417,2.4319,2.4679,2.4834,2.5433,2.6441,2.6962,2.7782,2.8869,2.9326,2.9669,2.9772,2.9417,2.9342,2.9194,2.9589,2.8712,2.6264,2.7597,2.5784,1.9516,1.8315,1.7219,1.5078,1.5081,1.5163,1.4681,1.4522,1.4458,1.4458,1.4569,1.4289,1.3658,1.4243,1.462,1.4615,1.452,1.4535,1.4784,1.5157,1.5684,1.6195,1.6316,1.6016,1.3995,1.4084,1.4491,1.4675,1.5005,1.5271,1.5807,1.6012,1.565,1.5544,1.5889,1.6113,1.6081,1.6926,1.8629,1.9643,1.9955,1.9877,2.0023,2.0517,2.0841,-1.3737,-1.3828,-1.3822,-1.3913,-1.4088,-1.3913,-1.33,-1.251,-1.2425,-1.1477,-1.0193,-1.0202,-0.9685,-0.864,-0.8899,-0.8782,-0.8545,-0.8349,-0.8219,-0.8077,-0.7619,-0.7319,-0.6939,-0.6217,-0.586,-0.578,-0.5002,-0.383,-0.2581,-0.1094,-0.0391,-0.0313,0.0234,0.125,0.2575,0.3964,0.528,0.6762,0.8808,1.022,1.1077,1.1866,1.4425,1.8551,1.9615,2.0792,2.2283,2.1967,2.1919,2.2326,2.2942,2.3647,2.4403,2.5377,2.6148,2.6557,2.6775,2.723,2.7951,2.824,2.867,2.9257,2.9212,2.9241,2.9496,2.9685,2.9297,2.8544,2.8831,2.7173,2.4131,2.2134,2.0863,1.9175,1.8574,1.7978,1.676,1.5747,1.5114,1.5242,1.5273,1.4976,1.4765,1.513,1.5902,1.6261,1.6321,1.6304,1.6377,1.6806,1.7316,1.7375,1.7533,1.735,1.6636,1.6268,1.6329,1.6295,1.6438,1.633,1.6555,1.6736,1.6459,1.6971,1.755,1.823,1.834,1.9402,2.0791,2.1176,2.149,2.1933,2.2072,2.2573,2.287,-1.3483,-1.3568,-1.3646,-1.3743,-1.3828,-1.3652,-1.3215,-1.2595,-1.2339,-1.1391,-1.0361,-1.0284,-0.9593,-0.8632,-0.8807,-0.8903,-0.8556,-0.8344,-0.8259,-0.8272,-0.804,-0.7623,-0.7183,-0.6838,-0.6525,-0.6173,-0.5777,-0.4921,-0.3752,-0.2349,-0.1724,-0.1646,-0.1488,-0.0548,0.0937,0.2489,0.4039,0.552,0.7306,0.8822,0.9606,0.9905,1.1694,1.4722,1.5765,1.76,2.073,2.0828,2.0888,2.1354,2.2055,2.2702,2.3467,2.4446,2.5315,2.5793,2.5833,2.6304,2.7093,2.7261,2.7535,2.8225,2.8207,2.8273,2.8576,2.8622,2.8685,2.8701,2.8623,2.7818,2.6865,2.5763,2.4311,2.2468,2.1955,2.1183,1.9312,1.8024,1.7319,1.7142,1.7097,1.6659,1.6091,1.6954,1.7907,1.8692,1.8425,1.8048,1.817,1.8644,1.9158,1.9228,1.9653,1.9781,1.9667,1.9599,1.8713,1.8416,1.7925,1.7663,1.7933,1.7897,1.8045,1.8552,1.9275,2.0123,2.1063,2.2008,2.2592,2.2996,2.3492,2.394,2.4241,2.448,2.4743,-1.3398,-1.3398,-1.3398,-1.3398,-1.3483,-1.3398,-1.3398,-1.3052,-1.2357,-1.1752,-1.1063,-1.0279,-0.9579,-0.9235,-0.8815,-0.8564,-0.8472,-0.8181,-0.819,-0.8321,-0.8268,-0.8085,-0.7733,-0.7187,-0.6999,-0.7099,-0.6163,-0.524,-0.4543,-0.3214,-0.251,-0.2352,-0.1881,-0.1174,-0.0078,0.1403,0.2806,0.4051,0.6069,0.7399,0.7633,0.8313,0.9788,1.1885,1.2251,1.4903,2.0429,2.0613,2.0557,2.1146,2.1209,2.142,2.1834,2.1981,2.2432,2.3793,2.4094,2.4913,2.6318,2.6491,2.6424,2.6872,2.664,2.6692,2.6938,2.7327,2.763,2.765,2.7615,2.771,2.8416,2.8343,2.689,2.3789,2.4347,2.4178,2.2115,2.1372,2.0947,1.9966,1.9712,1.9312,1.8793,1.9491,2.0643,2.1183,2.0845,2.018,2.0369,2.1,2.1496,2.1789,2.2016,2.2247,2.2632,2.2816,2.1596,2.0563,1.9834,1.9421,2.0359,2.0615,2.0647,2.1027,2.1834,2.268,2.3406,2.4259,2.4661,2.5051,2.5569,2.5965,2.6408,2.6653,2.6609,-1.3307,-1.3398,-1.3228,-1.3313,-1.3398,-1.3222,-1.2881,-1.2277,-1.1929,-1.0971,-0.9758,-0.9753,-0.9139,-0.8189,-0.8285,-0.8288,-0.786,-0.7764,-0.8002,-0.8376,-0.8353,-0.8235,-0.8093,-0.7704,-0.7265,-0.6736,-0.5628,-0.4932,-0.4543,-0.3763,-0.3372,-0.3294,-0.3136,-0.2585,-0.1644,-0.0624,0.0779,0.2807,0.4206,0.5378,0.6563,0.6949,0.8362,1.0707,1.107,1.2992,1.6656,1.6958,1.7445,1.8475,1.8787,1.9652,2.098,2.1545,2.1882,2.2201,2.2311,2.2912,2.4152,2.4506,2.4983,2.5821,2.5835,2.6011,2.6375,2.6496,2.652,2.6573,2.639,2.6428,2.6753,2.7172,2.6695,2.559,2.6053,2.5781,2.3931,2.3305,2.2604,2.1621,2.2167,2.2501,2.2294,2.2885,2.3445,2.373,2.3568,2.3301,2.2884,2.3474,2.4143,2.4161,2.4425,2.4263,2.4089,2.4058,2.3544,2.263,2.1937,2.1656,2.2575,2.2949,2.3026,2.3283,2.4119,2.4707,2.5525,2.5918,2.5959,2.6574,2.6958,2.7551,2.8451,2.827,2.7569,-1.3052,-1.3137,-1.3052,-1.3052,-1.3137,-1.2966,-1.2619,-1.2015,-1.1316,-1.0453,-0.9671,-0.9152,-0.8627,-0.7929,-0.8105,-0.8025,-0.768,-0.768,-0.786,-0.8285,-0.8281,-0.8185,-0.8086,-0.7597,-0.7228,-0.6492,-0.5344,-0.4701,-0.4701,-0.4077,-0.3841,-0.3841,-0.3841,-0.3372,-0.2431,-0.1328,0.0312,0.2339,0.3667,0.4919,0.6022,0.6261,0.7464,0.9541,0.9991,1.1243,1.3389,1.3613,1.4609,1.6332,1.7083,1.8083,1.9488,1.9511,1.9554,1.9684,1.9975,2.0642,2.2068,2.2575,2.3208,2.4376,2.47,2.484,2.5259,2.5204,2.5134,2.5134,2.5078,2.5092,2.5467,2.5997,2.6305,2.635,2.6899,2.6709,2.572,2.4908,2.4257,2.3678,2.4344,2.4945,2.5244,2.5437,2.5984,2.6051,2.6075,2.5832,2.5266,2.5663,2.5812,2.5837,2.5847,2.5531,2.5057,2.5104,2.5286,2.4717,2.4076,2.4216,2.4743,2.4732,2.4752,2.4722,2.5283,2.494,2.5548,2.5645,2.5802,2.6851,2.7295,2.738,2.7372,2.7457,2.7137,-1.2705,-1.2619,-1.2705,-1.2705,-1.2705,-1.2705,-1.2619,-1.2272,-1.088,-1.0453,-1.0284,-0.8723,-0.8109,-0.8456,-0.8021,-0.7764,-0.7856,-0.7764,-0.7764,-0.7852,-0.7998,-0.8012,-0.775,-0.7155,-0.669,-0.6301,-0.5241,-0.4641,-0.4572,-0.4084,-0.3841,-0.3841,-0.3684,-0.3294,-0.2353,-0.086,0.0546,0.2262,0.3826,0.4921,0.5944,0.6257,0.7019,0.8613,0.8917,0.982,1.1242,1.1687,1.2917,1.5429,1.614,1.6775,1.7051,1.6289,1.641,1.6757,1.7104,1.8461,1.9931,2.078,2.1564,2.2518,2.3037,2.3518,2.3669,2.3585,2.3572,2.3839,2.3897,2.4116,2.4644,2.4995,2.5394,2.5835,2.6838,2.748,2.7525,2.6197,2.5642,2.5812,2.6343,2.6851,2.7154,2.7296,2.7552,2.7713,2.75,2.7067,2.6659,2.6682,2.6923,2.6951,2.6893,2.6635,2.6107,2.5574,2.5762,2.5775,2.515,2.5037,2.5659,2.5738,2.6055,2.611,2.5853,2.5521,2.5288,2.5429,2.5117,2.5069,2.5437,2.5798,2.5955,2.5945,2.6214,-1.2272,-1.1752,-1.2448,-1.2705,-1.2705,-1.2705,-1.2272,-1.1671,-1.1149,-1.0193,-0.9327,-0.854,-0.7933,-0.7577,-0.7492,-0.7319,-0.7319,-0.7319,-0.7319,-0.7319,-0.7588,-0.7585,-0.7286,-0.6756,-0.6145,-0.5473,-0.4715,-0.4105,-0.4097,-0.3957,-0.3845,-0.3763,-0.3214,-0.2744,-0.2352,-0.1409,-0.0078,0.1406,0.2031,0.3124,0.453,0.5693,0.6689,0.7677,0.8841,0.9986,1.1037,1.1552,1.2492,1.4355,1.5579,1.6428,1.6913,1.6358,1.5745,1.5534,1.586,1.6849,1.8188,1.8777,1.9576,2.1055,2.1192,2.1592,2.2749,2.2445,2.2579,2.2942,2.3122,2.305,2.2917,2.305,2.3441,2.4326,2.5935,2.7117,2.7349,2.7535,2.7582,2.7851,2.8027,2.8044,2.7813,2.8034,2.7861,2.7583,2.7618,2.7657,2.7003,2.7291,2.741,2.7608,2.7585,2.7435,2.7062,2.6431,2.6246,2.6486,2.5799,2.4719,2.537,2.5824,2.6447,2.6999,2.6242,2.578,2.5395,2.5245,2.4546,2.3308,2.3795,2.4229,2.4214,2.4193,2.4484,-1.2363,-1.1929,-1.2448,-1.2705,-1.2613,-1.2272,-1.2009,-1.1666,-1.0539,-1.0106,-0.9497,-0.8803,-0.8189,-0.7753,-0.7665,-0.7401,-0.7139,-0.7139,-0.7139,-0.7139,-0.7411,-0.7537,-0.7364,-0.6787,-0.6102,-0.5352,-0.4575,-0.4181,-0.3978,-0.3842,-0.3803,-0.3612,-0.2901,-0.2352,-0.1881,-0.1096,0.0078,0.1487,0.1878,0.2582,0.4297,0.5151,0.6307,0.7302,0.8466,0.9306,1.0056,1.0732,1.1761,1.3004,1.4083,1.5021,1.5877,1.4934,1.4386,1.4274,1.433,1.4925,1.6253,1.6789,1.7668,1.8885,1.9246,2.0084,2.0842,2.0939,2.1101,2.1353,2.1604,2.1518,2.1376,2.1642,2.2623,2.3894,2.4836,2.5792,2.6768,2.706,2.7878,2.8498,2.8643,2.7867,2.6992,2.7459,2.7464,2.7003,2.7009,2.6785,2.6381,2.7114,2.7339,2.7002,2.6828,2.6435,2.5795,2.5116,2.4582,2.4975,2.4542,2.3737,2.4164,2.4814,2.5069,2.54,2.5761,2.5513,2.412,2.308,2.2431,2.175,2.2282,2.2059,2.1693,2.1601,2.2033,-1.2619,-1.2534,-1.2705,-1.2613,-1.2357,-1.1671,-1.1585,-1.1574,-0.984,-0.9497,-1.0019,-0.9152,-0.854,-0.8368,-0.8193,-0.7929,-0.7139,-0.7139,-0.7139,-0.7143,-0.7323,-0.7485,-0.7552,-0.6753,-0.6097,-0.5456,-0.485,-0.417,-0.3775,-0.3743,-0.3764,-0.3469,-0.2744,-0.2037,-0.1332,-0.0392,0.0941,0.2038,0.2195,0.2976,0.43,0.4996,0.5844,0.7007,0.7778,0.8318,0.8927,0.9609,1.0588,1.1706,1.2231,1.3251,1.4049,1.2659,1.207,1.2739,1.2659,1.323,1.4371,1.5334,1.5965,1.6936,1.8016,1.8685,1.8885,1.9125,1.933,1.9557,1.9681,1.9811,2.006,2.0986,2.2127,2.3144,2.3398,2.4172,2.5274,2.579,2.6674,2.8507,2.8009,2.6481,2.5554,2.5726,2.6841,2.4972,2.5195,2.5146,2.4798,2.4817,2.5087,2.5099,2.5004,2.4921,2.4259,2.348,2.2972,2.2717,2.2219,2.1702,2.2069,2.2466,2.2589,2.2796,2.2885,2.1906,2.0194,1.9524,1.9364,1.8835,1.8458,1.8321,1.8199,1.8379,1.8674,-1.2266,-1.1666,-1.2357,-1.2272,-1.1671,-1.1322,-1.0626,-0.9579,-0.9579,-0.9061,-0.8536,-0.9056,-0.8707,-0.7489,-0.8105,-0.8017,-0.7143,-0.7139,-0.7139,-0.7139,-0.7139,-0.7231,-0.7048,-0.6207,-0.5323,-0.4682,-0.3656,-0.3156,-0.3096,-0.336,-0.3292,-0.3153,-0.2275,-0.1488,-0.1097,0.0235,0.1492,0.2198,0.1884,0.2508,0.3832,0.4603,0.5372,0.6458,0.7621,0.8394,0.878,0.9463,0.9992,1.0438,1.1111,1.1996,1.2666,1.2063,1.1093,1.0576,1.162,1.2652,1.3571,1.4283,1.5092,1.5641,1.6053,1.6678,1.721,1.7298,1.7655,1.7985,1.83,1.8516,1.9162,2.0052,2.0938,2.1523,2.166,2.1828,2.2401,2.3761,2.4953,2.5411,2.5706,2.5288,2.4548,2.4636,2.4602,2.3228,2.3067,2.3234,2.3099,2.2783,2.2861,2.2993,2.2521,2.2243,2.1541,2.0877,2.0661,2.0081,1.9524,1.8744,1.9088,1.9548,1.9432,1.9615,1.9912,1.8513,1.6822,1.6207,1.6095,1.5368,1.4705,1.4781,1.4932,1.5097,1.518,-1.1139,-1.0707,-1.123,-1.1139,-1.0626,-1.0193,-0.9932,-0.9671,-0.9318,-0.8973,-0.8707,-0.9575,-0.8794,-0.7224,-0.8017,-0.8017,-0.7316,-0.7139,-0.7139,-0.7139,-0.7051,-0.6874,-0.6248,-0.5536,-0.4825,-0.4643,-0.3988,-0.3486,-0.3415,-0.3421,-0.3348,-0.2789,-0.1814,-0.1097,-0.0627,0.0549,0.1414,0.1728,0.157,0.1961,0.3054,0.3595,0.4523,0.5455,0.6542,0.7084,0.7557,0.8322,0.8623,0.8846,0.9372,1.0276,1.118,1.1025,1.0056,0.9377,1.0137,1.1471,1.2265,1.2705,1.307,1.3571,1.3852,1.426,1.472,1.4999,1.5698,1.6263,1.6671,1.7164,1.8816,1.9717,2.0177,2.0252,2.014,1.9953,2.0022,2.1532,2.2999,2.3231,2.3576,2.3276,2.3086,2.3361,2.3043,2.1987,2.1559,2.1683,2.1197,2.0968,2.0807,2.0654,1.9993,1.9307,1.8614,1.8197,1.8054,1.7496,1.6762,1.5587,1.4979,1.5445,1.5911,1.6217,1.6441,1.5431,1.3953,1.343,1.3171,1.2711,1.2287,1.1872,1.1878,1.2389,1.2366,-0.9923,-0.9923,-0.9923,-0.9836,-0.9579,-0.8886,-0.9235,-1.0106,-0.9152,-0.8803,-0.9405,-0.9657,-0.8882,-0.7665,-0.8105,-0.7933,-0.7316,-0.7139,-0.7139,-0.7139,-0.7139,-0.6609,-0.5808,-0.5001,-0.4556,-0.5184,-0.4018,-0.3536,-0.3556,-0.3836,-0.3328,-0.2679,-0.1991,-0.1419,-0.0471,0.0392,0.102,0.1334,0.1177,0.1725,0.2586,0.2821,0.3444,0.453,0.5234,0.5622,0.6325,0.7096,0.7553,0.7318,0.7625,0.847,0.9231,0.9387,0.9231,0.8466,0.9301,1.0126,1.0714,1.1019,1.1168,1.1105,1.1675,1.2057,1.2419,1.3121,1.3828,1.4418,1.4973,1.5966,1.8303,1.8788,1.9245,1.9519,1.8991,1.8204,1.7954,1.9219,1.9887,2.1048,2.1314,2.1278,2.1282,2.1456,2.1178,2.079,2.0342,1.9825,1.9325,1.885,1.8647,1.8327,1.7688,1.6976,1.6226,1.5375,1.5284,1.4977,1.4182,1.3039,1.1755,1.2065,1.2703,1.2868,1.2744,1.2093,1.1771,1.1462,1.1014,1.0445,1.0202,1.0135,1.0097,0.9915,0.9745,-0.9923,-0.9923,-0.9923,-0.9492,-0.8803,-0.8544,-0.8277,-0.7929,-0.8452,-0.8105,-0.7925,-0.9144,-0.8794,-0.7753,-0.8105,-0.7929,-0.7228,-0.7139,-0.7139,-0.7051,-0.6962,-0.6432,-0.5539,-0.4556,-0.42,-0.3578,-0.2774,-0.2305,-0.2624,-0.2679,-0.3045,-0.2947,-0.2501,-0.2077,-0.1657,-0.1176,0.0078,0.0861,0.0705,0.1331,0.2662,0.2743,0.2899,0.4066,0.4613,0.5082,0.5547,0.6707,0.748,0.7476,0.8003,0.8232,0.8156,0.7778,0.7476,0.7625,0.8537,0.9291,0.9588,1.0099,1.0559,1.095,1.1123,1.1307,1.1538,1.1866,1.2363,1.2894,1.3614,1.4585,1.5561,1.6669,1.7388,1.7802,1.7479,1.648,1.6448,1.6254,1.6409,1.7743,1.8559,1.9492,1.9585,1.9161,1.8214,1.7974,1.7743,1.7268,1.6716,1.6332,1.5959,1.5628,1.5289,1.4671,1.3961,1.3031,1.2486,1.2478,1.1827,1.1038,1.0076,0.9456,0.9511,0.9846,1.0399,1.0527,1.0127,0.9644,0.9034,0.858,0.8535,0.8594,0.8055,0.7619,0.7953,-0.8444,-0.8448,-0.8444,-0.8185,-0.7837,-0.7753,-0.7841,-0.7929,-0.8281,-0.8285,-0.8193,-0.8711,-0.8448,-0.7489,-0.7489,-0.7489,-0.7228,-0.7139,-0.7139,-0.7051,-0.6609,-0.5894,-0.4914,-0.4024,-0.3132,-0.2508,-0.1792,-0.1786,-0.2471,-0.2619,-0.2748,-0.2609,-0.2387,-0.2178,-0.1915,-0.1419,-0.0628,0.0235,0.0313,0.0784,0.235,0.204,0.2508,0.3599,0.4222,0.4768,0.5786,0.6254,0.6791,0.6707,0.6934,0.6857,0.663,0.6398,0.6325,0.6938,0.7851,0.8609,0.8765,0.9281,0.9588,0.9765,1.0008,1.006,1.0204,1.0486,1.1047,1.1838,1.3117,1.3995,1.4566,1.5411,1.6242,1.6421,1.6034,1.553,1.483,1.3904,1.4079,1.4671,1.5352,1.648,1.7933,1.709,1.5561,1.5032,1.4986,1.4788,1.4343,1.4153,1.3946,1.3658,1.3322,1.2284,1.1592,1.0572,0.9972,0.9837,0.9553,0.8802,0.8203,0.7557,0.7075,0.7036,0.7588,0.8676,0.8555,0.8058,0.7455,0.6762,0.6643,0.6441,0.5771,0.5397,0.5902,-0.7139,-0.7139,-0.7139,-0.7139,-0.7139,-0.7139,-0.7489,-0.8105,-0.8193,-0.8193,-0.8193,-0.8189,-0.7841,-0.7228,-0.7139,-0.7139,-0.7139,-0.7139,-0.6962,-0.6605,-0.6074,-0.5184,-0.4024,-0.3223,-0.2509,-0.1793,-0.1524,-0.1884,-0.2498,-0.2738,-0.2623,-0.2749,-0.2419,-0.2215,-0.2122,-0.1936,-0.1114,-0.0476,0.0,0.0473,0.1101,0.1415,0.1961,0.3443,0.3675,0.4533,0.5709,0.6257,0.6257,0.6173,0.6018,0.5789,0.5404,0.5323,0.5709,0.6479,0.7246,0.794,0.8394,0.8703,0.8946,0.9106,0.9008,0.9039,0.9318,0.9805,1.0169,1.1101,1.2066,1.3068,1.3328,1.4461,1.4999,1.4965,1.4944,1.464,1.3366,1.2412,1.1592,1.2066,1.2492,1.3432,1.4895,1.486,1.3252,1.2596,1.2542,1.329,1.293,1.2801,1.2608,1.2074,1.1404,1.0187,0.9144,0.7927,0.758,0.7509,0.7102,0.6532,0.5976,0.5491,0.5342,0.5363,0.5978,0.6816,0.6703,0.6482,0.5974,0.5456,0.4927,0.4728,0.4663,0.4376,0.4576,-0.7139,-0.7139,-0.7139,-0.7139,-0.7139,-0.7139,-0.7139,-0.7316,-0.7316,-0.7228,-0.7404,-0.7316,-0.7228,-0.7139,-0.7139,-0.7139,-0.7139,-0.7051,-0.6782,-0.6251,-0.5808,-0.4917,-0.3401,-0.3044,-0.2419,-0.1704,-0.1436,-0.1705,-0.2151,-0.2588,-0.3005,-0.3131,-0.3366,-0.3759,-0.3348,-0.2567,-0.1999,-0.1161,-0.0326,0.0481,0.1108,0.1343,0.1814,0.2598,0.3381,0.4171,0.5129,0.5686,0.5993,0.6058,0.5883,0.5951,0.6025,0.5718,0.5404,0.5715,0.6486,0.7646,0.7961,0.8354,0.8667,0.8788,0.8974,0.9152,0.9405,0.971,0.9981,1.0019,1.0559,1.1089,1.1738,1.2116,1.2703,1.3142,1.3322,1.2969,1.2114,1.1766,1.0929,1.0149,1.07,1.1044,1.1894,1.1585,1.1101,1.0459,1.0186,1.1021,1.1294,1.1077,1.0365,0.9719,0.8877,0.7629,0.7426,0.6164,0.5721,0.5538,0.4997,0.4552,0.4313,0.4168,0.4369,0.4487,0.4812,0.4522,0.4091,0.3983,0.4298,0.4081,0.3451,0.3669,0.4109,0.3802,0.3278,-0.7299,-0.7139,-0.7139,-0.7139,-0.7139,-0.7139,-0.7139,-0.7139,-0.7139,-0.7139,-0.7139,-0.7139,-0.7139,-0.7139,-0.7139,-0.7139,-0.7139,-0.7139,-0.6962,-0.6343,-0.5897,-0.5272,-0.4472,-0.3491,-0.2509,-0.224,-0.1704,-0.1436,-0.1794,-0.1972,-0.2404,-0.3095,-0.3324,-0.3635,-0.3766,-0.304,-0.2184,-0.1171,-0.0083,0.0908,0.123,0.1389,0.1714,0.2526,0.2928,0.3574,0.4304,0.4637,0.4882,0.4882,0.4718,0.5291,0.5798,0.5765,0.5378,0.6109,0.6673,0.719,0.7419,0.8026,0.8365,0.8604,0.8733,0.8937,0.9253,0.9712,1.0038,1.0038,1.0195,1.042,1.0785,1.1389,1.1912,1.2265,1.2086,1.193,1.1589,1.1242,1.0687,0.9799,0.9009,0.9468,0.9828,0.9684,0.9652,0.9428,0.9095,0.9332,0.9263,0.8679,0.782,0.6752,0.5868,0.4774,0.5117,0.4781,0.452,0.4235,0.3452,0.3078,0.2984,0.3002,0.3102,0.2502,0.2009,0.171,0.1509,0.221,0.2906,0.2509,0.2011,0.2114,0.2116,0.2116,0.1705,-0.7495,-0.7255,-0.7214,-0.7177,-0.7139,-0.7139,-0.7139,-0.7139,-0.7139,-0.7139,-0.7139,-0.7139,-0.7139,-0.7139,-0.7139,-0.7139,-0.7139,-0.7139,-0.6962,-0.6517,-0.6074,-0.5539,-0.4825,-0.3757,-0.3133,-0.2867,-0.2241,-0.1793,-0.1436,-0.1524,-0.1972,-0.2688,-0.2918,-0.3072,-0.3228,-0.2507,-0.1456,-0.034,0.0679,0.1267,0.1345,0.1344,0.1845,0.2347,0.2684,0.3019,0.369,0.3849,0.393,0.3926,0.392,0.4606,0.5448,0.5426,0.5596,0.6264,0.6761,0.6812,0.7078,0.7469,0.7923,0.8147,0.8316,0.8463,0.8657,0.9336,0.9648,0.942,0.9538,0.9622,0.994,1.0513,1.0594,1.092,1.1253,1.116,1.1062,1.0571,1.0263,0.9655,0.893,0.8459,0.8568,0.8223,0.8169,0.8205,0.8143,0.7948,0.7519,0.6907,0.5929,0.5012,0.4469,0.3622,0.3647,0.3788,0.342,0.3127,0.2423,0.2119,0.2314,0.2012,0.1811,0.0907,0.0,-0.0604,-0.0604,0.0603,0.1607,0.0804,0.0201,-0.0101,-0.0101,0.0101,0.0202,-0.7709,-0.7553,-0.7414,-0.7278,-0.7149,-0.7139,-0.7143,-0.7139,-0.7139,-0.7139,-0.7139,-0.7139,-0.7139,-0.7139,-0.7139,-0.7139,-0.7139,-0.7139,-0.6694,-0.6163,-0.5716,-0.545,-0.4914,-0.4469,-0.3758,-0.3135,-0.2599,-0.2152,-0.1614,-0.1436,-0.1794,-0.2152,-0.2407,-0.25,-0.2316,-0.1591,-0.0438,0.0522,0.13,0.1376,0.1363,0.1356,0.1693,0.2362,0.2608,0.2938,0.3692,0.3628,0.3468,0.3468,0.3643,0.399,0.4737,0.5157,0.5704,0.6408,0.6632,0.6642,0.6759,0.7188,0.7514,0.765,0.7801,0.7918,0.7963,0.9165,0.9319,0.8513,0.8536,0.8516,0.8562,0.863,0.9208,0.9527,0.9949,0.9996,0.9883,0.9836,0.9519,0.9295,0.8835,0.8348,0.7941,0.7787,0.7135,0.7086,0.7273,0.7153,0.6386,0.5719,0.4712,0.3866,0.3593,0.321,0.3011,0.2927,0.3027,0.2724,0.2019,0.1918,0.2017,0.1615,0.0909,0.0202,-0.0605,-0.1612,-0.2418,-0.1208,-0.0604,-0.1108,-0.1512,-0.1411,-0.1209,-0.0908,-0.1009,-0.7865,-0.7726,-0.7665,-0.7502,-0.7282,-0.7282,-0.7227,-0.7146,-0.7139,-0.7139,-0.7139,-0.7139,-0.7139,-0.7139,-0.7139,-0.7139,-0.7139,-0.7139,-0.6786,-0.6694,-0.6517,-0.6337,-0.5891,-0.527,-0.4648,-0.3757,-0.3223,-0.242,-0.1525,-0.1436,-0.1436,-0.1705,-0.1885,-0.206,-0.1701,-0.0896,0.0267,0.1067,0.1416,0.141,0.1407,0.1401,0.1488,0.1837,0.1837,0.2011,0.2275,0.2273,0.2361,0.2532,0.2964,0.3493,0.4112,0.4872,0.5843,0.6576,0.6708,0.6779,0.6757,0.6997,0.7161,0.7212,0.7531,0.7717,0.7351,0.8174,0.8543,0.8015,0.7512,0.7405,0.8317,0.862,0.883,0.8648,0.8572,0.8612,0.8594,0.8525,0.8402,0.7966,0.8193,0.8207,0.7815,0.7521,0.6658,0.6024,0.6211,0.6203,0.5676,0.4636,0.3685,0.3106,0.2819,0.2825,0.2725,0.2725,0.2725,0.222,0.1615,0.1615,0.1514,0.0808,0.0202,-0.0504,-0.1008,-0.1916,-0.2521,-0.2623,-0.2724,-0.2822,-0.262,-0.2318,-0.2016,-0.1916,-0.2117,-0.798,-0.7885,-0.7879,-0.7709,-0.7451,-0.739,-0.7312,-0.7214,-0.716,-0.7139,-0.7139,-0.7139,-0.7139,-0.7139,-0.7139,-0.7139,-0.7139,-0.7139,-0.7139,-0.7051,-0.7051,-0.7139,-0.6786,-0.6074,-0.5095,-0.4289,-0.3312,-0.242,-0.1436,-0.1436,-0.1436,-0.1348,-0.1082,-0.1264,-0.0986,-0.0269,0.0718,0.1256,0.1436,0.1436,0.1433,0.1433,0.1432,0.1431,0.1519,0.1518,0.1606,0.1604,0.1606,0.1785,0.2144,0.2681,0.3486,0.4472,0.5646,0.6471,0.6952,0.7101,0.7148,0.6927,0.6808,0.675,0.6995,0.705,0.6939,0.706,0.725,0.7435,0.6896,0.6796,0.7865,0.776,0.7806,0.7601,0.7006,0.6927,0.712,0.7183,0.6892,0.6685,0.6828,0.6586,0.5706,0.5314,0.5672,0.4749,0.4399,0.5033,0.5852,0.4591,0.2809,0.2315,0.2116,0.2219,0.2422,0.2118,0.1816,0.1513,0.111,0.0908,0.0605,0.0101,-0.0404,-0.0908,-0.1513,-0.2219,-0.2825,-0.3228,-0.3731,-0.4232,-0.3828,-0.3324,-0.3525,-0.3425,-0.3224,-0.8028,-0.8035,-0.8014,-0.7845,-0.7573,-0.7438,-0.737,-0.7322,-0.7204,-0.7139,-0.7139,-0.7139,-0.7139,-0.7139,-0.7139,-0.7139,-0.7139,-0.7139,-0.7139,-0.7139,-0.7139,-0.7139,-0.6697,-0.6074,-0.5095,-0.4289,-0.3312,-0.242,-0.1436,-0.1436,-0.1436,-0.1263,-0.091,-0.0549,-0.009,0.0808,0.1347,0.1348,0.1262,0.1264,0.1442,0.1442,0.1442,0.1436,0.1436,0.1436,0.1436,0.1436,0.1438,0.1534,0.1713,0.2347,0.3076,0.3972,0.4992,0.5786,0.6624,0.7161,0.7373,0.681,0.6332,0.631,0.6605,0.6455,0.6272,0.6275,0.6395,0.6843,0.6468,0.6329,0.6523,0.6528,0.6531,0.6132,0.5529,0.5429,0.5622,0.562,0.532,0.522,0.4716,0.4109,0.3114,0.2715,0.3807,0.3701,0.3013,0.3521,0.4922,0.4021,0.2016,0.1412,0.121,0.1613,0.1613,0.121,0.0806,0.0605,0.0504,0.0303,-0.0101,-0.0606,-0.1009,-0.1311,-0.1916,-0.2723,-0.3428,-0.4033,-0.4433,-0.4834,-0.4734,-0.4431,-0.4734,-0.4832,-0.4529,-0.7599,-0.7589,-0.7691,-0.7594,-0.7399,-0.7449,-0.7468,-0.7353,-0.7217,-0.7139,-0.7139,-0.7139,-0.7139,-0.7139,-0.7139,-0.7139,-0.7139,-0.7139,-0.7139,-0.7139,-0.7051,-0.6609,-0.6254,-0.563,-0.4828,-0.3667,-0.2867,-0.2331,-0.1436,-0.1436,-0.1436,-0.1263,-0.092,-0.0557,-0.0466,0.0,0.0,0.028,0.0466,0.065,0.1376,0.1464,0.1457,0.1351,0.144,0.1441,0.1442,0.1444,0.1451,0.1554,0.1831,0.2391,0.2966,0.3713,0.4473,0.4884,0.5455,0.5315,0.5413,0.5165,0.5548,0.5888,0.6165,0.6107,0.6398,0.6382,0.6336,0.6259,0.6103,0.5834,0.5534,0.5432,0.5231,0.4427,0.3925,0.3925,0.4022,0.3922,0.3822,0.3822,0.3521,0.342,0.262,0.1715,0.2316,0.2515,0.1813,0.2217,0.3422,0.2414,0.0806,0.0403,0.0202,0.0806,0.0907,0.0403,0.0101,-0.0101,-0.0202,-0.0404,-0.0808,-0.1212,-0.1817,-0.2117,-0.262,-0.3225,-0.4128,-0.4832,-0.5033,-0.5236,-0.5247,-0.5441,-0.5734,-0.5632,-0.5329,-0.7305,-0.7251,-0.7354,-0.7312,-0.7211,-0.75,-0.7512,-0.7363,-0.721,-0.7139,-0.7139,-0.7139,-0.7139,-0.7139,-0.7139,-0.7139,-0.7139,-0.7139,-0.7139,-0.7051,-0.6694,-0.6251,-0.5808,-0.5008,-0.4026,-0.3045,-0.2419,-0.1973,-0.1436,-0.1436,-0.145,-0.1382,-0.1216,-0.1243,-0.1059,-0.0865,-0.0474,-0.0284,-0.0284,0.0,0.0562,0.0933,0.1115,0.1291,0.147,0.147,0.1468,0.147,0.1475,0.1676,0.2061,0.2445,0.2754,0.3333,0.3818,0.3926,0.4357,0.4388,0.4449,0.448,0.4948,0.547,0.5606,0.5532,0.5738,0.5879,0.5606,0.5522,0.5432,0.4931,0.4431,0.423,0.3927,0.3122,0.2821,0.2821,0.262,0.2518,0.0,0.0,0.0,0.0,0.0,0.1513,0.1009,0.0908,0.0706,0.1311,0.1715,0.0908,0.0101,-0.0303,-0.0706,-0.0303,-0.0202,-0.0504,-0.0707,-0.0808,-0.0909,-0.101,-0.1212,-0.1515,-0.222,-0.2923,-0.3224,-0.3725,-0.4926,-0.5629,-0.5937,-0.606,-0.5987,-0.6274,-0.6642,-0.645,-0.6163,-0.7047,-0.6941,-0.6926,-0.7004,-0.7192,-0.7359,-0.7478,-0.735,-0.7204,-0.7139,-0.7139,-0.7139,-0.7139,-0.7139,-0.7139,-0.7139,-0.7139,-0.7139,-0.7139,-0.6874,-0.634,-0.5897,-0.5006,-0.3937,-0.3224,-0.2599,-0.2064,-0.1708,-0.1438,-0.1453,-0.148,-0.1513,-0.1444,-0.1565,-0.1472,-0.1172,-0.0771,-0.0965,-0.1157,-0.0672,0.0,0.0095,0.0664,0.1133,0.151,0.151,0.151,0.1513,0.1519,0.1525,0.1624,0.1624,0.1817,0.2484,0.2897,0.3328,0.4079,0.4098,0.4011,0.3823,0.3922,0.4084,0.4009,0.3624,0.4123,0.502,0.4826,0.4026,0.3524,0.3323,0.3123,0.3123,0.3021,0.2418,0.1916,0.1714,0.1412,0.0,0.0,0.0,0.0,0.0,0.0,0.0,0.0101,0.0303,0.0202,-0.0303,0.0101,0.0303,-0.0404,-0.0909,-0.1212,-0.1414,-0.1414,-0.1212,-0.1111,-0.1111,-0.1313,-0.1415,-0.1617,-0.202,-0.2923,-0.3525,-0.3524,-0.4327,-0.5929,-0.6637,-0.6848,-0.6882,-0.6844,-0.7038,-0.7318,-0.7235,-0.7053,-0.6548,-0.6507,-0.6503,-0.646,-0.6463,-0.6644,-0.6886,-0.72,-0.7153,-0.7139,-0.7139,-0.7139,-0.7139,-0.7139,-0.7139,-0.7139,-0.7139,-0.7139,-0.7139,-0.6694,-0.5985,-0.5359,-0.4469,-0.3401,-0.2599,-0.1973,-0.1617,-0.1446,-0.147,-0.1483,-0.15,-0.1527,-0.1561,-0.1777,-0.1685,-0.1389,-0.1584,-0.1779,-0.2072,-0.1372,-0.0487,-0.0194,0.058,0.1154,0.1535,0.1535,0.1534,0.1534,0.154,0.1555,0.1558,0.1564,0.159,0.1888,0.1998,0.21,0.2314,0.242,0.2422,0.2422,0.2522,0.2521,0.2422,0.3226,0.3627,0.3927,0.3927,0.3022,0.2017,0.1815,0.2016,0.2016,0.1814,0.1412,0.0,0.0,0.0,0.0,0.0,0.0,0.0,0.0,0.0,0.0,-0.0404,-0.0202,-0.0303,-0.1009,-0.1211,-0.0908,-0.1313,-0.1817,-0.1817,-0.212,-0.1717,-0.1515,-0.1414,-0.1313,-0.1721,-0.2127,-0.243,-0.2933,-0.3729,-0.4433,-0.4945,-0.5942,-0.7235,-0.7556,-0.7494,-0.7772,-0.7833,-0.7922,-0.8018,-0.7744,-0.7788,-0.6153,-0.6105,-0.6117,-0.6083,-0.6171,-0.6343,-0.6609,-0.6786,-0.7051,-0.7139,-0.7139,-0.7139,-0.7139,-0.7139,-0.7139,-0.7139,-0.7139,-0.7051,-0.6962,-0.6251,-0.5539,-0.4648,-0.3667,-0.2868,-0.2061,-0.1525,-0.144,-0.145,-0.1485,-0.1523,-0.1545,-0.1548,-0.1574,-0.1585,-0.1594,-0.1804,-0.1812,-0.2113,-0.2311,-0.19,-0.1194,-0.0495,0.0197,0.1271,0.1559,0.1559,0.1559,0.1559,0.1572,0.1586,0.1589,0.1596,0.1615,0.1615,0.1615,0.1716,0.1716,0.1818,0.1818,0.1717,0.1515,0.1415,0.1414,0.2019,0.2522,0.2823,0.252,0.1916,0.111,0.0606,0.0808,0.1009,0.0606,0.0202,0.0,0.0,0.0,0.0,0.0,0.0,0.0,0.0,0.0,-0.0908,-0.121,-0.121,-0.131,-0.1713,-0.1815,-0.1513,-0.2219,-0.3128,-0.2927,-0.2825,-0.2423,-0.2223,-0.2327,-0.2536,-0.2857,-0.3163,-0.3356,-0.3565,-0.4085,-0.5291,-0.6687,-0.7293,-0.7704,-0.7828,-0.787,-0.816,-0.8273,-0.8337,-0.8226,-0.8203,-0.8259,-0.5831,-0.5738,-0.5733,-0.5819,-0.6086,-0.6254,-0.6352,-0.6447,-0.6818,-0.7064,-0.7058,-0.7051,-0.7051,-0.7051,-0.7139,-0.7139,-0.6962,-0.6874,-0.6428,-0.563,-0.4648,-0.3762,-0.2973,-0.198,-0.1634,-0.1446,-0.1453,-0.1477,-0.1502,-0.1542,-0.1575,-0.1577,-0.1599,-0.161,-0.1611,-0.1713,-0.1615,-0.1613,-0.1916,-0.181,-0.1409,-0.1007,-0.0504,0.1209,0.1611,0.1611,0.1612,0.1614,0.1617,0.1616,0.1615,0.1615,0.1616,0.1617,0.1617,0.1617,0.1617,0.1617,0.1617,0.1617,0.1617,0.1516,0.1414,0.1616,0.1918,0.1917,0.1615,0.1413,0.0808,0.0505,0.0707,0.0808,0.0505,0.0303,0.0,0.0,0.0,0.0,0.0,0.0,-0.0707,-0.0807,-0.1412,-0.1815,-0.2723,-0.2619,-0.2316,-0.2518,-0.2823,-0.2522,-0.3033,-0.4045,-0.3633,-0.3331,-0.3334,-0.3237,-0.3549,-0.3767,-0.3906,-0.4136,-0.4247,-0.4352,-0.4353,-0.5791,-0.7223,-0.7388,-0.7591,-0.7734,-0.7895,-0.8079,-0.8302,-0.8444,-0.8562,-0.8501,-0.8528,-0.576,-0.5733,-0.5733,-0.5733,-0.5819,-0.6083,-0.6227,-0.6318,-0.6587,-0.6799,-0.6897,-0.6887,-0.6976,-0.7071,-0.7071,-0.7068,-0.6962,-0.6432,-0.5985,-0.5107,-0.4036,-0.3267,-0.2746,-0.1929,-0.1573,-0.1499,-0.1509,-0.1515,-0.1543,-0.1579,-0.1605,-0.1605,-0.1617,-0.1617,-0.1516,-0.1515,-0.111,-0.1109,-0.1009,-0.1009,-0.0403,-0.0202,0.0303,0.1212,0.1617,0.1617,0.1617,0.1617,0.1617,0.1616,0.1617,0.1616,0.1617,0.1617,0.1617,0.1617,0.1617,0.1617,0.1516,0.1515,0.1414,0.1414,0.1415,0.1516,0.1515,0.1212,0.101,0.101,0.0909,0.0707,0.0606,0.0606,0.0606,0.0404,0.0303,0.0101,0.0,0.0,0.0,0.0,0.0,-0.1714,-0.2319,-0.3027,-0.3934,-0.3932,-0.3325,-0.3328,-0.4046,-0.4154,-0.3969,-0.4577,-0.3942,-0.3737,-0.4055,-0.4287,-0.4619,-0.4553,-0.4495,-0.4831,-0.517,-0.5505,-0.5838,-0.6548,-0.7473,-0.7538,-0.7528,-0.7679,-0.7842,-0.8213,-0.8618,-0.9075,-0.8821,-0.8682,-0.8719,-0.5733,-0.5733,-0.5733,-0.5733,-0.5735,-0.5908,-0.5978,-0.6167,-0.627,-0.6444,-0.6615,-0.6794,-0.6859,-0.7078,-0.7065,-0.6745,-0.6542,-0.5985,-0.5046,-0.4164,-0.3549,-0.2764,-0.2231,-0.1782,-0.1601,-0.1525,-0.1542,-0.1556,-0.1577,-0.1598,-0.1615,-0.1617,-0.1617,-0.1617,-0.1516,-0.1111,-0.0808,-0.0807,-0.0404,-0.0101,0.0302,0.0403,0.0706,0.1414,0.1617,0.1617,0.1617,0.1617,0.1617,0.1617,0.1617,0.1111,0.1111,0.1313,0.1516,0.1617,0.1617,0.1617,0.1414,0.1212,0.0908,0.0908,0.0303,0.0,0.0202,0.0101,0.1111,0.1212,0.1313,0.1212,0.0909,0.0808,0.0808,0.0707,0.0303,0.0101,-0.0706,0.0,0.0,0.0,-0.2519,-0.292,-0.3636,-0.4485,-0.5306,-0.5644,-0.491,-0.4733,-0.5353,-0.5435,-0.5342,-0.5248,-0.4824,-0.4836,-0.5399,-0.553,-0.565,-0.5483,-0.521,-0.5699,-0.6285,-0.6843,-0.739,-0.7327,-0.7387,-0.7364,-0.7367,-0.7818,-0.8375,-0.8845,-0.937,-0.9813,-0.9435,-0.9144,-0.9354,-0.5733,-0.5733,-0.5733,-0.5733,-0.5738,-0.5752,-0.5825,-0.5923,-0.595,-0.6117,-0.6401,-0.6602,-0.6804,-0.6983,-0.6847,-0.6303,-0.5721,-0.5106,-0.4129,-0.3417,-0.2876,-0.2257,-0.1902,-0.1532,-0.154,-0.1551,-0.1568,-0.1575,-0.1584,-0.1605,-0.1617,-0.1617,-0.1617,-0.1617,-0.1617,-0.1414,-0.1111,-0.0606,-0.0303,-0.0101,0.0202,0.0403,0.0807,0.1212,0.1414,0.1313,0.1212,0.1111,0.1111,0.101,0.0808,0.0404,0.0202,0.0404,0.0606,0.0707,0.0707,0.0707,0.0707,0.0202,-0.0101,-0.0403,-0.121,-0.1412,-0.1109,-0.0504,0.0505,0.1111,0.1212,0.1313,0.1111,0.0707,0.0707,0.0404,0.0101,-0.0404,-0.1513,-0.2519,-0.2822,-0.3126,-0.3536,-0.4039,-0.4177,-0.5141,-0.6218,-0.6668,-0.6813,-0.6763,-0.6677,-0.6315,-0.619,-0.6213,-0.6008,-0.635,-0.6574,-0.6497,-0.629,-0.6328,-0.6273,-0.6814,-0.7216,-0.7295,-0.7259,-0.7214,-0.7175,-0.749,-0.792,-0.8366,-0.8932,-0.96,-0.9454,-0.9753,-1.0425,-1.0241,-1.0351,-0.5733,-0.5733,-0.5735,-0.5735,-0.5749,-0.5833,-0.5939,-0.6056,-0.6154,-0.6263,-0.6423,-0.6443,-0.6746,-0.7082,-0.6415,-0.5903,-0.5591,-0.4574,-0.3665,-0.303,-0.2274,-0.1824,-0.1652,-0.1564,-0.1579,-0.159,-0.1598,-0.1605,-0.16,-0.1609,-0.1617,-0.1617,-0.1617,-0.1516,-0.1516,-0.1212,-0.0808,-0.0505,-0.0101,0.0202,0.0202,0.0202,-0.0202,-0.0101,-0.0303,-0.0605,-0.0807,-0.1008,-0.1009,-0.1009,-0.0807,-0.0907,-0.0907,-0.0908,-0.0706,-0.0605,-0.0605,-0.0504,-0.0706,-0.1009,-0.131,-0.131,-0.1915,-0.2016,-0.1814,-0.1714,-0.0807,-0.0101,0.0202,0.101,0.0908,0.0303,0.0,-0.0605,-0.1109,-0.1713,-0.262,-0.3026,-0.3233,-0.3655,-0.4084,-0.349,-0.2382,-0.4076,-0.6653,-0.6895,-0.6909,-0.6853,-0.6866,-0.6858,-0.6855,-0.688,-0.6907,-0.6855,-0.6823,-0.6813,-0.6845,-0.6989,-0.7024,-0.7092,-0.7138,-0.7146,-0.7224,-0.7177,-0.7734,-0.8291,-0.862,-0.8794,-0.9693,-1.0151,-0.9311,-0.935,-1.0457,-1.1227,-1.1446]},{"header":{"parameterUnit":"m.s-1","parameterCategory":1,"la1":31.0,"la2":29.5877,"lo1":-88.7671,"lo2":-86.6584,"dy":0.0162,"dx":0.0185,"nx":115,"ny":88,"refTime":"2024-06-12T06:00:00:Z","depth":0,"parameterNumber":3,"parameterNumberName":"V-component_of_WINDS"},"data":[0.0,0.0,0.0,0.0,0.0,0.0,0.0,0.0,0.0,0.0,0.0,0.0,0.0,0.0,0.0,0.0,0.0,0.0,0.0,0.0,0.0,0.0,0.0,0.0,0.0,0.0,0.0,0.0,0.0,0.0,0.0,0.0,0.0,0.0,0.0,0.0,0.0,0.0,0.0,0.0,0.0,0.0,0.0,0.0,0.0,0.0,0.0,0.0,0.0,0.0,0.0,0.0,0.0,0.0,0.0,0.0,0.0,0.0,0.0,0.0,0.0,0.0,0.0,0.0,0.0,0.0,0.0,0.0,0.0,0.0,0.0,0.0,0.0,0.0,0.0,0.0,0.0,0.0,0.0,0.0,0.0,0.0,0.0,0.0,0.0,0.0,0.0,0.0,0.0,0.0,0.0,0.0,0.0,0.0,0.0,0.0,0.0,0.0,0.0,0.0,0.0,0.0,0.0,0.0,0.0,0.0,0.0,0.0,0.0,0.0,0.0,0.0,0.0,0.0,0.0,0.0,0.0,0.0,0.0,0.0,0.0,0.0,0.0,0.0,0.0,0.0,0.0,0.0,0.0,0.0,0.0,0.0,0.0,0.0,0.0,0.0,0.0,0.0,0.0,0.0,0.0,0.0,0.0,0.0,0.0,0.0,0.0,0.0,0.0,0.0,0.0,0.0,0.0,0.0,0.0,0.0,0.0,0.0,0.0,0.0,0.0,0.0,0.0,0.0,0.0,0.0,0.0,0.0,0.0,0.0,0.0,0.0,0.0,0.0,0.0,0.0,0.0,0.0,0.0,0.0,0.0,0.0,0.0,0.0,0.0,0.0,0.0,0.0,0.0,0.0,0.0,0.0,0.0,0.0,0.0,0.0,0.0,0.0,0.0,0.0,0.0,0.0,0.0,0.0,0.0,0.0,0.0,0.0,0.0,0.0,0.0,0.0,0.0,0.0,0.0,0.0,0.0,0.0,0.0,0.0,0.0,0.0,0.0,0.0,0.0,0.0,0.0,0.0,0.0,0.0,0.0,0.0,0.0,0.0,0.0,0.0,0.0,0.0,0.0,0.0,0.0,0.0,0.0,0.0,0.0,0.0,0.0,0.0,0.0,0.0,0.0,0.0,0.0,0.0,0.0,0.0,0.0,0.0,0.0,0.0,0.0,0.0,0.0,0.0,0.0,0.0,0.0,0.0,0.0,0.0,0.0,0.0,0.0,0.0,0.0,0.0,0.0,0.0,0.0,0.0,0.0,0.0,0.0,0.0,0.0,0.0,0.0,0.0,0.0,0.0,0.0,0.0,0.0,0.0,0.0,0.0,0.0,0.0,0.0,0.0,0.0,0.0,0.0,0.0,0.0,0.0,0.0,0.0,0.0,0.0,0.0,0.0,0.0,0.0,0.0,0.0,0.0,0.0,0.0,0.0,0.0,0.0,0.0,0.0,0.0,0.0,0.0,0.0,0.0,0.0,0.0,0.0,0.0,0.0,0.0,0.0,0.0,0.0,0.0,0.0,0.0,0.0,0.0,0.0,0.0,0.0,0.0,0.0,0.0,0.0,0.0,0.0,0.0,0.0,0.0,0.0,0.0,0.0,0.0,0.0,0.0,0.0,0.0,0.0,0.0,0.0,0.0,0.0,0.0,0.0,0.0,0.0,0.0,0.0,0.0,0.0,0.0,0.0,0.0,0.0,0.0,0.0,0.0,0.0,0.0,0.0,0.0,0.0,0.0,0.0,0.0,0.0,0.0,0.0,0.0,0.0,0.0,0.0,0.0,0.0,0.0,0.0,0.0,0.0,0.0,0.0,0.0,0.0,0.0,0.0,0.0,0.0,0.0,0.0,0.0,0.0,0.0,0.0,0.0,0.0,0.0,0.0,0.0,0.0,0.0,0.0,0.0,0.0,0.0,0.0,0.0,0.0,0.0,0.0,0.0,0.0,0.0,0.0,0.0,0.0,0.0,0.0,0.0,0.0,0.0,0.0,0.0,0.0,0.0,0.0,0.0,0.0,0.0,0.0,0.0,0.0,0.0,0.0,0.0,0.0,0.0,0.0,0.0,0.0,0.0,0.0,0.0,0.0,0.0,0.0,0.0,0.0,0.0,0.0,0.0,0.0,0.0,0.0,0.0,0.0,0.0,0.0,0.0,0.0,0.0,0.0,0.0,0.0,0.0,0.0,0.0,0.0,0.0,0.0,0.0,0.0,0.0,0.0,0.0,0.0,0.0,0.0,0.0,0.0,0.0,0.0,0.0,0.0,0.0,0.0,0.0,0.0,0.0,0.0,0.0,0.0,0.0,0.0,0.0,0.0,0.0,0.0,0.0,0.0,0.0,0.0,0.0,0.0,0.0,0.0,0.0,0.0,0.0,0.0,0.0,0.0,0.0,0.0,0.0,0.0,0.0,0.0,0.0,0.0,0.0,0.0,0.0,0.0,0.0,0.0,0.0,0.0,0.0,0.0,0.0,0.0,0.0,0.0,0.0,0.0,0.0,0.0,0.0,0.0,0.0,0.0,0.0,0.0,0.0,0.0,0.0,0.0,0.0,0.0,0.0,0.0,0.0,0.0,0.0,0.0,0.0,0.0,0.0,0.0,0.0,0.0,0.0,0.0,0.0,0.0,0.0,0.0,0.0,0.0,0.0,0.0,0.0,0.0,0.0,0.0,0.0,0.0,0.0,0.0,0.0,0.0,0.0,0.0,0.0,0.0,0.0,0.0,0.0,0.0,0.0,0.0,0.0,0.0,0.0,0.0,0.0,0.0,0.0,0.0,0.0,0.0,0.0,0.0,0.0,0.0,0.0,0.0,0.0,0.0,0.0,0.0,0.0,0.0,0.0,0.0,0.0,0.0,0.0,0.0,0.0,0.0,0.0,0.0,0.0,0.0,0.0,0.0,0.0,0.0,0.0,0.0,0.0,0.0,0.0,0.0,0.0,0.0,0.0,0.0,0.0,0.0,0.0,0.0,0.0,0.0,0.0,0.0,0.0,0.0,0.0,0.0,0.0,0.0,0.0,0.0,0.0,0.0,0.0,0.0,0.0,0.0,0.0,0.0,0.0,0.0,0.0,0.0,0.0,0.0,0.0,0.0,0.0,0.0,0.0,0.0,0.0,0.0,0.0,0.0,0.0,0.0,0.0,0.0,0.0,0.0,0.0,0.0,0.0,0.0,0.0,0.0,0.0,0.0,0.0,0.0,0.0,0.0,0.0,0.0,0.0,0.0,0.0,0.0,0.0,0.0,0.0,0.0,0.0,0.0,0.0,0.0,0.0,0.0,0.0,0.0,0.0,0.0,0.0,0.0,0.0,0.0,0.0,0.0,0.0,0.0,0.0,0.0,0.0,0.0,0.0,0.0,0.0,0.0,0.0,0.0,0.0,0.0,0.0,0.0,0.0,0.0,0.0,0.0,0.0,0.0,0.0,0.0,0.0,0.0,0.0,0.0,0.0,0.0,0.0,0.0,0.0,0.0,0.0,0.0,0.0,0.0,0.0,0.0,0.0,0.0,0.0,0.0,0.0,0.0,0.0,0.0,0.0,0.0,0.0,0.0,0.0,0.0,0.0,0.0,0.0,0.0,0.0,0.0,0.0,0.0,0.0,0.0,0.0,0.0,0.0,0.0,0.0,0.0,0.0,0.0,0.0,0.0,0.0,0.0,0.0,0.0,0.0,0.0,0.0,0.0,0.0,0.0,0.0,0.0,0.0,0.0,0.0,0.0,0.0,0.0,0.0,0.0,0.0,0.0,0.0,0.0,0.0,0.0,0.0,0.0,0.0,0.0,0.0,0.0,0.0,0.0,0.0,0.0,0.0,0.0,0.0,0.0,0.0,0.0,0.0,0.0,0.0,0.0,0.0,0.0,0.0,0.0,0.0,0.0,0.0,0.0,0.0,0.0,0.0,0.0,0.0,0.0,0.0,0.0,0.0,0.0,0.0,0.0,0.0,0.0,0.0,0.0,0.0,0.0,0.0,0.0,0.0,0.0,0.0,0.0,0.0,0.0,0.0,0.0,0.0,0.0,0.0,0.0,0.0,0.0,0.0,0.0,0.0,0.0,0.0,0.0,0.0,0.0,0.0,0.0,0.0,0.0,0.0,0.0,0.0,0.0,0.0,0.0,0.0,0.0,0.0,0.0,0.0,0.0,0.0,0.0,0.0,0.0,0.0,0.0,0.0,0.0,0.0,0.0,0.0,0.0,0.0,0.0,0.0,0.0,0.0,0.0,0.0,0.0,0.0,0.0,0.0,0.0,0.0,0.0,0.0,0.0,0.0,0.0,0.0,0.0,-1.0191,0.0,0.0,0.0,0.0,0.0,0.0,0.0,0.0,0.0,0.0,0.0,0.0,0.0,0.0,0.0,0.0,0.0,0.0,0.0,0.0,0.0,0.0,0.0,0.0,0.0,0.0,0.0,0.0,0.0,0.0,0.0,0.0,0.0,0.0,0.0,0.0,0.0,0.0,0.0,0.0,0.0,0.0,0.0,0.0,0.0,0.0,0.0,0.0,0.0,0.0,0.0,0.0,0.0,0.0,0.0,0.0,0.0,0.0,0.0,0.0,0.0,0.0,0.0,0.0,0.0,0.0,0.0,0.0,0.0,0.0,0.0,0.0,0.0,0.0,0.0,0.0,0.0,0.0,0.0,0.0,0.0,0.0,0.0,0.0,0.0,0.0,0.0,0.0,0.0,0.0,0.0,0.0,0.0,0.0,0.0,0.0,0.0,0.0,0.0,0.0,0.0,0.0,0.0,0.0,0.0,0.0,0.0,0.0,0.0,0.0,-1.0195,-1.0191,-1.019,-1.0197,-1.0197,0.0,0.0,0.0,0.0,0.0,0.0,0.0,0.0,0.0,0.0,0.0,0.0,0.0,0.0,0.0,0.0,0.0,0.0,0.0,0.0,0.0,0.0,0.0,0.0,0.0,0.0,0.0,0.0,0.0,0.0,0.0,0.0,0.0,0.0,0.0,0.0,0.0,0.0,0.0,0.0,0.0,0.0,0.0,0.0,0.0,0.0,0.0,0.0,0.0,0.0,0.0,0.0,0.0,0.0,0.0,0.0,0.0,0.0,0.0,0.0,0.0,0.0,0.0,0.0,0.0,0.0,0.0,0.0,0.0,0.0,0.0,0.0,0.0,0.0,0.0,0.0,0.0,0.0,0.0,0.0,0.0,0.0,0.0,0.0,0.0,0.0,0.0,0.0,0.0,0.0,0.0,0.0,0.0,0.0,0.0,0.0,0.0,0.0,0.0,0.0,0.0,0.0,0.0,0.0,0.0,0.0,0.0,0.0,0.0,0.0,0.0,0.0,-1.052,-1.0504,-1.0523,0.0,0.0,0.0,0.0,0.0,0.0,0.0,0.0,0.0,0.0,0.0,0.0,0.0,0.0,0.0,0.0,0.0,0.0,0.0,0.0,0.0,0.0,0.0,0.0,0.0,0.0,0.0,0.0,0.0,0.0,0.0,0.0,0.0,0.0,0.0,0.0,0.0,0.0,0.0,0.0,0.0,0.0,0.0,0.0,0.0,0.0,0.0,0.0,0.0,0.0,0.0,0.0,0.0,0.0,0.0,0.0,0.0,0.0,0.0,0.0,0.0,0.0,0.0,0.0,0.0,0.0,0.0,0.0,0.0,0.0,0.0,0.0,0.0,0.0,0.0,0.0,0.0,0.0,0.0,0.0,0.0,0.0,0.0,0.0,0.0,0.0,0.0,0.0,0.0,0.0,0.0,0.0,0.0,0.0,0.0,0.0,0.0,0.0,0.0,0.0,0.0,0.0,0.0,0.0,0.0,0.0,0.0,0.0,0.0,0.0,-1.0672,-1.1449,-1.1466,0.0,-1.1479,0.0,0.0,0.0,0.0,0.0,0.0,0.0,0.0,0.0,0.0,0.0,0.0,0.0,0.0,0.0,0.0,0.0,0.0,0.0,0.0,0.0,0.0,0.0,0.0,0.0,0.0,0.0,0.0,0.0,0.0,0.0,0.0,0.0,0.0,0.0,0.0,0.0,0.0,0.0,0.0,0.0,0.0,0.0,0.0,0.0,0.0,0.0,0.0,0.0,0.0,0.0,0.0,0.0,0.0,0.0,0.0,0.0,0.0,0.0,0.0,0.0,0.0,0.0,0.0,0.0,0.0,0.0,0.0,0.0,0.0,0.0,0.0,0.0,0.0,0.0,0.0,0.0,0.0,0.0,0.0,0.0,0.0,0.0,0.0,0.0,0.0,0.0,0.0,0.0,0.0,0.0,0.0,0.0,0.0,0.0,0.0,0.0,0.0,0.0,0.0,0.0,0.0,0.0,0.0,0.0,0.0,0.0,0.0,0.0,0.0,0.0,-1.1592,-1.1588,-1.1605,0.0,0.0,0.0,0.0,0.0,0.0,0.0,0.0,0.0,0.0,0.0,0.0,0.0,0.0,0.0,0.0,0.0,0.0,0.0,0.0,0.0,0.0,0.0,0.0,0.0,0.0,0.0,0.0,0.0,0.0,0.0,0.0,0.0,0.0,0.0,0.0,0.0,0.0,0.0,0.0,0.0,0.0,0.0,0.0,0.0,0.0,0.0,0.0,0.0,0.0,0.0,0.0,0.0,0.0,0.0,0.0,0.0,0.0,0.0,0.0,0.0,0.0,0.0,0.0,0.0,0.0,0.0,0.0,0.0,0.0,0.0,0.0,0.0,0.0,0.0,0.0,0.0,0.0,0.0,0.0,0.0,0.0,0.0,0.0,0.0,0.0,0.0,0.0,0.0,0.0,0.0,0.0,0.0,0.0,0.0,0.0,0.0,0.0,0.0,0.0,0.0,0.0,0.0,0.0,0.0,0.0,0.0,0.0,0.0,0.0,-1.1383,0.0,-1.1911,-1.1924,-1.1842,-1.1605,0.0,0.0,0.0,0.0,0.0,0.0,0.0,0.0,0.0,0.0,0.0,0.0,0.0,0.0,0.0,0.0,0.0,0.0,0.0,0.0,0.0,0.0,0.0,0.0,0.0,0.0,0.0,0.0,0.0,0.0,0.0,0.0,0.0,0.0,0.0,0.0,0.0,0.0,0.0,0.0,0.0,0.0,0.0,0.0,0.0,0.0,0.0,0.0,0.0,0.0,0.0,0.0,0.0,0.0,0.0,0.0,0.0,0.0,0.0,0.0,0.0,0.0,0.0,0.0,0.0,0.0,0.0,0.0,0.0,0.0,0.0,0.0,0.0,0.0,0.0,0.0,0.0,0.0,0.0,0.0,0.0,0.0,0.0,0.0,0.0,0.0,0.0,0.0,0.0,0.0,0.0,0.0,0.0,0.0,0.0,0.0,0.0,0.0,0.0,0.0,0.0,0.0,0.0,0.0,0.0,0.0,0.0,0.0,0.0,-1.1933,-1.1914,-1.2715,-1.273,-1.2371,0.0,0.0,0.0,0.0,0.0,0.0,0.0,0.0,0.0,0.0,0.0,0.0,0.0,0.0,0.0,0.0,0.0,0.0,0.0,0.0,0.0,0.0,0.0,0.0,0.0,0.0,0.0,0.0,0.0,0.0,0.0,0.0,0.0,0.0,0.0,0.0,0.0,0.0,0.0,0.0,0.0,0.0,0.0,0.0,0.0,0.0,0.0,0.0,0.0,0.0,0.0,0.0,0.0,0.0,0.0,0.0,0.0,0.0,0.0,0.0,0.0,0.0,0.0,0.0,0.0,0.0,0.0,0.0,0.0,0.0,0.0,0.0,0.0,0.0,0.0,0.0,0.0,0.0,0.0,0.0,0.0,0.0,0.0,0.0,0.0,0.0,0.0,0.0,0.0,0.0,0.0,0.0,0.0,0.0,0.0,0.0,0.0,0.0,0.0,0.0,0.0,0.0,0.0,0.0,0.0,0.0,0.0,0.0,0.0,-1.1204,-1.1444,-1.2245,-1.3513,-1.2593,-1.2121,0.0,0.0,0.0,0.0,0.0,0.0,0.0,0.0,0.0,0.0,0.0,0.0,0.0,0.0,0.0,0.0,0.0,0.0,0.0,0.0,0.0,0.0,0.0,0.0,0.0,0.0,0.0,0.0,0.0,0.0,0.0,0.0,0.0,0.0,0.0,0.0,0.0,0.0,0.0,0.0,0.0,0.0,0.0,0.0,0.0,0.0,0.0,0.0,0.0,0.0,0.0,0.0,0.0,0.0,0.0,0.0,0.0,0.0,0.0,0.0,0.0,0.0,0.0,0.0,0.0,0.0,0.0,0.0,0.0,0.0,0.0,0.0,0.0,0.0,0.0,0.0,0.0,0.0,0.0,0.0,0.0,0.0,0.0,0.0,0.0,0.0,0.0,0.0,0.0,0.0,0.0,0.0,0.0,0.0,0.0,0.0,0.0,0.0,0.0,0.0,0.0,0.0,0.0,0.0,0.0,0.0,0.0,0.0,0.0,-1.1112,0.0,-1.2832,0.0,-1.2598,-1.1991,0.0,0.0,0.0,0.0,0.0,0.0,0.0,0.0,0.0,0.0,0.0,0.0,0.0,0.0,0.0,0.0,0.0,0.0,0.0,0.0,0.0,0.0,0.0,0.0,0.0,0.0,0.0,0.0,0.0,0.0,0.0,0.0,0.0,0.0,0.0,0.0,0.0,0.0,0.0,0.0,0.0,0.0,0.0,0.0,0.0,0.0,0.0,0.0,0.0,0.0,0.0,0.0,0.0,0.0,0.0,0.0,0.0,0.0,0.0,0.0,0.0,0.0,0.0,0.0,0.0,0.0,0.0,0.0,0.0,0.0,0.0,0.0,0.0,0.0,0.0,0.0,0.0,0.0,0.0,0.0,0.0,0.0,0.0,0.0,0.0,0.0,0.0,0.0,0.0,0.0,0.0,0.0,0.0,0.0,0.0,0.0,0.0,0.0,0.0,0.0,0.0,0.0,0.0,0.0,0.0,0.0,0.0,0.0,-1.1113,-1.2689,-1.3533,-1.3572,-1.2862,-1.2745,-1.1971,0.0,0.0,0.0,0.0,0.0,0.0,0.0,0.0,0.0,0.0,0.0,0.0,0.0,0.0,0.0,0.0,0.0,0.0,0.0,0.0,0.0,0.0,0.0,0.0,0.0,0.0,0.0,0.0,0.0,0.0,0.0,0.0,0.0,0.0,0.0,0.0,0.0,0.0,0.0,0.0,0.0,0.0,0.0,0.0,0.0,0.0,0.0,0.0,0.0,0.0,0.0,0.0,0.0,0.0,0.0,0.0,0.0,0.0,0.0,0.0,0.0,0.0,0.0,0.0,0.0,0.0,0.0,0.0,0.0,0.0,0.0,0.0,0.0,0.0,0.0,0.0,0.0,0.0,0.0,0.0,0.0,0.0,0.0,0.0,0.0,0.0,0.0,0.0,0.0,0.0,0.0,0.0,0.0,0.0,0.0,0.0,0.0,0.0,0.0,0.0,0.0,0.0,0.0,0.0,0.0,0.0,0.0,0.0,0.0,-1.1971,-1.2225,-1.2811,-1.3592,-1.199,-1.138,0.0,0.0,0.0,0.0,0.0,0.0,0.0,0.0,0.0,0.0,0.0,0.0,0.0,0.0,0.0,0.0,0.0,0.0,0.0,0.0,0.0,0.0,0.0,0.0,0.0,0.0,0.0,0.0,0.0,0.0,0.0,0.0,0.0,0.0,0.0,0.0,0.0,0.0,0.0,0.0,0.0,0.0,0.0,0.0,0.0,0.0,0.0,0.0,0.0,0.0,0.0,0.0,0.0,0.0,0.0,0.0,0.0,0.0,0.0,0.0,0.0,0.0,0.0,0.0,0.0,0.0,0.0,0.0,0.0,0.0,0.0,0.0,0.0,0.0,0.0,0.0,0.0,0.0,0.0,0.0,0.0,0.0,0.0,0.0,0.0,0.0,0.0,0.0,0.0,0.0,0.0,0.0,0.0,0.0,0.0,0.0,0.0,0.0,0.0,0.0,0.0,0.0,0.0,0.0,0.0,0.0,0.0,0.0,0.0,-1.3064,-1.3649,-1.4333,-1.5057,-1.3202,-1.2217,-1.2277,0.0,0.0,0.0,0.0,0.0,0.0,0.0,0.0,0.0,0.0,0.0,0.0,0.0,0.0,0.0,0.0,0.0,0.0,0.0,0.0,0.0,0.0,0.0,0.0,0.0,0.0,0.0,0.0,0.0,0.0,0.0,0.0,0.0,0.0,0.0,0.0,0.0,0.0,0.0,0.0,0.0,0.0,0.0,0.0,0.0,0.0,0.0,0.0,0.0,0.0,0.0,0.0,0.0,0.0,0.0,0.0,0.0,0.0,0.0,0.0,0.0,0.0,0.0,0.0,0.0,0.0,0.0,0.0,0.0,0.0,0.0,0.0,0.0,0.0,0.0,0.0,0.0,0.0,0.0,0.0,0.0,0.0,0.0,0.0,0.0,0.0,0.0,0.0,0.0,0.0,0.0,0.0,0.0,0.0,0.0,0.0,0.0,0.0,0.0,0.0,0.0,0.0,0.0,0.0,0.0,0.0,0.0,0.0,-1.5559,-1.7337,-1.7827,-1.6948,-1.5856,-1.4193,0.0,0.0,0.0,0.0,0.0,0.0,0.0,0.0,0.0,0.0,0.0,0.0,0.0,0.0,0.0,0.0,0.0,0.0,0.0,0.0,0.0,0.0,0.0,0.0,0.0,0.0,0.0,0.0,0.0,0.0,0.0,0.0,0.0,0.0,0.0,0.0,0.0,0.0,0.0,0.0,0.0,0.0,0.0,0.0,0.0,0.0,0.0,0.0,0.0,0.0,0.0,0.0,0.0,0.0,0.0,0.0,0.0,0.0,0.0,0.0,0.0,0.0,0.0,0.0,0.0,0.0,0.0,0.0,0.0,0.0,0.0,0.0,0.0,0.0,0.0,0.0,0.0,0.0,0.0,0.0,0.0,0.0,0.0,0.0,0.0,0.0,0.0,0.0,0.0,0.0,0.0,0.0,0.0,0.0,0.0,0.0,0.0,0.0,0.0,0.0,0.0,0.0,0.0,0.0,0.0,0.0,0.0,0.0,0.0,-1.7358,-2.0233,-2.1073,-1.9565,-1.6244,-1.4426,0.0,0.0,0.0,0.0,0.0,0.0,0.0,0.0,0.0,0.0,0.0,0.0,0.0,0.0,0.0,0.0,0.0,0.0,0.0,0.0,0.0,0.0,0.0,0.0,0.0,0.0,0.0,0.0,0.0,0.0,0.0,0.0,0.0,0.0,0.0,0.0,0.0,0.0,0.0,0.0,0.0,0.0,0.0,0.0,0.0,0.0,0.0,0.0,0.0,0.0,0.0,0.0,0.0,0.0,0.0,0.0,0.0,0.0,0.0,0.0,0.0,0.0,0.0,0.0,0.0,0.0,0.0,0.0,0.0,0.0,0.0,0.0,0.0,0.0,0.0,0.0,0.0,0.0,0.0,0.0,0.0,0.0,0.0,0.0,0.0,0.0,0.0,0.0,0.0,0.0,0.0,0.0,0.0,0.0,0.0,0.0,0.0,0.0,0.0,0.0,0.0,0.0,0.0,0.0,0.0,0.0,0.0,0.0,-1.7168,-1.8555,-2.2246,-2.373,-2.2754,-1.8906,-1.6367,0.0,0.0,0.0,0.0,0.0,0.0,0.0,0.0,0.0,0.0,0.0,0.0,0.0,0.0,0.0,0.0,0.0,0.0,0.0,0.0,0.0,0.0,0.0,0.0,0.0,0.0,0.0,0.0,0.0,0.0,0.0,0.0,0.0,0.0,0.0,0.0,0.0,0.0,0.0,0.0,0.0,0.0,0.0,0.0,0.0,0.0,0.0,0.0,0.0,0.0,0.0,0.0,0.0,0.0,0.0,0.0,0.0,0.0,0.0,0.0,0.0,0.0,0.0,0.0,0.0,0.0,0.0,0.0,0.0,0.0,0.0,0.0,0.0,0.0,0.0,0.0,0.0,0.0,0.0,0.0,0.0,0.0,0.0,0.0,0.0,0.0,0.0,0.0,0.0,0.0,0.0,0.0,0.0,0.0,0.0,0.0,0.0,0.0,0.0,0.0,0.0,0.0,0.0,0.0,0.0,0.0,0.0,0.0,-1.8494,-1.9605,-2.3589,-2.5699,-2.56,-2.2296,-1.8962,0.0,0.0,0.0,0.0,0.0,0.0,0.0,0.0,0.0,0.0,0.0,0.0,0.0,0.0,0.0,0.0,0.0,0.0,0.0,0.0,0.0,0.0,0.0,0.0,0.0,0.0,0.0,0.0,0.0,0.0,0.0,0.0,0.0,0.0,0.0,0.0,0.0,0.0,0.0,0.0,0.0,0.0,0.0,0.0,0.0,0.0,0.0,0.0,0.0,0.0,0.0,0.0,0.0,0.0,0.0,0.0,0.0,0.0,0.0,0.0,0.0,0.0,0.0,0.0,0.0,0.0,0.0,0.0,0.0,0.0,0.0,0.0,0.0,0.0,0.0,0.0,0.0,0.0,0.0,0.0,0.0,0.0,0.0,0.0,0.0,0.0,0.0,0.0,0.0,0.0,0.0,0.0,0.0,0.0,0.0,0.0,0.0,0.0,0.0,0.0,0.0,0.0,0.0,0.0,0.0,0.0,0.0,0.0,-1.9095,-2.1333,-2.4206,-2.5689,-2.5683,-2.1723,-1.8921,0.0,0.0,0.0,0.0,0.0,0.0,0.0,0.0,0.0,0.0,0.0,0.0,0.0,0.0,0.0,0.0,0.0,0.0,0.0,0.0,0.0,0.0,0.0,0.0,0.0,0.0,0.0,0.0,0.0,0.0,0.0,0.0,0.0,0.0,0.0,0.0,0.0,0.0,0.0,0.0,0.0,0.0,0.0,0.0,0.0,0.0,0.0,0.0,-1.1594,0.0,0.0,0.0,0.0,0.0,0.0,0.0,0.0,0.0,0.0,0.0,0.0,0.0,0.0,0.0,0.0,0.0,0.0,0.0,0.0,0.0,0.0,0.0,0.0,0.0,0.0,0.0,0.0,0.0,0.0,0.0,0.0,0.0,0.0,0.0,0.0,0.0,0.0,0.0,0.0,0.0,0.0,0.0,0.0,0.0,0.0,0.0,0.0,0.0,0.0,0.0,0.0,0.0,0.0,0.0,0.0,0.0,0.0,0.0,-1.9867,-2.2403,-2.4588,-2.5698,-2.5579,-2.271,-2.0105,0.0,0.0,0.0,0.0,0.0,0.0,0.0,0.0,0.0,0.0,0.0,0.0,0.0,0.0,0.0,0.0,0.0,0.0,0.0,0.0,0.0,0.0,0.0,0.0,0.0,0.0,0.0,0.0,0.0,0.0,0.0,0.0,0.0,0.0,0.0,0.0,0.0,0.0,0.0,0.0,0.0,0.0,0.0,0.0,0.0,0.0,0.0,0.0,0.0,0.0,0.0,0.0,0.0,0.0,0.0,0.0,0.0,0.0,0.0,0.0,0.0,0.0,0.0,0.0,0.0,0.0,0.0,0.0,0.0,0.0,0.0,0.0,0.0,0.0,0.0,0.0,0.0,0.0,0.0,0.0,0.0,0.0,0.0,0.0,0.0,0.0,0.0,0.0,0.0,0.0,0.0,0.0,0.0,0.0,0.0,0.0,0.0,0.0,0.0,0.0,0.0,0.0,0.0,0.0,0.0,0.0,0.0,-1.8046,-2.0543,-2.3393,-2.4932,-2.5693,-2.5657,-2.4007,-2.1479,-1.8121,0.0,0.0,0.0,0.0,0.0,0.0,0.0,0.0,0.0,0.0,0.0,0.0,0.0,0.0,0.0,0.0,0.0,0.0,0.0,0.0,0.0,0.0,0.0,0.0,0.0,0.0,0.0,0.0,0.0,0.0,0.0,0.0,0.0,0.0,0.0,0.0,0.0,0.0,-0.9606,-1.0221,0.0,0.0,0.0,0.0,0.0,0.0,0.0,0.0,-1.1548,0.0,0.0,0.0,0.0,0.0,0.0,0.0,0.0,0.0,0.0,0.0,0.0,0.0,0.0,0.0,0.0,0.0,0.0,0.0,0.0,0.0,0.0,0.0,0.0,0.0,0.0,0.0,0.0,0.0,0.0,0.0,0.0,0.0,0.0,0.0,0.0,0.0,0.0,0.0,0.0,0.0,0.0,0.0,0.0,0.0,0.0,0.0,0.0,0.0,0.0,0.0,0.0,0.0,0.0,0.0,0.0,-1.8574,-1.8381,-2.0488,-2.5144,-2.5554,-2.5707,-2.5658,-2.4011,-2.1469,-1.81,0.0,0.0,0.0,0.0,0.0,0.0,0.0,0.0,0.0,0.0,0.0,0.0,0.0,0.0,0.0,0.0,0.0,0.0,0.0,0.0,0.0,0.0,0.0,0.0,0.0,0.0,0.0,0.0,0.0,0.0,0.0,0.0,0.0,0.0,0.0,0.0,0.0,0.0,0.0,-1.2133,-1.2612,0.0,0.0,0.0,0.0,0.0,0.0,0.0,0.0,-1.2583,0.0,0.0,0.0,0.0,0.0,0.0,0.0,0.0,0.0,0.0,0.0,0.0,0.0,0.0,0.0,0.0,0.0,0.0,0.0,0.0,0.0,0.0,0.0,0.0,0.0,0.0,0.0,0.0,0.0,0.0,0.0,0.0,0.0,0.0,0.0,0.0,0.0,0.0,0.0,0.0,0.0,0.0,0.0,0.0,0.0,0.0,0.0,0.0,0.0,0.0,0.0,0.0,0.0,0.0,0.0,-1.8475,-1.9961,-2.228,-2.552,-2.5687,-2.5691,-2.5617,-2.3544,-2.101,0.0,0.0,0.0,0.0,0.0,0.0,0.0,0.0,0.0,0.0,0.0,0.0,0.0,0.0,0.0,0.0,0.0,0.0,0.0,0.0,0.0,0.0,0.0,0.0,0.0,0.0,0.0,0.0,0.0,0.0,0.0,0.0,0.0,0.0,0.0,0.0,0.0,0.0,0.0,0.0,-1.3799,-1.4723,-1.6008,0.0,0.0,0.0,0.0,0.0,0.0,-1.4041,-1.3278,0.0,0.0,0.0,0.0,0.0,0.0,0.0,0.0,0.0,0.0,0.0,0.0,0.0,0.0,0.0,0.0,0.0,0.0,0.0,0.0,0.0,0.0,0.0,0.0,0.0,0.0,0.0,0.0,0.0,0.0,0.0,0.0,0.0,0.0,0.0,0.0,0.0,0.0,0.0,0.0,0.0,0.0,0.0,0.0,0.0,0.0,0.0,0.0,0.0,0.0,0.0,0.0,0.0,0.0,0.0,-1.8025,-2.1195,-2.3743,-2.5517,-2.5668,-2.5658,-2.5561,-2.2963,-2.0373,0.0,0.0,0.0,0.0,0.0,0.0,0.0,0.0,0.0,0.0,0.0,0.0,0.0,0.0,0.0,0.0,0.0,0.0,0.0,0.0,0.0,0.0,0.0,0.0,0.0,0.0,0.0,0.0,0.0,0.0,0.0,0.0,0.0,0.0,0.0,0.0,0.0,0.0,0.0,0.0,0.0,-1.649,-1.8353,-1.7024,0.0,0.0,0.0,0.0,-1.5409,-1.5195,0.0,0.0,0.0,0.0,0.0,0.0,0.0,0.0,0.0,0.0,0.0,0.0,0.0,0.0,0.0,0.0,0.0,0.0,0.0,0.0,0.0,0.0,0.0,0.0,0.0,0.0,0.0,0.0,0.0,0.0,0.0,0.0,0.0,0.0,0.0,0.0,0.0,0.0,0.0,0.0,0.0,0.0,0.0,0.0,0.0,0.0,0.0,0.0,0.0,0.0,0.0,0.0,0.0,0.0,0.0,0.0,-1.7987,-2.0618,-2.3124,-2.5459,-2.5602,-2.5615,-2.5565,-2.2323,-1.9727,0.0,0.0,0.0,0.0,0.0,0.0,0.0,0.0,0.0,0.0,0.0,0.0,0.0,0.0,0.0,0.0,0.0,0.0,0.0,0.0,0.0,0.0,0.0,0.0,0.0,0.0,0.0,0.0,0.0,0.0,0.0,0.0,0.0,0.0,0.0,0.0,0.0,0.0,0.0,0.0,0.0,-1.668,-1.9122,-1.6787,-1.5538,0.0,0.0,-1.8225,-1.9847,-2.0281,0.0,0.0,0.0,0.0,0.0,0.0,0.0,0.0,0.0,0.0,0.0,0.0,0.0,0.0,0.0,0.0,0.0,0.0,0.0,0.0,0.0,0.0,0.0,0.0,0.0,0.0,0.0,0.0,0.0,0.0,0.0,0.0,0.0,0.0,0.0,0.0,0.0,0.0,0.0,0.0,0.0,0.0,0.0,0.0,0.0,0.0,0.0,0.0,0.0,0.0,0.0,0.0,0.0,0.0,0.0,-1.6872,-1.8081,-2.1977,-2.4553,-2.5604,-2.5648,-2.5671,-2.5651,-2.1851,-1.9214,0.0,0.0,0.0,0.0,0.0,0.0,0.0,0.0,0.0,0.0,0.0,0.0,0.0,0.0,0.0,0.0,0.0,0.0,0.0,0.0,0.0,0.0,0.0,0.0,0.0,0.0,0.0,0.0,0.0,0.0,0.0,0.0,0.0,0.0,0.0,0.0,0.0,0.0,0.0,0.0,0.0,0.0,-2.0217,-1.944,0.0,0.0,0.0,-1.9872,-1.9194,0.0,0.0,0.0,0.0,0.0,0.0,0.0,0.0,0.0,0.0,0.0,0.0,0.0,0.0,0.0,0.0,0.0,0.0,0.0,0.0,0.0,0.0,0.0,0.0,0.0,0.0,0.0,0.0,0.0,0.0,0.0,0.0,0.0,0.0,0.0,0.0,0.0,0.0,0.0,0.0,0.0,0.0,0.0,0.0,0.0,0.0,0.0,0.0,0.0,0.0,0.0,0.0,0.0,0.0,0.0,0.0,0.0,-1.8102,-2.3081,-2.5687,-2.5699,-2.5702,-2.5659,-2.5607,-2.2131,0.0,0.0,0.0,0.0,0.0,0.0,0.0,0.0,0.0,0.0,0.0,0.0,0.0,0.0,0.0,0.0,0.0,0.0,0.0,0.0,0.0,0.0,0.0,0.0,0.0,0.0,0.0,-0.5946,0.0,0.0,0.0,0.0,0.0,0.0,0.0,0.0,0.0,0.0,0.0,0.0,0.0,0.0,-2.0818,-2.1533,-2.1816,-2.2141,0.0,0.0,-2.1277,-1.9976,-2.1721,-2.1837,0.0,0.0,0.0,0.0,0.0,0.0,0.0,0.0,0.0,0.0,0.0,0.0,0.0,0.0,0.0,0.0,0.0,0.0,0.0,0.0,0.0,0.0,0.0,0.0,0.0,0.0,0.0,0.0,0.0,0.0,0.0,0.0,0.0,0.0,0.0,0.0,0.0,0.0,0.0,0.0,0.0,0.0,0.0,0.0,0.0,0.0,0.0,0.0,0.0,0.0,0.0,0.0,0.0,0.0,0.0,-1.8163,-2.3068,-2.5696,-2.5699,-2.5643,-2.5609,-2.557,-2.3766,-2.1244,0.0,0.0,0.0,0.0,0.0,0.0,0.0,0.0,0.0,0.0,0.0,0.0,0.0,0.0,0.0,0.0,0.0,0.0,0.0,0.0,0.0,0.0,0.0,0.0,0.0,0.0,0.0,0.0,0.0,0.0,0.0,0.0,0.0,0.0,0.0,0.0,0.0,0.0,0.0,0.0,0.0,-2.1253,-2.3102,-2.2683,-2.356,0.0,0.0,-2.2833,-2.5088,-2.562,-2.4315,-1.9797,0.0,0.0,0.0,0.0,0.0,0.0,0.0,0.0,0.0,0.0,0.0,0.0,0.0,0.0,0.0,0.0,0.0,0.0,0.0,0.0,0.0,0.0,0.0,0.0,0.0,0.0,0.0,0.0,0.0,0.0,0.0,0.0,0.0,0.0,0.0,0.0,0.0,0.0,0.0,0.0,0.0,0.0,0.0,0.0,0.0,0.0,0.0,0.0,0.0,0.0,0.0,0.0,0.0,-1.8004,-1.807,-2.309,-2.5703,-2.5693,-2.5665,-2.5671,-2.567,-2.398,-2.1464,0.0,0.0,0.0,0.0,0.0,0.0,0.0,0.0,0.0,0.0,0.0,0.0,0.0,0.0,0.0,0.0,0.0,0.0,0.0,0.0,0.0,0.0,0.0,0.0,0.0,0.0,0.0,0.0,-1.2678,-1.3206,-1.2314,0.0,0.0,0.0,0.0,0.0,0.0,0.0,0.0,0.0,0.0,-2.3352,-2.5659,-2.5955,0.0,0.0,-2.7264,-2.6012,-2.5247,-2.5635,-2.4483,-1.9934,-1.8168,0.0,0.0,0.0,0.0,0.0,0.0,0.0,0.0,0.0,0.0,0.0,0.0,0.0,0.0,0.0,0.0,0.0,0.0,0.0,0.0,0.0,0.0,0.0,0.0,0.0,0.0,0.0,0.0,0.0,0.0,0.0,0.0,0.0,0.0,0.0,0.0,0.0,0.0,0.0,0.0,0.0,0.0,0.0,0.0,0.0,0.0,0.0,0.0,0.0,0.0,0.0,0.0,-1.8003,-1.8033,-2.3068,-2.5705,-2.5689,-2.5705,-2.5691,-2.5662,-2.4512,-2.2379,0.0,0.0,0.0,0.0,0.0,0.0,0.0,0.0,0.0,0.0,0.0,0.0,0.0,0.0,0.0,0.0,0.0,0.0,0.0,0.0,0.0,0.0,0.0,0.0,0.0,0.0,0.0,0.0,-1.3666,-1.3813,-1.254,0.0,0.0,0.0,0.0,0.0,0.0,0.0,0.0,0.0,0.0,-2.5479,-2.7258,-2.7777,-2.809,-2.8522,-2.7558,-2.6292,-2.4731,-2.4846,-2.3853,-2.02,0.0,0.0,0.0,0.0,0.0,0.0,0.0,0.0,0.0,0.0,0.0,0.0,0.0,0.0,0.0,0.0,0.0,0.0,0.0,0.0,0.0,0.0,0.0,0.0,0.0,0.0,0.0,0.5521,0.0,0.0,0.5943,0.0,0.0,0.0,0.0,0.0,0.0,0.0,0.0,0.0,0.0,0.0,0.0,0.0,0.0,0.0,0.0,0.0,0.0,0.0,0.0,0.0,0.0,-1.7999,-1.8072,-2.3081,-2.5701,-2.5693,-2.5693,-2.5698,-2.5703,-2.5638,-2.4395,-2.1725,0.0,0.0,0.0,0.0,0.0,0.0,0.0,0.0,0.0,0.0,0.0,0.0,0.0,0.0,0.0,0.0,0.0,0.0,0.0,0.0,0.0,0.0,0.0,0.0,0.0,0.0,-0.8644,-1.1059,-1.282,0.0,0.0,0.0,0.0,0.0,0.0,0.0,0.0,0.0,0.0,-2.4324,-2.7362,-2.7565,-2.7332,-2.7489,-2.826,-2.4895,-2.2674,-2.42,-2.3649,-2.2534,0.0,0.0,0.0,0.0,0.0,0.0,0.0,0.0,0.0,0.0,0.0,0.0,0.0,0.0,0.0,0.0,0.0,0.0,0.0,0.0,0.0,0.0,0.0,0.0,0.0,0.0,0.0,0.8253,0.7756,0.0,0.0,0.0,0.0,0.0,0.0,0.0,0.0,0.0,0.0,0.0,0.5823,0.3541,0.0,0.0,0.0,0.0,0.0,0.0,0.0,0.0,0.0,0.0,0.0,0.0,-1.8281,-1.9042,-2.3376,-2.57,-2.5702,-2.5701,-2.5703,-2.5702,-2.5672,-2.4372,-2.1736,0.0,0.0,0.0,0.0,0.0,0.0,0.0,0.0,0.0,0.0,0.0,0.0,0.0,0.0,0.0,0.0,0.0,0.0,0.0,0.0,0.0,0.0,0.0,0.0,0.0,-1.2025,0.0,0.0,0.0,0.0,0.0,0.0,0.0,0.0,0.0,0.0,0.0,-2.0022,-2.2447,-2.4677,-2.6472,-2.7574,-2.8062,-2.8755,0.0,0.0,0.0,0.0,0.0,0.0,0.0,0.0,0.0,0.0,0.0,0.0,0.0,0.0,-2.0945,-1.6064,-1.5522,-1.597,-1.639,0.0,0.0,0.0,0.0,0.0,0.0,0.0,0.0,0.0,0.0,0.0,0.0,0.0,0.0,1.0995,0.0,1.0049,0.0,0.0,0.0,0.0,0.0,0.0,0.0,0.0,0.8663,0.8931,0.9152,0.6357,0.2887,0.0,-0.7061,-1.0354,0.0,0.0,0.0,0.0,0.0,0.0,0.0,0.0,-1.8708,-1.9452,-2.3535,-2.5703,-2.5703,-2.5664,-2.5681,-2.5687,-2.5623,-2.473,-2.3018,-1.9948,-1.76,0.0,0.0,0.0,0.0,0.0,0.0,0.0,0.0,0.0,0.0,0.0,0.0,0.0,0.0,0.0,0.0,0.0,0.0,0.0,0.0,0.0,0.0,0.0,-1.3196,0.0,0.0,0.0,0.0,0.0,0.0,0.0,0.0,0.0,-1.9859,-2.1064,-2.2683,-2.506,-2.6346,-2.7145,-2.7346,0.0,0.0,0.0,0.0,0.0,0.0,0.0,-2.3448,-2.2874,-2.3035,-2.3633,-2.4822,-2.6096,-2.6599,-2.5472,0.0,0.0,-2.0302,-1.9634,-2.0023,-2.0433,-2.0484,-2.0763,-2.1718,-2.2135,-2.2457,0.0,0.0,0.0,0.0,0.0,0.0,0.0,0.0,1.3738,1.4264,0.0,1.3391,0.0,0.0,0.0,0.0,0.0,1.0916,0.0,0.0,1.1624,1.1432,1.1265,0.5923,0.3313,0.3021,-0.9057,-1.3501,-1.0878,-1.5551,0.0,0.0,0.0,0.0,0.0,0.0,-1.9293,-1.9579,-2.3594,-2.5702,-2.5702,-2.564,-2.5634,-2.5695,-2.5543,-2.5473,-2.5388,-2.2994,-2.1205,-2.0097,-1.54,0.0,0.0,0.0,0.0,0.0,0.0,0.0,0.0,0.0,0.0,0.0,0.0,0.0,0.0,0.0,0.0,0.0,0.0,0.0,0.0,-1.326,0.0,0.0,0.0,0.0,0.0,0.0,0.0,0.0,0.0,0.0,-2.2476,-2.3417,-2.4966,-2.7419,0.0,0.0,0.0,0.0,-2.7356,-2.4461,-2.2998,-2.2371,-2.2461,-2.375,-2.5058,-2.5835,0.0,0.0,-2.9397,-2.8632,-2.7674,-2.5838,-2.7531,-2.8531,-2.6899,-2.5046,-2.3961,-2.3979,-2.3973,-2.3847,-2.3949,-2.4824,-2.5232,2.1174,0.0,0.0,0.0,0.0,1.7203,1.7559,1.8279,1.8881,1.8626,1.7782,1.7412,0.0,0.0,0.0,0.0,0.0,0.0,1.4689,1.5314,1.4873,1.4914,1.5321,1.2924,0.966,0.5267,-0.523,-0.9282,-0.7954,-2.0184,-2.2852,-1.6074,0.0,0.0,0.0,0.0,-2.0675,-2.2006,-2.4385,-2.5642,-2.5642,-2.5609,-2.5571,-2.5557,-2.5434,-2.5339,-2.5264,-2.4479,-2.3053,-2.0982,-1.9404,0.0,0.0,0.0,0.0,0.0,0.0,0.0,0.0,0.0,0.0,0.0,0.0,0.0,0.0,0.0,0.0,0.0,0.0,0.0,-1.3241,-1.4751,-1.5135,0.0,0.0,0.0,0.0,0.0,0.0,0.0,0.0,0.0,-2.5217,-2.5225,-2.5336,0.0,0.0,-2.5676,-2.4979,-2.6182,-2.7218,-2.7435,-2.7163,0.0,-2.8471,-2.7458,-2.6874,-2.7761,-2.9626,-3.0867,-3.0531,-3.111,-3.1433,-3.0725,-3.114,-3.1326,-3.0775,-2.9269,-2.8273,-2.8558,-2.8697,-2.8835,-2.9334,-2.9679,-2.973,2.6207,2.2698,2.1943,2.1481,2.1276,2.1051,2.1383,2.2108,2.2519,2.235,2.1807,2.1166,2.0247,1.911,1.742,0.0,0.0,0.0,1.7959,1.9227,1.8355,1.8565,1.944,1.7788,1.5,1.1069,0.1642,-0.279,-0.2648,-1.4655,-1.7993,-1.3206,0.0,0.0,-1.8697,-2.0491,-2.1925,-2.3029,-2.4712,-2.5601,-2.5595,-2.5576,-2.5518,-2.544,-2.5385,-2.5313,-2.5168,-2.5141,-2.4357,-2.2733,-2.1588,-1.9362,0.0,0.0,0.0,0.0,0.0,0.0,0.0,0.0,0.0,0.0,0.0,-0.8617,-0.6736,0.0,0.0,0.0,-1.2979,-1.5749,-1.6152,-1.6951,0.0,0.0,0.0,0.0,0.0,0.0,0.0,-1.9036,-2.2639,-2.5442,-2.6359,-2.6821,-2.7263,-2.7814,-2.7435,-2.6857,-2.619,0.0,-2.8629,-2.8966,-2.9049,-2.9361,-3.0204,-2.9624,-2.9363,-3.0446,-3.1338,-3.1964,-3.1981,-3.2613,-3.3024,-3.2905,-3.274,-3.2539,-3.2336,-3.1462,-3.082,-3.1149,-3.1163,-3.1282,-3.1731,-3.18,-3.1763,2.9591,2.9333,2.6826,2.5518,2.5032,2.4545,2.4811,2.5579,2.5207,2.5616,2.6436,2.4743,2.4617,2.5559,2.2733,0.0,2.2134,2.0908,2.1488,2.3458,2.1959,2.2116,2.3472,2.0795,1.9445,1.916,0.9758,0.4889,0.3854,-0.3061,-0.6499,-0.7057,-1.8592,-2.335,-2.1317,-2.1971,-2.2724,-2.3318,-2.4822,-2.5606,-2.5596,-2.553,-2.5423,-2.5313,-2.5406,-2.5341,-2.5084,-2.5201,-2.5138,-2.4826,-2.2571,-2.2028,-2.326,0.0,0.0,0.0,0.0,0.0,0.0,0.0,0.0,0.0,0.0,0.0,0.0,0.0,0.0,0.0,-1.5839,0.0,-2.0881,-1.9704,0.0,0.0,0.0,-1.8781,-2.1983,-2.3075,-2.3427,-2.3024,0.0,0.0,-2.6668,-2.8296,-3.0148,-3.1621,-3.1523,-3.0765,-2.9242,-3.0281,-3.0882,-2.9472,-2.9503,-2.9603,-2.9844,-3.0779,-3.1967,-3.3012,-3.3491,-3.339,-3.3332,-3.322,-3.3104,-3.2948,-3.2737,-3.2539,-3.2249,-3.2144,-3.2144,-3.2002,-3.1858,-3.1765,-3.1783,-3.18,-3.1746,3.1406,3.0824,3.0374,2.9785,2.9174,2.905,2.8742,2.843,2.93,2.8855,2.7507,2.764,2.6868,2.5401,2.5241,2.5275,2.539,2.5236,2.5509,2.5907,2.4418,2.3873,2.4226,2.3122,2.2323,2.1156,1.2181,1.0371,1.4538,0.0634,-0.4252,-0.0811,-1.204,-1.7427,-1.6465,-1.7219,-2.0362,-2.5771,-2.5628,-2.5525,-2.5511,-2.5456,-2.5387,-2.5302,-2.522,-2.5118,-2.4966,-2.4884,-2.4813,-2.4749,-2.411,-2.1389,-1.6224,-1.3013,0.0,0.0,0.0,0.0,0.0,0.0,0.0,0.0,0.0,-1.1836,-0.885,0.0,-1.4497,0.0,-1.6035,-2.127,-2.2332,-2.278,0.0,0.0,-2.2204,-2.2892,-2.5702,-2.6578,-2.6544,-2.5482,-2.8203,-3.0133,-3.0007,-3.0752,-3.1886,-3.3305,-3.1372,-2.958,-2.9248,-3.0489,-3.1352,-3.109,-3.19,-3.2684,-3.257,-3.291,-3.3258,-3.3597,-3.3605,-3.3549,-3.3481,-3.3452,-3.3316,-3.3086,-3.293,-3.2722,-3.2405,-3.2267,-3.2196,-3.2143,-3.2001,-3.1856,-3.1837,-3.18,-3.1746,3.1835,3.1406,3.1187,3.0834,3.0462,3.0519,3.0227,2.9852,3.049,3.002,2.8883,2.9682,2.9269,2.8033,2.8182,2.8265,2.82,2.7657,2.7583,2.7811,2.6887,2.6633,2.6847,2.5889,2.5108,2.4268,1.8444,1.7093,1.9114,0.9791,0.6147,0.8257,0.1372,-0.318,-0.5578,-1.5043,-2.2066,-2.6013,-2.6028,-2.5963,-2.5955,-2.5942,-2.5544,-2.4713,-2.461,-2.3398,-2.1,-2.0862,-2.0629,-2.0199,-1.8878,-1.6772,-1.3782,-1.0196,-0.5159,0.0,0.0,0.0,0.0,0.0,0.0,0.0,0.0,0.0,0.0,0.0,-1.7783,-1.3679,-2.1064,-2.5404,-2.3768,-2.4709,-2.5633,-2.6153,-2.6107,-2.708,-2.9773,-3.0263,-3.0295,-2.9981,-3.1403,-3.2514,-3.2656,-3.287,-3.3332,-3.4157,-3.2632,-3.145,-3.1418,-3.2101,-3.2594,-3.2631,-3.3382,-3.4015,-3.3983,-3.386,-3.3726,-3.3698,-3.3671,-3.3605,-3.352,-3.3509,-3.3404,-3.3147,-3.3024,-3.2898,-3.2674,-3.2574,-3.2489,-3.2318,-3.2249,-3.2091,-3.1965,-3.191,-3.1802,3.1597,3.1633,3.0726,3.0411,3.0466,3.0541,3.0432,3.0189,3.0016,2.9963,3.0009,3.0782,3.1155,3.1167,3.0672,3.043,3.0262,2.8975,2.8672,2.9181,2.9008,2.924,2.9692,2.8321,2.7464,2.6981,2.5435,2.3504,2.1358,2.0385,1.8818,1.6709,1.514,1.1791,0.6172,-1.2484,-2.3259,-2.5563,-2.6449,-2.6752,-2.6466,-2.5765,-2.4568,-2.2904,-2.23,-1.983,-1.5274,-1.5118,-1.4758,-1.3855,-1.1318,-1.0544,-1.1893,-0.5954,-0.1932,0.0,0.2796,0.0,0.0,0.0,0.0,0.0,0.0,0.0,0.0,-1.8795,-2.0225,-2.1247,-2.7474,-2.977,-2.5764,-2.661,-2.8155,-2.9889,-3.0093,-3.1046,-3.3334,-3.3552,-3.3749,-3.4526,-3.4558,-3.448,-3.4433,-3.4517,-3.445,-3.4325,-3.4176,-3.3913,-3.4,-3.3901,-3.3876,-3.3921,-3.4107,-3.416,-3.4104,-3.3939,-3.3807,-3.378,-3.378,-3.3726,-3.3643,-3.3615,-3.3549,-3.3268,-3.316,-3.3086,-3.293,-3.2916,-3.282,-3.259,-3.2557,-3.2422,-3.2144,-3.1984,-3.193,3.1563,3.2148,3.1128,3.0956,3.1355,3.1486,3.0604,2.9113,2.9174,2.9233,2.9332,3.0021,3.0417,3.0549,3.0294,3.0171,3.0145,2.9868,2.9794,2.9889,2.9401,2.9126,2.906,2.8288,2.8118,2.834,2.6438,2.5727,2.6166,2.4061,2.2173,2.0373,1.472,1.0476,0.7345,0.0,0.0,0.0,-2.7961,-2.7711,-2.6213,-2.1403,-1.8302,-1.7135,-1.3763,0.0,-1.0403,-1.0574,-1.0517,-1.0082,-0.9488,0.0,0.0,0.0,0.0,0.0,0.0,0.0,0.0,0.0,0.0,0.0,-0.3943,-1.0616,-1.7959,-2.0425,-2.238,-2.4503,-2.8849,-3.1175,-3.0207,-3.1127,-3.1991,-3.2486,-3.3187,-3.389,-3.4485,-3.4421,-3.4433,-3.4564,-3.4583,-3.4583,-3.4583,-3.4539,-3.4517,-3.4461,-3.4367,-3.4293,-3.4245,-3.4136,-3.4068,-3.4074,-3.4046,-3.3968,-3.3887,-3.386,-3.3868,-3.4049,-3.4099,-3.4099,-3.408,-3.4124,-3.3998,-3.3625,-3.3455,-3.3262,-3.3117,-3.2961,-3.2916,-3.2838,-3.282,-3.269,-3.2214,-3.2073,-3.202,3.3351,3.3391,3.2826,3.2591,0.0,3.2699,3.1961,3.0722,3.0891,3.0759,3.0419,3.0392,3.0453,3.0513,3.0049,2.9807,2.973,2.9233,2.9236,2.9571,2.9186,2.9201,2.9466,2.9139,2.9003,2.9009,2.7903,2.7589,2.7897,2.6269,2.5051,2.4327,2.0442,1.7971,1.6672,0.8267,-0.2468,-1.532,-1.5915,-1.6297,-1.6421,-1.3262,-1.1458,-1.1276,-0.8963,0.0,0.0,0.0,0.0,0.0,0.0,0.0,0.0,0.0,0.0,0.9813,0.945,0.9156,0.925,0.9038,0.5766,-0.1569,-1.1593,-1.9042,-2.2745,-2.3868,-2.5579,-2.8319,-3.1096,-3.2507,-3.2114,-3.2827,-3.3414,-3.3692,-3.4003,-3.4293,-3.4495,-3.4495,-3.445,-3.4454,-3.4539,-3.4602,-3.4602,-3.458,-3.4539,-3.4502,-3.4439,-3.4348,-3.4298,-3.4208,-3.4136,-3.4093,-3.4005,-3.3921,-3.3887,-3.386,-3.3868,-3.3991,-3.3998,-3.3998,-3.3998,-3.3998,-3.3895,-3.3643,-3.353,-3.3415,-3.3286,-3.3196,-3.3104,-3.3042,-3.2993,-3.2898,-3.2539,-3.2387,-3.2249,3.5304,3.4843,3.4568,3.4295,3.3979,3.4017,3.3842,3.3497,0.0,0.0,0.0,3.1356,3.1111,3.1097,3.0351,2.9949,2.9822,2.887,2.8754,2.9385,2.9389,2.9727,3.04,3.0465,3.02,2.9593,2.942,2.9111,2.8636,2.7705,2.7396,2.7625,2.6726,2.6211,2.5576,1.7309,0.934,0.244,-0.1468,-0.4213,-0.5837,-0.4498,-0.4104,-0.4829,-0.3532,-0.1137,0.241,0.2633,0.3116,0.4209,0.6789,0.7555,0.6079,0.8571,1.0372,1.0976,1.1086,1.1055,1.1034,1.089,0.5458,-0.6896,-1.8373,-2.5737,-2.738,-2.7718,-2.891,-3.1696,-3.3099,-3.3584,-3.2992,-3.3421,-3.3852,-3.4117,-3.3965,-3.3947,-3.4221,-3.4269,-3.4269,-3.4269,-3.4427,-3.4542,-3.4526,-3.4583,-3.4583,-3.4539,-3.4502,-3.4439,-3.4335,-3.424,-3.4179,-3.4099,-3.4037,-3.3998,-3.3921,-3.3868,-3.3868,-3.3921,-3.3921,-3.3842,-3.3815,-3.3815,-3.3734,-3.3643,-3.3577,-3.352,-3.3452,-3.3538,-3.3478,-3.3214,-3.3399,-3.3458,-3.3033,-3.2912,-3.2733,3.5677,3.6222,3.5182,3.4995,3.5387,3.5409,3.5899,3.6426,3.4013,3.288,3.2834,3.2733,3.275,3.2805,3.196,3.1613,3.167,3.0795,3.0449,3.0599,3.124,3.1554,3.16,3.2193,3.2003,3.1104,3.0563,3.0122,2.9696,2.8673,2.867,2.9399,2.7739,2.6634,2.633,2.5072,2.3799,2.225,0.4986,-0.3866,-0.3449,0.1783,0.4248,0.3686,0.7494,0.8975,0.7569,0.7699,0.7674,0.743,0.8559,0.9563,1.0444,1.1696,1.2764,1.3449,1.3146,1.2806,1.2567,1.2085,0.5712,-0.772,-1.1557,-1.783,-2.9465,-3.0946,-3.1566,-3.2674,-3.3486,-3.391,-3.3755,-3.3821,-3.3923,-3.4023,-3.4002,-3.4023,-3.4124,-3.4124,-3.4099,-3.4067,-3.424,-3.4348,-3.4349,-3.4486,-3.4583,-3.4561,-3.4476,-3.4469,-3.4386,-3.4296,-3.4179,-3.4099,-3.4087,-3.4049,-3.3998,-3.3887,-3.3947,-3.4216,-3.4148,-3.4124,-3.4173,-3.4197,-3.4099,-3.3868,-3.378,-3.3707,-3.3575,-3.4002,-3.4033,-3.3677,-3.4352,-3.4772,-3.3535,-3.3584,-3.3684,3.7107,3.71,3.6956,3.7146,3.7567,3.7845,3.825,3.8548,3.6944,3.5691,3.4879,3.4475,3.4071,3.3622,3.2856,3.2297,3.187,3.0546,3.0193,3.0641,3.106,3.1484,3.1955,3.2747,3.2876,3.2427,3.2122,3.1873,3.1628,3.0594,3.0345,3.0814,2.9793,2.9302,2.9265,2.8576,2.8192,2.7961,1.6752,1.041,0.9585,1.1722,1.2024,1.0139,1.2626,1.3157,1.1586,1.1709,1.1846,1.1856,1.2196,1.2831,1.3787,1.4469,1.4873,1.4996,1.4954,1.4601,1.3835,1.0029,0.4927,-0.1937,-1.0153,-1.7648,-2.463,-3.0116,-3.3167,-3.334,-3.3817,-3.403,-3.3928,-3.3905,-3.3915,-3.3862,-3.3852,-3.3834,-3.3913,-3.3947,-3.3972,-3.3921,-3.4074,-3.4179,-3.4115,-3.4226,-3.4267,-3.426,-3.4293,-3.4358,-3.4423,-3.4358,-3.4269,-3.424,-3.4191,-3.4124,-3.4074,-3.3998,-3.3998,-3.4074,-3.403,-3.4049,-3.4074,-3.4074,-3.3998,-3.3842,-3.3771,-3.3899,-3.4087,-3.4418,-3.4516,-3.4655,-3.5074,-3.5187,-3.4544,-3.4634,-3.4336,3.834,3.7826,3.8432,3.884,3.9045,3.9526,3.9762,3.9772,3.9355,3.8479,3.7328,3.6349,3.556,3.4904,3.4147,3.3382,3.2496,3.1033,3.0603,3.104,3.1331,3.185,3.2572,3.3457,3.3781,3.3587,3.3517,3.34,3.3129,3.2299,3.1857,3.1821,3.1916,3.2039,3.2077,3.0949,3.0353,3.0095,2.6666,2.3675,2.1498,2.0282,1.8433,1.5994,1.5919,1.5485,1.4454,1.443,1.4602,1.4831,1.4945,1.5269,1.5832,1.6298,1.6407,1.61,1.6434,1.6209,1.4874,0.9969,0.5925,0.3677,-0.6783,-1.4474,-1.7652,-2.7482,-3.3762,-3.366,-3.3913,-3.4062,-3.3906,-3.3895,-3.387,-3.3834,-3.3753,-3.3744,-3.3698,-3.3807,-3.3815,-3.378,-3.3921,-3.4005,-3.3968,-3.3966,-3.4018,-3.4037,-3.4092,-3.4232,-3.4345,-3.4315,-3.4264,-3.4234,-3.421,-3.4191,-3.4124,-3.4099,-3.4042,-3.3913,-3.386,-3.3762,-3.368,-3.3652,-3.3698,-3.3661,-3.3872,-3.4182,-3.4702,-3.5162,-3.532,-3.5457,-3.5991,-3.6244,-3.5708,-3.5305,-3.4876,3.8652,3.8597,3.867,3.8707,3.878,3.9073,3.9324,3.9556,3.9731,3.9887,3.9642,3.8226,3.7488,3.7429,3.6618,3.5809,3.5071,3.4164,3.3341,3.2899,3.3643,3.4056,3.4082,3.5116,3.521,3.4485,3.4393,3.4059,3.3448,3.3161,3.2918,3.2793,3.3345,3.3553,3.3393,3.3235,3.3168,3.3141,3.0167,2.7549,2.5452,2.4027,2.2501,2.0788,1.94,1.7562,1.5545,1.5039,1.4717,1.4139,1.4955,1.5504,1.5902,1.6655,1.7147,1.7102,1.7527,1.7482,1.6589,1.518,1.1241,0.4713,0.2763,-0.1342,-0.8067,-2.2888,-3.2645,-3.2445,-3.3223,-3.3862,-3.3747,-3.3799,-3.3815,-3.3788,-3.3762,-3.378,-3.3698,-3.3698,-3.3671,-3.3615,-3.3753,-3.3815,-3.3823,-3.3876,-3.3988,-3.3952,-3.4105,-3.4154,-3.4232,-3.4296,-3.4238,-3.4134,-3.4136,-3.4228,-3.4167,-3.4124,-3.3991,-3.378,-3.3689,-3.3559,-3.3397,-3.3426,-3.3473,-3.352,-3.4014,-3.4548,-3.5111,-3.586,-3.6503,-3.6107,-3.6736,-3.7682,-3.6913,-3.5966,-3.4923,3.8719,3.8707,3.875,3.8719,3.8719,3.896,3.9183,3.9298,3.9532,3.9826,3.9981,3.9297,3.8842,3.8527,3.8183,3.7568,3.6715,3.5426,3.4635,3.4282,3.426,3.4265,3.4412,3.5308,3.5612,3.535,3.5324,3.5156,3.4799,3.43,3.3692,3.3199,3.3847,3.4164,3.4016,3.394,3.3864,3.3728,3.1971,3.0443,2.9074,2.6454,2.4464,2.3284,2.2669,2.1714,2.0229,2.0127,1.962,1.8429,1.8905,1.8865,1.8219,1.8769,1.8943,1.8725,1.8544,1.8436,1.8333,1.7961,1.6334,1.2956,0.8353,0.4033,0.0448,-1.0498,-1.7298,-1.8727,-2.6904,-3.3112,-3.3021,-3.3377,-3.3386,-3.3322,-3.3404,-3.3494,-3.3465,-3.3625,-3.3726,-3.3671,-3.3698,-3.3698,-3.3643,-3.3634,-3.3689,-3.387,-3.4202,-3.4557,-3.4696,-3.5061,-3.5367,-3.5349,-3.5395,-3.4897,-3.4226,-3.3834,-3.3789,-3.3744,-3.3671,-3.3587,-3.3651,-3.3625,-3.3652,-3.3408,-3.3826,-3.4401,-3.4993,-3.5379,-3.589,-3.6078,-3.6557,-3.7232,-3.7113,-3.6628,-3.5858,3.875,3.8689,3.875,3.875,3.8738,3.8892,3.9036,3.9129,3.9324,3.9551,3.9785,3.9851,3.9675,3.93,3.9318,3.8877,3.796,3.6795,3.5974,3.557,3.5009,3.4706,3.4657,3.5309,3.5733,3.5774,3.5825,3.5879,3.5819,3.5291,3.4574,3.4107,3.4528,3.4786,3.4657,3.4506,3.4357,3.4202,3.324,3.2503,3.1725,2.9172,2.6913,2.548,2.4911,2.4347,2.3507,2.3496,2.2951,2.1747,2.2034,2.1696,2.0643,2.0809,2.0795,2.0405,1.9815,1.9609,1.9843,1.9698,1.9522,1.8851,1.3538,1.0214,0.8675,0.376,-0.0655,-0.3767,-1.2496,-1.9169,-2.9021,-2.9532,-3.0346,-3.2323,-3.3078,-3.3147,-3.3172,-3.339,-3.3494,-3.3465,-3.3379,-3.3437,-3.3415,-3.3556,-3.375,-3.4027,-3.4666,-3.5192,-3.533,-3.5688,-3.5957,-3.5983,-3.5864,-3.5423,-3.4462,-3.44,-3.4272,-3.4066,-3.4109,-3.3869,-3.397,-3.3894,-3.3759,-3.3396,-3.3494,-3.3979,-3.4945,-3.5259,-3.5395,-3.6085,-3.6429,-3.6405,-3.6589,-3.6596,-3.6186,3.8707,3.8707,3.8707,3.8689,3.8707,3.8738,3.8862,3.9082,3.911,3.9272,3.9556,3.9785,3.9876,3.9842,4.0043,3.9756,3.8992,3.8744,3.7846,3.6585,3.6408,3.5987,3.52,3.5526,3.5623,3.5507,3.5737,3.5875,3.5876,3.5778,3.5737,3.5656,3.558,3.559,3.5474,3.5265,3.5196,3.4939,3.406,3.3521,3.3369,3.2491,3.0465,2.7716,2.5756,2.4699,2.408,2.3482,2.3065,2.2671,2.2936,2.2777,2.2417,2.2361,2.2304,2.2088,2.1543,2.1126,2.0974,2.0534,2.0106,1.9987,1.9287,1.9329,1.8331,1.6233,1.2484,0.7099,1.0456,0.4257,-1.5593,-1.9987,-2.3919,-3.0914,-3.234,-3.215,-3.2781,-3.2809,-3.2858,-3.2858,-3.2916,-3.306,-3.3178,-3.3759,-3.4235,-3.4641,-3.5273,-3.5752,-3.5692,-3.5493,-3.5434,-3.5332,-3.519,-3.4942,-3.5757,-3.5302,-3.52,-3.4997,-3.4303,-3.41,-3.3898,-3.3758,-3.3562,-3.3525,-3.3881,-3.4359,-3.5084,-3.5486,-3.5596,-3.5805,-3.5633,-3.5676,-3.5572,-3.5357,-3.5031,3.8792,3.878,3.8762,3.875,3.8707,3.875,3.8902,3.9082,3.9109,3.9377,3.9769,3.9807,3.9956,4.0215,4.0139,4.0024,3.9776,3.9279,3.8667,3.7999,3.7037,3.638,3.6117,3.5713,3.5496,3.5489,3.5588,3.5693,3.5786,3.5823,3.5857,3.5858,3.5819,3.5798,3.5708,3.5482,3.533,3.5196,3.468,3.4229,3.3839,3.3508,3.221,2.9978,2.9081,2.8227,2.7394,2.7248,2.6708,2.557,2.5704,2.5137,2.3876,2.3561,2.3441,2.3393,2.3173,2.2849,2.2433,2.2163,2.1604,2.0869,2.0933,2.0858,2.0462,2.0117,1.8754,1.7151,1.8103,1.2527,0.1529,-0.7406,-1.4676,-2.1865,-2.3881,-2.6037,-3.0392,-3.2108,-3.2411,-3.2502,-3.294,-3.344,-3.3555,-3.4184,-3.4693,-3.4872,-3.5403,-3.5776,-3.5936,-3.604,-3.6101,-3.6224,-3.6148,-3.6171,-3.6505,-3.5492,-3.4818,-3.4748,-3.4464,-3.4429,-3.4321,-3.4125,-3.3934,-3.3308,-3.3713,-3.3928,-3.4312,-3.4644,-3.4947,-3.4898,-3.4728,-3.4427,-3.4315,-3.4105,-3.3906,3.8881,3.8851,3.8803,3.881,3.878,3.8822,3.8931,3.9054,3.9136,3.9402,3.9705,3.9766,3.9958,4.0177,4.0139,4.0158,4.0253,3.9679,3.9278,3.8916,3.7827,3.7056,3.6527,3.6017,3.5638,3.5463,3.547,3.5579,3.5702,3.5841,3.5896,3.59,3.5887,3.5855,3.5769,3.5597,3.5454,3.5353,3.5127,3.4737,3.4346,3.4261,3.3486,3.2119,3.1794,3.0951,2.9332,2.9335,2.8883,2.7829,2.7727,2.7175,2.5835,2.5537,2.5205,2.4799,2.473,2.4315,2.3551,2.3386,2.3002,2.2151,2.2237,2.2089,2.1631,2.1667,2.1616,2.153,2.1569,1.8763,1.3175,0.6304,-0.202,-1.1572,-1.4601,-1.8172,-2.5628,-2.7232,-2.8967,-3.1408,-3.2496,-3.3051,-3.3547,-3.4191,-3.4584,-3.4788,-3.5394,-3.5806,-3.5854,-3.6006,-3.6222,-3.6163,-3.5822,-3.5685,-3.548,-3.4465,-3.411,-3.4094,-3.4619,-3.4666,-3.4086,-3.4017,-3.3584,-3.3128,-3.3052,-3.3161,-3.3383,-3.3728,-3.3811,-3.3774,-3.355,-3.3255,-3.3061,-3.2933,-3.2834,3.891,3.891,3.891,3.891,3.8881,3.891,3.891,3.9007,3.9192,3.9357,3.9556,3.9747,3.9901,4.0002,4.0177,4.0291,4.0291,4.0211,3.9811,3.9145,3.8897,3.8037,3.6774,3.6546,3.6006,3.5289,3.5405,3.5593,3.5708,3.5833,3.5889,3.588,3.5888,3.586,3.5801,3.5715,3.5651,3.5551,3.5322,3.5187,3.5157,3.4963,3.4417,3.3563,3.3431,3.2143,2.9448,2.9438,2.9358,2.884,2.8794,2.8685,2.8199,2.8134,2.7701,2.6541,2.6294,2.5574,2.4328,2.4168,2.4213,2.3774,2.4092,2.4034,2.3728,2.3339,2.298,2.2895,2.2967,2.214,2.0931,1.9208,1.2254,-0.1924,-0.5677,-0.9281,-1.5847,-1.8253,-2.1503,-2.7862,-2.9087,-3.1207,-3.2225,-3.0448,-3.0177,-3.2004,-3.1945,-3.2139,-3.1973,-3.128,-3.2943,-3.2609,-2.9484,-2.6868,-3.017,-3.3353,-3.3414,-3.3556,-3.4353,-3.4678,-3.3223,-3.2673,-3.1491,-3.1027,-3.1918,-3.2091,-3.2364,-3.2635,-3.2431,-3.2353,-3.2145,-3.1498,-3.1612,-3.1483,-3.1852,3.8921,3.891,3.8968,3.8939,3.891,3.895,3.9064,3.9237,3.9324,3.9561,3.9878,3.9859,3.9984,4.025,4.027,4.0289,4.0435,4.0413,4.0227,3.9832,3.9298,3.8744,3.8075,3.7039,3.6112,3.5479,3.5534,3.5657,3.5708,3.5799,3.5838,3.5845,3.584,3.5844,3.5861,3.5776,3.5695,3.5671,3.5533,3.5454,3.5412,3.5339,3.4831,3.3957,3.382,3.2983,3.1491,3.1396,3.1151,3.0597,3.036,2.9831,2.9009,2.8592,2.8261,2.7911,2.7799,2.7305,2.6242,2.5937,2.5534,2.4827,2.484,2.4684,2.4381,2.4279,2.4195,2.4137,2.4394,2.4323,2.3878,2.331,1.7419,0.5849,0.4301,0.1013,-0.63,-0.8025,-1.1086,-1.6515,-1.4952,-1.4335,-1.6953,-1.7012,-1.7828,-2.2519,-1.9342,-1.7007,-2.1907,-1.9179,-1.3729,-1.3255,-1.3055,-1.5532,-1.7183,-1.8377,-1.8561,-2.1664,-2.5236,-2.7471,-2.7508,-2.6633,-2.6256,-2.6549,-2.7868,-2.8547,-2.9234,-2.8911,-2.7117,-2.8497,-2.7673,-2.8158,-2.9462,-2.827,-2.5708,3.9007,3.8979,3.9007,3.9007,3.8979,3.9036,3.9129,3.9298,3.9464,3.9702,3.9899,4.0041,4.0158,4.0321,4.0286,4.0342,4.0449,4.0449,4.0435,4.027,3.9812,3.9353,3.8875,3.734,3.6339,3.5902,3.5755,3.5707,3.5707,3.5784,3.5791,3.5791,3.5791,3.5838,3.5894,3.5796,3.5721,3.5685,3.5632,3.556,3.5509,3.5507,3.5114,3.4405,3.4277,3.3846,3.314,3.3069,3.262,3.1881,3.1462,3.0853,3.0009,2.9901,2.9825,2.974,2.9475,2.8939,2.7867,2.7508,2.7054,2.614,2.5915,2.5835,2.5481,2.5536,2.5577,2.5577,2.5631,2.5645,2.5245,2.467,2.1207,1.5911,1.4227,1.0319,0.35,-0.0815,-0.5544,-1.0051,-0.7617,-0.4736,-0.366,-0.599,-0.588,-1.1058,-0.8034,-0.4555,-1.0144,-0.7846,-0.4204,-0.2488,-0.4907,-0.5485,-0.3299,-0.3082,-0.2881,-0.7734,-1.3208,-1.5205,-1.6299,-1.4351,-1.323,-1.3493,-1.445,-1.3541,-1.4016,-1.4956,-1.4524,-1.7856,-1.965,-1.6128,-1.3647,-1.4676,-1.3017,3.9101,3.9129,3.9101,3.9101,3.9101,3.9101,3.9129,3.9219,3.9566,3.9702,3.9766,4.0177,4.0306,4.0214,4.0323,4.0413,4.0415,4.0413,4.0413,4.0396,4.0208,3.9827,3.8963,3.7686,3.6998,3.667,3.6145,3.5853,3.5941,3.5842,3.5791,3.5791,3.5807,3.5845,3.5899,3.5849,3.5777,3.571,3.5655,3.5579,3.5522,3.5488,3.5285,3.487,3.4793,3.4529,3.4093,3.3943,3.3431,3.2348,3.2022,3.1716,3.1568,3.1968,3.1862,3.1681,3.1339,3.0423,2.941,2.8865,2.8358,2.7807,2.7455,2.7174,2.699,2.7012,2.6997,2.6709,2.6657,2.6433,2.5969,2.5658,2.4846,2.484,2.2222,1.7931,1.1684,0.5152,0.1064,-0.4204,-0.341,0.2113,0.8043,0.4323,0.1203,-0.1089,0.0,0.1833,0.0291,0.1398,0.0764,0.2536,0.5839,0.7075,1.0087,1.0528,1.0737,0.9128,0.2865,-0.1038,-0.563,-0.5061,-0.1422,-0.1483,-0.2091,-0.0557,-0.1104,-0.3744,-0.3978,-0.4816,-0.3405,0.107,0.034,-0.2784,-0.3335,3.9219,3.9357,3.9183,3.9101,3.9101,3.9101,3.9219,3.9401,3.9532,3.9769,4.0001,4.0177,4.0341,4.0389,4.0425,4.0476,4.0476,4.0476,4.0476,4.0476,4.0447,3.995,3.9311,3.8811,3.826,3.775,3.7064,3.6744,3.6666,3.6132,3.5829,3.5799,3.5833,3.5872,3.588,3.5871,3.584,3.5793,3.5763,3.5703,3.5611,3.5444,3.523,3.4988,3.4813,3.4542,3.4221,3.403,3.3634,3.2818,3.2298,3.1897,3.1642,3.1933,3.2283,3.2385,3.2161,3.1522,3.0723,3.0344,2.9858,2.8979,2.8903,2.8654,2.772,2.7966,2.7883,2.7585,2.7434,2.747,2.7555,2.747,2.7446,2.7375,2.6048,2.4203,2.2246,2.132,1.8868,1.6901,1.8201,2.0282,2.115,2.0461,1.6658,1.257,1.4072,1.7031,1.3025,1.4818,1.6307,2.0151,2.2942,2.2817,2.3318,2.3799,2.4262,2.4807,2.0338,1.4488,0.7395,0.0902,0.5682,0.9296,0.7032,0.7453,0.4879,0.2098,0.3833,0.8254,0.7275,0.8521,0.5813,0.3131,0.4097,3.921,3.9324,3.9183,3.9101,3.911,3.9219,3.9279,3.9383,3.9679,3.9791,3.9941,4.012,4.025,4.0356,4.0372,4.0422,4.0489,4.0489,4.0489,4.0489,4.0479,4.0178,3.9733,3.9499,3.9077,3.8694,3.7948,3.7423,3.7072,3.6556,3.6187,3.5873,3.5859,3.588,3.5888,3.5882,3.5879,3.5848,3.583,3.5805,3.564,3.5527,3.532,3.5108,3.4926,3.4732,3.4502,3.4298,3.3917,3.3439,3.2978,3.2583,3.2196,3.258,3.289,3.3024,3.2957,3.2563,3.1899,3.1576,3.107,3.0369,3.021,2.9636,2.9085,2.9087,2.9042,2.8857,2.867,2.8686,2.8889,2.8983,2.9218,2.9507,2.8951,2.8394,2.8207,2.79,2.8,2.7762,2.8394,3.0015,3.0778,3.0363,2.7226,2.3891,2.5076,2.5087,2.365,2.8201,3.0497,3.0925,3.0999,2.9103,2.8523,2.902,2.9167,3.0567,3.0038,2.5454,2.0366,1.144,1.6048,2.0024,1.7132,1.5103,1.435,1.506,1.9328,2.1281,1.8044,1.7003,1.6646,1.3894,1.4377,3.9129,3.9156,3.9101,3.911,3.9192,3.9401,3.9427,3.9389,3.9838,3.9941,3.9813,4.0041,4.0177,4.0233,4.0269,4.0321,4.0489,4.0489,4.0489,4.0508,4.0495,4.0386,4.0255,3.9822,3.9612,3.9449,3.88,3.8073,3.7486,3.7175,3.6584,3.6025,3.5872,3.588,3.5893,3.5896,3.5925,3.5899,3.589,3.5814,3.566,3.5549,3.54,3.5228,3.5086,3.4982,3.4831,3.4649,3.4363,3.3998,3.3834,3.3426,3.3099,3.3634,3.385,3.3625,3.3634,3.3372,3.2854,3.2329,3.2022,3.1519,3.0892,3.0492,3.0369,3.0311,3.0342,3.0405,3.0162,3.0217,3.0451,3.0392,3.0879,3.1565,3.1911,3.1502,3.0524,3.0063,2.9755,2.9136,2.9775,3.1142,3.1982,3.1769,3.0338,2.8601,3.0563,2.9968,2.9163,3.0921,3.24,3.2858,3.2734,3.2478,3.2635,3.3224,3.3269,3.368,3.373,3.1725,3.1518,2.7497,3.025,3.0948,2.6326,2.6693,2.9798,3.2017,3.3204,3.2788,2.8558,3.1573,3.4409,2.9556,2.7948,3.92,3.9383,3.9192,3.9219,3.9401,3.9483,3.9656,3.9901,3.9901,4.0042,4.0157,4.0023,4.0101,4.0406,4.0286,4.0304,4.0508,4.0489,4.0489,4.0489,4.0489,4.0492,4.0485,4.0326,4.0432,4.0315,3.9793,3.9013,3.8273,3.7467,3.6708,3.6034,3.5904,3.5887,3.5901,3.5956,3.5965,3.5929,3.5947,3.5869,3.5713,3.5563,3.5415,3.5273,3.51,3.4963,3.4889,3.471,3.4561,3.4409,3.4197,3.3876,3.3652,3.3831,3.4141,3.4325,3.3986,3.3616,3.3171,3.2849,3.255,3.2247,3.2022,3.17,3.137,3.1367,3.1526,3.1788,3.1856,3.207,3.253,3.3044,3.3185,3.3461,3.3999,3.4263,3.3844,3.2855,3.2083,3.1946,3.1886,3.2367,3.3175,3.2841,3.25,3.3019,3.3251,3.3492,3.3609,3.3777,3.4053,3.4412,3.435,3.4088,3.4306,3.4918,3.5251,3.5674,3.5959,3.6394,3.6281,3.6191,3.6165,3.5754,3.4489,3.6139,3.7343,3.7273,3.6149,3.7332,3.8059,3.8008,3.7907,3.7842,3.7809,3.9494,3.9614,3.9489,3.9494,3.9656,3.9769,3.9835,3.9899,3.9963,4.0062,4.0101,3.9882,4.0082,4.0454,4.0304,4.0304,4.0457,4.0489,4.0489,4.0489,4.0504,4.0534,4.0596,4.068,4.077,4.0752,4.0488,3.9848,3.9031,3.8148,3.7331,3.6456,3.6126,3.5901,3.5893,3.5972,3.5988,3.5974,3.5962,3.5923,3.5807,3.5698,3.5553,3.5442,3.5297,3.5212,3.5174,3.5001,3.4908,3.4832,3.4674,3.4416,3.4154,3.4184,3.4502,3.4693,3.4498,3.4037,3.3697,3.3533,3.3393,3.3171,3.3033,3.2796,3.2677,3.2722,3.2913,3.316,3.3438,3.3868,3.412,3.415,3.4425,3.4901,3.5416,3.5812,3.5752,3.4795,3.3937,3.3802,3.3515,3.3866,3.4066,3.3832,3.4002,3.4347,3.4502,3.47,3.4931,3.5069,3.5323,3.5594,3.5701,3.5744,3.5758,3.6103,3.6611,3.7097,3.7648,3.8339,3.8769,3.8712,3.865,3.8204,3.7811,3.8192,3.913,3.9003,3.8802,3.8832,3.8968,3.9137,3.9156,3.8997,3.8923,3.9797,3.9797,3.9797,3.9819,3.9901,4.0081,4.0002,3.9791,4.0041,4.012,3.9943,3.9842,4.0062,4.0372,4.0286,4.0341,4.0457,4.0489,4.0489,4.0489,4.0489,4.0579,4.0681,4.0729,4.0781,4.0746,4.0799,4.0412,3.9645,3.8952,3.8038,3.715,3.6469,3.6105,3.5973,3.5955,3.5962,3.5952,3.5957,3.5916,3.5864,3.5846,3.5772,3.5611,3.5554,3.5495,3.5416,3.527,3.5155,3.5184,3.5119,3.4945,3.4752,3.473,3.4752,3.4926,3.4713,3.4461,3.4242,3.4165,3.4117,3.4179,3.3906,3.3813,3.389,3.396,3.4226,3.4808,3.5274,3.5651,3.5347,3.5335,3.5444,3.5762,3.6288,3.6711,3.6812,3.6146,3.5693,3.5203,3.4951,3.5065,3.5245,3.5185,3.5421,3.565,3.5773,3.595,3.6155,3.6405,3.6597,3.6759,3.6876,3.7037,3.7095,3.735,3.783,3.8267,3.8964,3.9834,4.0659,4.0731,4.0598,4.0812,4.0728,4.0825,4.0715,4.0641,4.04,4.0027,4.017,4.065,4.0498,4.0141,4.0203,3.9797,3.9797,3.9797,3.9922,4.012,4.0196,4.0232,4.0321,4.0195,4.0286,4.0302,4.0003,4.0082,4.0356,4.0286,4.0321,4.0473,4.0489,4.0489,4.0504,4.0519,4.0607,4.0699,4.0781,4.082,4.0898,4.0961,4.0599,4.0031,3.9558,3.8689,3.7443,3.6927,3.6582,3.6134,3.5918,3.5898,3.5888,3.5911,3.5874,3.5819,3.5852,3.584,3.5687,3.564,3.5596,3.5526,3.5326,3.519,3.5171,3.5015,3.4962,3.498,3.5086,3.5171,3.5119,3.4889,3.4675,3.4574,3.4367,3.4269,3.4208,3.4234,3.4544,3.4735,3.4707,3.5403,3.6666,3.7404,3.7749,3.7569,3.7005,3.6867,3.6907,3.7061,3.7453,3.7381,3.7381,3.7292,3.6784,3.6423,3.6088,3.626,3.6419,3.6531,3.665,3.6784,3.7031,3.7326,3.756,3.7826,3.7964,3.808,3.8218,3.8358,3.8664,3.9007,3.9276,3.9926,4.0839,4.157,4.2216,4.2463,4.2648,4.2496,4.2223,4.218,4.2193,4.2048,4.1705,4.1953,4.224,4.1928,4.1613,4.1888,4.0157,4.0176,4.0157,4.023,4.0319,4.0356,4.0339,4.0321,4.0251,4.027,4.0269,4.012,4.0176,4.0406,4.0406,4.0406,4.0473,4.0489,4.0489,4.0504,4.0579,4.0649,4.0759,4.0857,4.0935,4.0998,4.1035,4.0898,4.0393,3.9953,3.9298,3.8525,3.7678,3.6928,3.6532,3.6124,3.5971,3.5917,3.5917,3.5909,3.586,3.5919,3.5869,3.5737,3.5669,3.562,3.5528,3.5468,3.535,3.5326,3.5262,3.5277,3.534,3.5383,3.5416,3.5281,3.5049,3.4851,3.4832,3.4637,3.4574,3.4626,3.4902,3.5375,3.5882,3.6269,3.6999,3.8126,3.8366,3.845,3.8196,3.7905,3.7578,3.7542,3.7773,3.7962,3.8136,3.8462,3.842,3.8218,3.776,3.7453,3.7386,3.75,3.7569,3.7678,3.7802,3.8027,3.8363,3.8621,3.8842,3.911,3.9246,3.9562,3.9771,4.0155,4.0369,4.0583,4.0971,4.1858,4.2696,4.341,4.4045,4.4427,4.4157,4.3618,4.3503,4.3478,4.3387,4.3303,4.3163,4.3095,4.3111,4.3179,4.337,4.0489,4.0489,4.0489,4.0489,4.0489,4.0489,4.0406,4.0286,4.0269,4.0269,4.0269,4.025,4.0339,4.0473,4.0489,4.0489,4.0489,4.0489,4.0519,4.0559,4.0642,4.0746,4.0857,4.0948,4.1017,4.1074,4.1085,4.109,4.0842,4.0415,4.0012,3.9318,3.8185,3.7552,3.7362,3.6941,3.6467,3.6364,3.6191,3.6169,3.6038,3.6007,3.5923,3.5753,3.571,3.5631,3.554,3.5488,3.5488,3.5463,3.5489,3.5547,3.5628,3.562,3.554,3.5388,3.5219,3.5089,3.4963,3.4908,3.4907,3.5209,3.5798,3.6253,3.7029,3.7913,3.8968,3.9363,3.916,3.8775,3.8707,3.8423,3.8322,3.8482,3.8678,3.8899,3.9375,3.9666,3.9771,3.9466,3.9026,3.8733,3.8551,3.846,3.8485,3.8479,3.8599,3.8596,3.8924,3.9398,3.9686,4.0117,4.0434,4.0858,4.1245,4.1754,4.1918,4.205,4.2437,4.3062,4.3912,4.4723,4.5134,4.5309,4.5409,4.4935,4.4853,4.4708,4.4621,4.4432,4.4101,4.4063,4.4365,4.4433,4.4472,4.0489,4.0489,4.0489,4.0489,4.0489,4.0489,4.0489,4.0457,4.0457,4.0473,4.0441,4.0457,4.0473,4.0489,4.0489,4.0489,4.0489,4.0504,4.053,4.0615,4.0681,4.0779,4.0933,4.0961,4.1022,4.1078,4.1108,4.1117,4.1037,4.0855,4.0435,3.9779,3.9466,3.9038,3.8272,3.7901,3.8151,3.799,3.7401,3.6755,3.6272,3.6186,3.6126,3.602,3.5935,3.5911,3.5925,3.59,3.5811,3.572,3.5631,3.556,3.5528,3.5598,3.5628,3.5579,3.5427,3.5215,3.5185,3.5134,3.542,3.5913,3.633,3.705,3.8074,3.8944,3.9662,3.9813,3.9754,3.965,3.9626,3.9941,3.9984,4.015,4.0399,4.0821,4.1226,4.0697,4.0788,4.0707,4.0283,3.9825,3.9518,3.9427,3.9363,3.9377,3.9388,3.9406,3.9714,4.0282,4.0814,4.1273,4.1762,4.2187,4.2659,4.3175,4.3453,4.3536,4.3857,4.4239,4.4793,4.5356,4.5376,4.5561,4.5783,4.5911,4.5618,4.5529,4.5677,4.5501,4.5102,4.536,4.5812,4.576,4.5448,4.1393,4.0489,4.0489,4.0489,4.0489,4.0489,4.0489,4.0489,4.0489,4.0489,4.0489,4.0489,4.0489,4.0489,4.0489,4.0489,4.0489,4.0489,4.0519,4.0621,4.0668,4.0734,4.083,4.0926,4.1017,4.1033,4.1078,4.1108,4.1094,4.1046,4.0769,4.0448,3.9999,3.956,3.9116,3.863,3.8454,3.8341,3.8144,3.7841,3.7558,3.7435,3.7383,3.7297,3.7209,3.7113,3.7055,3.7094,3.7082,3.7082,3.7084,3.6493,3.61,3.6402,3.7093,3.6999,3.6901,3.6565,3.6061,3.5831,3.6234,3.6901,3.7452,3.8327,3.9296,3.9688,3.9889,3.9889,4.0514,4.0658,4.0604,4.1067,4.1203,4.1405,4.1804,4.195,4.2146,4.1957,4.1699,4.1616,4.1494,4.1011,4.0545,4.0338,4.0205,4.0038,4.0195,4.0421,4.0938,4.1724,4.2192,4.2633,4.3118,4.3587,4.4059,4.4549,4.489,4.5016,4.5122,4.5443,4.5527,4.58,4.5793,4.583,4.6011,4.6081,4.6108,4.6002,4.5865,4.5947,4.6069,4.6104,4.6143,4.6162,4.5945,4.2508,4.1143,4.0912,4.07,4.0489,4.0489,4.0489,4.0489,4.0489,4.0489,4.0489,4.0489,4.0489,4.0489,4.0489,4.0489,4.0489,4.0489,4.0519,4.0574,4.0642,4.0699,4.077,4.0882,4.0954,4.0994,4.1052,4.1074,4.1108,4.1085,4.1046,4.1006,4.0461,4.0156,3.9909,3.9569,3.925,3.8905,3.89,3.871,3.8512,3.8492,3.8413,3.8366,3.8383,3.8358,3.8319,3.8225,3.8197,3.8158,3.81,3.7511,3.7003,3.7421,3.8008,3.7943,3.7858,3.767,3.7283,3.7127,3.7273,3.7924,3.8707,3.9394,3.9872,4.0039,4.0186,4.0401,4.1315,4.1677,4.1803,4.2166,4.2488,4.2607,4.2743,4.2767,4.2772,4.2796,4.275,4.2671,4.247,4.2048,4.1647,4.1338,4.107,4.0784,4.0936,4.1372,4.2107,4.3003,4.3563,4.3993,4.4385,4.4775,4.5087,4.5585,4.6025,4.6164,4.6226,4.6221,4.6075,4.6089,4.6097,4.6182,4.6211,4.6168,4.6109,4.6051,4.6007,4.6087,4.6152,4.6152,4.6191,4.625,4.6289,4.372,4.2835,4.2047,4.1277,4.0546,4.0489,4.0508,4.0489,4.0489,4.0489,4.0489,4.0489,4.0489,4.0489,4.0489,4.0489,4.0489,4.0489,4.0545,4.0629,4.0674,4.0711,4.0759,4.0811,4.0902,4.0974,4.1031,4.1057,4.1081,4.1108,4.1094,4.1057,4.0808,4.0881,4.0794,4.0496,4.0154,3.984,3.9725,3.939,3.9039,3.8843,3.8772,3.8619,3.8505,3.8403,3.8338,3.856,3.8673,3.8673,3.8716,3.878,3.8577,3.8523,3.8742,3.881,3.8594,3.8652,3.883,3.8316,3.8213,3.8903,3.967,4.0264,4.0494,4.0099,4.0364,4.1379,4.2431,4.2813,4.3043,4.3388,4.3788,4.388,4.3967,4.4176,4.4122,4.3912,4.3842,4.373,4.3427,4.2946,4.2844,4.2535,4.2075,4.1786,4.2329,4.2745,4.338,4.4182,4.4831,4.5324,4.5659,4.5903,4.5936,4.6196,4.619,4.6189,4.6245,4.6249,4.6206,4.6241,4.628,4.623,4.6207,4.6163,4.6147,4.6117,4.6109,4.6158,4.6186,4.617,4.6175,4.6221,4.6239,4.4605,4.3816,4.347,4.2547,4.1296,4.1296,4.0989,4.0527,4.0489,4.0489,4.0489,4.0489,4.0489,4.0489,4.0489,4.0489,4.0489,4.0489,4.0549,4.0545,4.0574,4.0582,4.063,4.0715,4.0791,4.0882,4.0948,4.1042,4.1104,4.1108,4.1108,4.1097,4.1109,4.1022,4.1019,4.1045,4.0858,4.0728,4.0561,4.0366,4.0288,4.0132,4.0109,4.0075,4.0075,4.0047,4.0072,4.0033,4.0028,3.9959,3.989,3.9926,3.9965,3.9682,3.9689,3.9832,3.9552,3.9976,4.0376,3.9681,3.9115,3.988,4.0636,4.1138,4.1165,4.0631,4.1074,4.2215,4.3715,4.4248,4.3807,4.4346,4.4902,4.5017,4.515,4.5361,4.5266,4.4901,4.4785,4.4607,4.4208,4.3748,4.3761,4.3772,4.326,4.286,4.3504,4.4136,4.4621,4.5055,4.5554,4.5852,4.6086,4.6183,4.6209,4.6209,4.6209,4.6216,4.6241,4.6241,4.6245,4.6262,4.6289,4.6228,4.62,4.6191,4.6181,4.6195,4.6189,4.6144,4.6137,4.6153,4.6167,4.6191,4.6182,4.5259,4.472,4.4682,4.372,4.2258,4.1912,4.147,4.0912,4.0604,4.0489,4.0489,4.0489,4.0489,4.0489,4.0489,4.0489,4.0489,4.0489,4.0489,4.0504,4.0504,4.0489,4.0549,4.0642,4.0757,4.081,4.094,4.1042,4.1108,4.1108,4.1108,4.1169,4.1333,4.1367,4.1062,4.1073,4.1126,4.1114,4.1108,4.1108,4.1049,4.103,4.101,4.0971,4.0929,4.0909,4.0867,4.0828,4.0886,4.0879,4.0901,4.0908,4.0867,4.083,4.0822,4.0858,4.0997,4.1328,4.1597,4.1397,4.0684,4.1446,4.1801,4.2129,4.2029,4.1632,4.2194,4.3272,4.4804,4.5471,4.4605,4.5158,4.5428,4.5423,4.5519,4.5669,4.56,4.5353,4.5437,4.5409,4.5012,4.4733,4.4853,4.4901,4.4582,4.4258,4.4667,4.5052,4.5209,4.559,4.593,4.6094,4.6162,4.6197,4.6206,4.6201,4.6214,4.6225,4.6237,4.6241,4.6246,4.6269,4.6268,4.6221,4.6206,4.6197,4.6183,4.6157,4.6119,4.6056,4.6072,4.6091,4.6076,4.6084,4.6098,4.5528,4.5566,4.5451,4.4489,4.2951,4.2181,4.1797,4.1527,4.0854,4.0489,4.0489,4.0489,4.0489,4.0489,4.0489,4.0489,4.0489,4.0489,4.0489,4.0489,4.0489,4.0489,4.0564,4.0642,4.0757,4.081,4.094,4.1042,4.1108,4.1108,4.1108,4.1348,4.1689,4.1949,4.123,4.1144,4.115,4.1169,4.1289,4.1367,4.1283,4.1303,4.1303,4.1108,4.1108,4.1108,4.1108,4.1108,4.1166,4.1339,4.1312,4.134,4.139,4.1254,4.1399,4.1828,4.1822,4.2229,4.2906,4.2999,4.3013,4.2858,4.2913,4.3192,4.3258,4.3278,4.3438,4.4457,4.5302,4.5756,4.5689,4.5728,4.5747,4.5802,4.5859,4.5871,4.5789,4.5769,4.5805,4.5817,4.5832,4.5812,4.5969,4.6033,4.5819,4.5749,4.5975,4.6018,4.5869,4.5957,4.6167,4.6209,4.6215,4.6202,4.6202,4.6195,4.6204,4.6226,4.6247,4.6249,4.6269,4.6285,4.6258,4.6212,4.6191,4.617,4.6123,4.6093,4.6037,4.5997,4.6007,4.6018,4.6007,4.5977,4.5988,4.4809,4.4752,4.4179,4.3621,4.306,4.2794,4.2354,4.17,4.0931,4.0489,4.0489,4.0489,4.0489,4.0489,4.0489,4.0489,4.0489,4.0489,4.0489,4.0489,4.0504,4.0579,4.0635,4.0706,4.0789,4.089,4.0994,4.1047,4.1108,4.1108,4.1108,4.1328,4.2177,4.2535,4.2712,4.2754,4.2773,4.2772,4.2732,4.2554,4.2028,4.1927,4.1713,4.1267,4.1244,4.1264,4.1303,4.1342,4.1537,4.1885,4.1933,4.21,4.2416,4.2435,4.2558,4.2867,4.2877,4.3288,4.4083,4.4467,4.4381,4.3983,4.3866,4.415,4.4128,4.4703,4.5084,4.5253,4.5589,4.5861,4.5898,4.5891,4.5914,4.5979,4.6024,4.6024,4.5977,4.5985,4.5994,4.5994,4.6018,4.6025,4.6137,4.6218,4.6114,4.6064,4.6156,4.6158,4.6045,4.6069,4.6204,4.6209,4.621,4.6204,4.6202,4.6229,4.623,4.6269,4.6269,4.6287,4.6301,4.6293,4.6234,4.6182,4.6137,4.6118,4.6026,4.5977,4.5956,4.5953,4.605,4.5968,4.5873,4.5866,4.5883,4.4245,4.3917,4.3365,4.3115,4.3092,4.3082,4.2604,4.1758,4.0893,4.0489,4.0489,4.0489,4.0489,4.0489,4.0489,4.0489,4.0489,4.0489,4.0489,4.0504,4.0545,4.0615,4.0681,4.0787,4.0876,4.0981,4.1022,4.1066,4.1108,4.1108,4.1518,4.2204,4.2854,4.381,4.4108,4.4054,4.3474,4.3417,4.3339,4.3223,4.2906,4.2744,4.2583,4.2265,4.2103,4.2084,4.2025,4.2084,4.224,4.2662,4.29,4.3056,4.3467,4.3564,4.3642,4.377,4.4239,4.455,4.5172,4.5483,4.5179,4.4548,4.4846,4.5052,4.5105,4.5422,4.5653,4.5801,4.5891,4.5947,4.6018,4.6036,4.6044,4.6086,4.6125,4.6125,4.6137,4.6123,4.6133,4.6152,4.6152,4.6152,4.6172,4.6206,4.6219,4.6221,4.6225,4.6212,4.6218,4.6221,4.623,4.6229,4.6225,4.6249,4.6249,4.6247,4.6264,4.6301,4.63,4.6297,4.6293,4.6284,4.6216,4.6138,4.6098,4.6041,4.5908,4.5847,4.5867,4.6028,4.6255,4.6098,4.581,4.5896,4.6035,4.3871,4.3216,4.3119,4.3007,4.2977,4.2829,4.2412,4.1681,4.0854,4.0489,4.0489,4.0489,4.0489,4.0489,4.0489,4.0489,4.0489,4.0489,4.0489,4.0534,4.0602,4.0668,4.0768,4.0885,4.0967,4.1031,4.11,4.1175,4.1166,4.1615,4.2376,4.3333,4.4097,4.4816,4.4956,4.477,4.4173,4.4208,4.4184,4.4018,4.375,4.3633,4.3491,4.3286,4.3235,4.3235,4.3255,4.3333,4.3489,4.3684,4.3759,4.3778,4.381,4.3738,4.4202,4.4779,4.5481,4.5695,4.584,4.6013,4.5985,4.554,4.5821,4.6049,4.5968,4.5839,4.5919,4.6016,4.6057,4.6072,4.6105,4.6105,4.6092,4.6147,4.6191,4.6199,4.6209,4.623,4.625,4.6269,4.6269,4.6269,4.625,4.6289,4.6269,4.6268,4.6269,4.6249,4.625,4.6268,4.6268,4.628,4.6273,4.6287,4.6287,4.6273,4.6276,4.6295,4.629,4.6306,4.63,4.6264,4.6138,4.6076,4.6057,4.5988,4.5809,4.5771,4.5819,4.6051,4.6491,4.6403,4.6201,4.6333,4.6499,4.2546,4.2276,4.1644,4.1374,4.1393,4.1364,4.1147,4.0835,4.0566,4.0489,4.0489,4.0489,4.0489,4.0489,4.0489,4.0489,4.0489,4.0489,4.0489,4.0545,4.0655,4.0703,4.0811,4.0933,4.1031,4.1066,4.116,4.142,4.2084,4.2454,4.2962,4.3723,4.4699,4.5219,4.5418,4.5467,4.5363,4.5277,4.5187,4.492,4.4646,4.4531,4.4313,4.4067,4.3957,4.3957,4.3938,4.3918,4.4094,4.4524,4.4602,4.4797,4.5539,4.5527,4.5757,4.5811,4.6075,4.6167,4.6206,4.6206,4.6201,4.6181,4.6206,4.6137,4.6088,4.6044,4.6044,4.6112,4.6186,4.6195,4.6167,4.6167,4.6175,4.6209,4.625,4.625,4.6269,4.6269,4.6289,4.6289,4.6289,4.6269,4.6269,4.6269,4.6248,4.6289,4.6288,4.6258,4.6254,4.6261,4.627,4.6253,4.6253,4.624,4.6277,4.6264,4.6287,4.629,4.6374,4.6396,4.6362,4.6294,4.6099,4.6037,4.6083,4.5906,4.568,4.5767,4.6015,4.6444,4.681,4.6716,4.666,4.6904,4.7174,4.1795,4.1467,4.0932,4.07,4.0687,4.0621,4.0579,4.0549,4.0504,4.0489,4.0489,4.0489,4.0489,4.0489,4.0489,4.0489,4.0489,4.0504,4.0519,4.0615,4.0699,4.0791,4.089,4.1013,4.1042,4.1104,4.1244,4.1518,4.2533,4.3606,4.4231,4.4328,4.507,4.5402,4.5656,4.5921,4.6117,4.6084,4.6016,4.582,4.559,4.5388,4.5078,4.4787,4.4641,4.4641,4.4641,4.4641,4.5012,4.5421,4.55,4.5695,4.6241,4.6261,4.6241,4.6238,4.6257,4.6273,4.6273,4.6277,4.6284,4.6306,4.6287,4.6245,4.6201,4.6164,4.6162,4.6191,4.6256,4.6285,4.6262,4.6239,4.6265,4.6289,4.6289,4.6289,4.6289,4.6289,4.6289,4.6289,4.6269,4.625,4.623,4.6241,4.6215,4.6195,4.6192,4.6179,4.6195,4.6206,4.6197,4.6183,4.6196,4.6183,4.6226,4.6275,4.6328,4.6454,4.6709,4.669,4.6539,4.6602,4.6697,4.6438,4.6119,4.6047,4.6039,4.6157,4.6408,4.6873,4.7527,4.7893,4.7873,4.7738,4.8065,4.1487,4.0829,4.079,4.0759,4.072,4.0635,4.0679,4.0703,4.0742,4.0581,4.0543,4.0504,4.0504,4.0504,4.0489,4.0489,4.0519,4.0534,4.0588,4.0706,4.0791,4.0941,4.1221,4.1222,4.1589,4.142,4.1596,4.2298,4.3021,4.4153,4.5109,4.5148,4.5792,4.6105,4.6124,4.616,4.6241,4.6202,4.6191,4.6078,4.6131,4.6161,4.6247,4.6175,4.6124,4.6124,4.6163,4.6222,4.63,4.628,4.6261,4.6241,4.628,4.63,4.63,4.63,4.63,4.63,4.63,4.63,4.63,4.6303,4.6287,4.628,4.6249,4.623,4.6241,4.6248,4.6282,4.6306,4.6284,4.6262,4.6286,4.6288,4.6289,4.6289,4.6289,4.6289,4.6289,4.6289,4.6264,4.6223,4.6209,4.6195,4.617,4.6117,4.6114,4.6123,4.6164,4.6201,4.6268,4.623,4.6166,4.6189,4.6227,4.6293,4.6388,4.6567,4.7006,4.728,4.7349,4.7359,4.7378,4.7165,4.6928,4.6645,4.6612,4.6846,4.7176,4.764,4.8315,4.9143,4.9182,4.8836,4.899,4.0984,4.079,4.079,4.079,4.0759,4.07,4.1054,4.1652,4.1591,4.1181,4.0669,4.0611,4.0596,4.062,4.062,4.06,4.0519,4.0607,4.0655,4.0854,4.0974,4.1512,4.1902,4.2085,4.2393,4.2923,4.3216,4.3391,4.4192,4.5226,4.5968,4.5968,4.63,4.63,4.6303,4.6264,4.6256,4.6217,4.6219,4.6219,4.6209,4.621,4.6229,4.6273,4.63,4.63,4.63,4.63,4.63,4.628,4.63,4.628,4.63,4.63,4.63,4.63,4.63,4.63,4.6303,4.6284,4.6287,4.6287,4.6306,4.6303,4.6284,4.6293,4.6297,4.6297,4.63,4.6303,4.6305,4.6305,4.6305,4.6307,4.6288,4.6289,4.6289,4.6289,4.6289,4.6269,4.623,4.6199,4.6172,4.619,4.6122,4.6102,4.6111,4.615,4.6249,4.6318,4.653,4.6474,4.6219,4.6197,4.6346,4.6659,4.6902,4.7281,4.7777,4.798,4.818,4.832,4.8419,4.8111,4.7857,4.759,4.7532,4.7805,4.8155,4.843,4.8875,4.9567,5.0029,4.9875,5.0086,4.079,4.079,4.079,4.079,4.081,4.0746,4.1229,4.1892,4.1956,4.187,4.1764,4.1716,4.1547,4.1193,4.1116,4.0853,4.0728,4.0655,4.1098,4.1353,4.1607,4.2175,4.2578,4.2971,4.3154,4.3665,4.4153,4.4563,4.5168,4.5773,4.6241,4.63,4.63,4.63,4.6303,4.6295,4.6282,4.6243,4.6248,4.623,4.621,4.6209,4.6225,4.6287,4.63,4.63,4.63,4.63,4.63,4.63,4.63,4.6276,4.6276,4.627,4.6303,4.63,4.63,4.63,4.6287,4.6273,4.6261,4.6261,4.6268,4.625,4.6269,4.6269,4.6295,4.6293,4.629,4.6293,4.63,4.6301,4.6301,4.6303,4.6288,4.6289,4.6245,4.6211,4.6191,4.6172,4.6142,4.6099,4.6205,4.6581,4.6574,4.6809,4.6715,4.7008,4.6981,4.6795,4.6884,4.6973,4.6881,4.6998,4.7389,4.761,4.7733,4.8126,4.8549,4.9065,4.9406,4.947,4.9451,4.9026,4.8701,4.8546,4.8565,4.8673,4.8739,4.8914,4.9353,4.9904,5.0294,5.0567,5.0469,4.079,4.079,4.079,4.079,4.0829,4.0926,4.1448,4.2144,4.2338,4.2847,4.3477,4.3525,4.296,4.2298,4.2044,4.1556,4.1364,4.1582,4.1926,4.2245,4.2461,4.3066,4.3552,4.3879,4.4114,4.4426,4.4914,4.5109,4.5363,4.5968,4.63,4.63,4.63,4.63,4.63,4.6287,4.6276,4.6285,4.6268,4.6269,4.6249,4.6229,4.6243,4.6273,4.6287,4.629,4.6293,4.6276,4.6276,4.6278,4.6282,4.6248,4.6249,4.6248,4.6265,4.6284,4.6284,4.6284,4.6264,4.6249,4.623,4.6209,4.6195,4.6209,4.6217,4.6247,4.6267,4.6276,4.6273,4.629,4.6295,4.6284,4.6284,4.6268,4.6269,4.6268,4.6206,4.6142,4.6144,4.6144,4.6212,4.6171,4.6571,4.6946,4.7229,4.7444,4.7719,4.8121,4.8271,4.7965,4.7824,4.7998,4.8063,4.8236,4.8305,4.8532,4.8598,4.8889,4.931,5.0066,5.0542,5.0314,5.0062,4.9753,4.9482,4.9377,4.9309,4.9335,4.9394,4.9388,4.9794,5.0174,5.0119,5.0336,5.0313,4.079,4.079,4.081,4.081,4.0906,4.1506,4.226,4.3092,4.3788,4.4562,4.4993,4.5128,4.4472,4.2896,4.2922,4.268,4.2466,4.2626,4.2969,4.3332,4.3397,4.3986,4.452,4.4777,4.5226,4.5539,4.5773,4.5948,4.5812,4.6085,4.63,4.63,4.63,4.6303,4.6303,4.6293,4.6301,4.6306,4.6269,4.623,4.6249,4.623,4.623,4.623,4.6229,4.6226,4.6223,4.62,4.6219,4.6219,4.6223,4.6202,4.6202,4.6221,4.6225,4.6226,4.6226,4.6247,4.6225,4.6219,4.6192,4.6192,4.6171,4.6167,4.6175,4.6199,4.6223,4.623,4.6249,4.6278,4.6261,4.6249,4.623,4.6226,4.6217,4.6179,4.6137,4.617,4.6235,4.6438,4.6677,4.696,4.744,4.7795,4.8097,4.8299,4.8396,4.8759,4.8856,4.8798,4.8778,4.8952,4.9146,4.8778,4.8546,4.9257,4.949,4.9726,4.9977,5.0461,5.079,5.0848,5.06,5.0271,5.0248,5.0218,5.0163,4.9875,4.9867,4.9896,5.0238,5.0449,5.0272,5.0125,5.0076]}]]